<?xml version="1.0" encoding="UTF-8" standalone="no" ?>
<gpx xmlns="http://www.topografix.com/GPX/1/1" xmlns:xsi="http://www.w3.org/2001/XMLSchema-instance" xsi:schemaLocation="http://www.topografix.com/GPX/1/1 http://www.topografix.com/GPX/1/1/gpx.xsd" version="1.1" creator="VisuGPX - https://www.visugpx.com">
  <metadata>
    <name>Lunas - Les Pins</name>
    <desc><![CDATA[Temps un peu couvert le matin, ensoleillé l'après midi]]></desc>
  </metadata>
  <trk>
    <name><![CDATA[20180910123234-QPtUv]]></name>
    <trkseg>
      <trkpt lat="43.70577" lon="3.1909">
        <ele>279.4</ele>
        <time>2018-09-09T07:42:57Z</time>
      </trkpt>
      <trkpt lat="43.70582" lon="3.19089">
        <ele>273.63</ele>
        <time>2018-09-09T07:43:16Z</time>
      </trkpt>
      <trkpt lat="43.70583" lon="3.19091">
        <ele>272.19</ele>
        <time>2018-09-09T07:43:36Z</time>
      </trkpt>
      <trkpt lat="43.70582" lon="3.19089">
        <ele>269.79</ele>
        <time>2018-09-09T07:43:52Z</time>
      </trkpt>
      <trkpt lat="43.70584" lon="3.1909">
        <ele>269.31</ele>
        <time>2018-09-09T07:44:02Z</time>
      </trkpt>
      <trkpt lat="43.70582" lon="3.19089">
        <ele>269.31</ele>
        <time>2018-09-09T07:44:19Z</time>
      </trkpt>
      <trkpt lat="43.70582" lon="3.19089">
        <ele>269.31</ele>
        <time>2018-09-09T07:44:38Z</time>
      </trkpt>
      <trkpt lat="43.70583" lon="3.19089">
        <ele>269.31</ele>
        <time>2018-09-09T07:45:01Z</time>
      </trkpt>
      <trkpt lat="43.70583" lon="3.19089">
        <ele>270.27</ele>
        <time>2018-09-09T07:45:24Z</time>
      </trkpt>
      <trkpt lat="43.70583" lon="3.19088">
        <ele>272.19</ele>
        <time>2018-09-09T07:45:46Z</time>
      </trkpt>
      <trkpt lat="43.70583" lon="3.19088">
        <ele>271.71</ele>
        <time>2018-09-09T07:46:17Z</time>
      </trkpt>
      <trkpt lat="43.70583" lon="3.19088">
        <ele>272.67</ele>
        <time>2018-09-09T07:46:40Z</time>
      </trkpt>
      <trkpt lat="43.70583" lon="3.19088">
        <ele>272.19</ele>
        <time>2018-09-09T07:46:55Z</time>
      </trkpt>
      <trkpt lat="43.70583" lon="3.19089">
        <ele>272.19</ele>
        <time>2018-09-09T07:47:15Z</time>
      </trkpt>
      <trkpt lat="43.70583" lon="3.19089">
        <ele>272.67</ele>
        <time>2018-09-09T07:47:33Z</time>
      </trkpt>
      <trkpt lat="43.70583" lon="3.19089">
        <ele>272.19</ele>
        <time>2018-09-09T07:47:54Z</time>
      </trkpt>
      <trkpt lat="43.70583" lon="3.1909">
        <ele>272.19</ele>
        <time>2018-09-09T07:48:15Z</time>
      </trkpt>
      <trkpt lat="43.70584" lon="3.1909">
        <ele>272.19</ele>
        <time>2018-09-09T07:48:33Z</time>
      </trkpt>
      <trkpt lat="43.70584" lon="3.1909">
        <ele>272.19</ele>
        <time>2018-09-09T07:48:47Z</time>
      </trkpt>
      <trkpt lat="43.70581" lon="3.19087">
        <ele>271.71</ele>
        <time>2018-09-09T07:49:01Z</time>
      </trkpt>
      <trkpt lat="43.70583" lon="3.19088">
        <ele>270.75</ele>
        <time>2018-09-09T07:49:12Z</time>
      </trkpt>
      <trkpt lat="43.70583" lon="3.19089">
        <ele>270.27</ele>
        <time>2018-09-09T07:49:23Z</time>
      </trkpt>
      <trkpt lat="43.70583" lon="3.19089">
        <ele>270.75</ele>
        <time>2018-09-09T07:49:41Z</time>
      </trkpt>
      <trkpt lat="43.70582" lon="3.19088">
        <ele>271.23</ele>
        <time>2018-09-09T07:50:01Z</time>
      </trkpt>
      <trkpt lat="43.70582" lon="3.19088">
        <ele>271.23</ele>
        <time>2018-09-09T07:50:21Z</time>
      </trkpt>
      <trkpt lat="43.70581" lon="3.19088">
        <ele>270.75</ele>
        <time>2018-09-09T07:50:43Z</time>
      </trkpt>
      <trkpt lat="43.70581" lon="3.19088">
        <ele>271.23</ele>
        <time>2018-09-09T07:51:08Z</time>
      </trkpt>
      <trkpt lat="43.70581" lon="3.19089">
        <ele>271.71</ele>
        <time>2018-09-09T07:51:26Z</time>
      </trkpt>
      <trkpt lat="43.70581" lon="3.19087">
        <ele>272.19</ele>
        <time>2018-09-09T07:51:47Z</time>
      </trkpt>
      <trkpt lat="43.70581" lon="3.19087">
        <ele>272.19</ele>
        <time>2018-09-09T07:52:04Z</time>
      </trkpt>
      <trkpt lat="43.70582" lon="3.19088">
        <ele>272.19</ele>
        <time>2018-09-09T07:52:20Z</time>
      </trkpt>
      <trkpt lat="43.70581" lon="3.19088">
        <ele>271.71</ele>
        <time>2018-09-09T07:52:41Z</time>
      </trkpt>
      <trkpt lat="43.70582" lon="3.19088">
        <ele>271.71</ele>
        <time>2018-09-09T07:52:50Z</time>
      </trkpt>
      <trkpt lat="43.70587" lon="3.19096">
        <ele>270.75</ele>
        <time>2018-09-09T07:52:57Z</time>
      </trkpt>
      <trkpt lat="43.70602" lon="3.1911">
        <ele>270.75</ele>
        <time>2018-09-09T07:53:12Z</time>
      </trkpt>
      <trkpt lat="43.70613" lon="3.19129">
        <ele>271.23</ele>
        <time>2018-09-09T07:53:27Z</time>
      </trkpt>
      <trkpt lat="43.70629" lon="3.19141">
        <ele>275.07</ele>
        <time>2018-09-09T07:53:41Z</time>
      </trkpt>
      <trkpt lat="43.70632" lon="3.19144">
        <ele>274.59</ele>
        <time>2018-09-09T07:53:44Z</time>
      </trkpt>
      <trkpt lat="43.7064" lon="3.19162">
        <ele>271.23</ele>
        <time>2018-09-09T07:53:59Z</time>
      </trkpt>
      <trkpt lat="43.7064" lon="3.19161">
        <ele>271.23</ele>
        <time>2018-09-09T07:54:20Z</time>
      </trkpt>
      <trkpt lat="43.7064" lon="3.19163">
        <ele>272.19</ele>
        <time>2018-09-09T07:54:38Z</time>
      </trkpt>
      <trkpt lat="43.70644" lon="3.19169">
        <ele>271.71</ele>
        <time>2018-09-09T07:54:50Z</time>
      </trkpt>
      <trkpt lat="43.7065" lon="3.19183">
        <ele>271.71</ele>
        <time>2018-09-09T07:55:02Z</time>
      </trkpt>
      <trkpt lat="43.70656" lon="3.19203">
        <ele>273.63</ele>
        <time>2018-09-09T07:55:21Z</time>
      </trkpt>
      <trkpt lat="43.70664" lon="3.19222">
        <ele>272.67</ele>
        <time>2018-09-09T07:55:38Z</time>
      </trkpt>
      <trkpt lat="43.70674" lon="3.19243">
        <ele>270.75</ele>
        <time>2018-09-09T07:55:57Z</time>
      </trkpt>
      <trkpt lat="43.70677" lon="3.19256">
        <ele>271.23</ele>
        <time>2018-09-09T07:56:10Z</time>
      </trkpt>
      <trkpt lat="43.70681" lon="3.19273">
        <ele>274.11</ele>
        <time>2018-09-09T07:56:24Z</time>
      </trkpt>
      <trkpt lat="43.70686" lon="3.19294">
        <ele>273.63</ele>
        <time>2018-09-09T07:56:40Z</time>
      </trkpt>
      <trkpt lat="43.70692" lon="3.19309">
        <ele>273.15</ele>
        <time>2018-09-09T07:56:55Z</time>
      </trkpt>
      <trkpt lat="43.70694" lon="3.19325">
        <ele>272.19</ele>
        <time>2018-09-09T07:57:11Z</time>
      </trkpt>
      <trkpt lat="43.70695" lon="3.19333">
        <ele>275.07</ele>
        <time>2018-09-09T07:57:26Z</time>
      </trkpt>
      <trkpt lat="43.70698" lon="3.19352">
        <ele>268.35</ele>
        <time>2018-09-09T07:57:41Z</time>
      </trkpt>
      <trkpt lat="43.70704" lon="3.19368">
        <ele>262.1</ele>
        <time>2018-09-09T07:57:57Z</time>
      </trkpt>
      <trkpt lat="43.7071" lon="3.19385">
        <ele>261.62</ele>
        <time>2018-09-09T07:58:08Z</time>
      </trkpt>
      <trkpt lat="43.70708" lon="3.19393">
        <ele>261.62</ele>
        <time>2018-09-09T07:58:11Z</time>
      </trkpt>
      <trkpt lat="43.70701" lon="3.19411">
        <ele>264.02</ele>
        <time>2018-09-09T07:58:26Z</time>
      </trkpt>
      <trkpt lat="43.707" lon="3.19414">
        <ele>264.98</ele>
        <time>2018-09-09T07:58:52Z</time>
      </trkpt>
      <trkpt lat="43.70701" lon="3.19429">
        <ele>265.46</ele>
        <time>2018-09-09T07:59:08Z</time>
      </trkpt>
      <trkpt lat="43.70701" lon="3.19442">
        <ele>269.79</ele>
        <time>2018-09-09T07:59:22Z</time>
      </trkpt>
      <trkpt lat="43.70699" lon="3.19447">
        <ele>271.23</ele>
        <time>2018-09-09T07:59:32Z</time>
      </trkpt>
      <trkpt lat="43.70699" lon="3.19458">
        <ele>269.31</ele>
        <time>2018-09-09T07:59:45Z</time>
      </trkpt>
      <trkpt lat="43.70705" lon="3.19467">
        <ele>265.46</ele>
        <time>2018-09-09T08:00:05Z</time>
      </trkpt>
      <trkpt lat="43.70699" lon="3.19472">
        <ele>264.98</ele>
        <time>2018-09-09T08:00:12Z</time>
      </trkpt>
      <trkpt lat="43.70684" lon="3.19481">
        <ele>265.94</ele>
        <time>2018-09-09T08:00:27Z</time>
      </trkpt>
      <trkpt lat="43.70677" lon="3.19487">
        <ele>266.42</ele>
        <time>2018-09-09T08:00:39Z</time>
      </trkpt>
      <trkpt lat="43.70671" lon="3.19502">
        <ele>264.98</ele>
        <time>2018-09-09T08:00:51Z</time>
      </trkpt>
      <trkpt lat="43.70661" lon="3.19523">
        <ele>266.9</ele>
        <time>2018-09-09T08:01:05Z</time>
      </trkpt>
      <trkpt lat="43.70652" lon="3.19531">
        <ele>271.71</ele>
        <time>2018-09-09T08:01:18Z</time>
      </trkpt>
      <trkpt lat="43.70641" lon="3.19544">
        <ele>274.11</ele>
        <time>2018-09-09T08:01:33Z</time>
      </trkpt>
      <trkpt lat="43.70637" lon="3.19545">
        <ele>273.63</ele>
        <time>2018-09-09T08:01:37Z</time>
      </trkpt>
      <trkpt lat="43.70623" lon="3.19553">
        <ele>273.15</ele>
        <time>2018-09-09T08:01:53Z</time>
      </trkpt>
      <trkpt lat="43.70614" lon="3.19574">
        <ele>274.59</ele>
        <time>2018-09-09T08:02:10Z</time>
      </trkpt>
      <trkpt lat="43.70609" lon="3.19599">
        <ele>276.04</ele>
        <time>2018-09-09T08:02:28Z</time>
      </trkpt>
      <trkpt lat="43.70605" lon="3.19623">
        <ele>277</ele>
        <time>2018-09-09T08:02:44Z</time>
      </trkpt>
      <trkpt lat="43.70606" lon="3.19624">
        <ele>276.52</ele>
        <time>2018-09-09T08:02:47Z</time>
      </trkpt>
      <trkpt lat="43.70607" lon="3.19637">
        <ele>273.15</ele>
        <time>2018-09-09T08:03:01Z</time>
      </trkpt>
      <trkpt lat="43.70607" lon="3.19644">
        <ele>278.44</ele>
        <time>2018-09-09T08:03:17Z</time>
      </trkpt>
      <trkpt lat="43.70599" lon="3.19649">
        <ele>279.4</ele>
        <time>2018-09-09T08:03:35Z</time>
      </trkpt>
      <trkpt lat="43.70604" lon="3.19658">
        <ele>277</ele>
        <time>2018-09-09T08:03:46Z</time>
      </trkpt>
      <trkpt lat="43.70607" lon="3.19671">
        <ele>277.96</ele>
        <time>2018-09-09T08:03:57Z</time>
      </trkpt>
      <trkpt lat="43.70604" lon="3.19677">
        <ele>277.96</ele>
        <time>2018-09-09T08:04:21Z</time>
      </trkpt>
      <trkpt lat="43.70607" lon="3.1968">
        <ele>278.44</ele>
        <time>2018-09-09T08:04:23Z</time>
      </trkpt>
      <trkpt lat="43.70615" lon="3.19696">
        <ele>279.88</ele>
        <time>2018-09-09T08:04:38Z</time>
      </trkpt>
      <trkpt lat="43.70616" lon="3.19695">
        <ele>279.88</ele>
        <time>2018-09-09T08:04:54Z</time>
      </trkpt>
      <trkpt lat="43.70608" lon="3.19696">
        <ele>279.88</ele>
        <time>2018-09-09T08:05:11Z</time>
      </trkpt>
      <trkpt lat="43.70613" lon="3.19691">
        <ele>279.88</ele>
        <time>2018-09-09T08:05:33Z</time>
      </trkpt>
      <trkpt lat="43.70614" lon="3.19691">
        <ele>279.88</ele>
        <time>2018-09-09T08:05:35Z</time>
      </trkpt>
      <trkpt lat="43.70616" lon="3.19703">
        <ele>284.21</ele>
        <time>2018-09-09T08:05:46Z</time>
      </trkpt>
      <trkpt lat="43.70614" lon="3.19715">
        <ele>286.61</ele>
        <time>2018-09-09T08:05:52Z</time>
      </trkpt>
      <trkpt lat="43.70611" lon="3.19718">
        <ele>285.65</ele>
        <time>2018-09-09T08:06:01Z</time>
      </trkpt>
      <trkpt lat="43.70614" lon="3.19726">
        <ele>284.21</ele>
        <time>2018-09-09T08:06:11Z</time>
      </trkpt>
      <trkpt lat="43.70616" lon="3.19754">
        <ele>282.77</ele>
        <time>2018-09-09T08:06:27Z</time>
      </trkpt>
      <trkpt lat="43.70615" lon="3.19757">
        <ele>282.77</ele>
        <time>2018-09-09T08:06:29Z</time>
      </trkpt>
      <trkpt lat="43.70611" lon="3.19775">
        <ele>281.8</ele>
        <time>2018-09-09T08:06:42Z</time>
      </trkpt>
      <trkpt lat="43.70603" lon="3.19783">
        <ele>280.36</ele>
        <time>2018-09-09T08:06:57Z</time>
      </trkpt>
      <trkpt lat="43.70597" lon="3.1979">
        <ele>282.77</ele>
        <time>2018-09-09T08:07:13Z</time>
      </trkpt>
      <trkpt lat="43.70599" lon="3.19793">
        <ele>284.69</ele>
        <time>2018-09-09T08:07:33Z</time>
      </trkpt>
      <trkpt lat="43.70598" lon="3.19794">
        <ele>286.13</ele>
        <time>2018-09-09T08:07:58Z</time>
      </trkpt>
      <trkpt lat="43.70595" lon="3.19795">
        <ele>289.01</ele>
        <time>2018-09-09T08:08:18Z</time>
      </trkpt>
      <trkpt lat="43.70592" lon="3.19797">
        <ele>289.01</ele>
        <time>2018-09-09T08:08:32Z</time>
      </trkpt>
      <trkpt lat="43.70591" lon="3.19799">
        <ele>289.97</ele>
        <time>2018-09-09T08:08:45Z</time>
      </trkpt>
      <trkpt lat="43.70585" lon="3.19803">
        <ele>291.9</ele>
        <time>2018-09-09T08:08:57Z</time>
      </trkpt>
      <trkpt lat="43.70582" lon="3.19804">
        <ele>293.34</ele>
        <time>2018-09-09T08:09:15Z</time>
      </trkpt>
      <trkpt lat="43.7058" lon="3.19804">
        <ele>293.82</ele>
        <time>2018-09-09T08:09:27Z</time>
      </trkpt>
      <trkpt lat="43.7058" lon="3.19804">
        <ele>293.82</ele>
        <time>2018-09-09T08:09:43Z</time>
      </trkpt>
      <trkpt lat="43.70567" lon="3.19813">
        <ele>294.3</ele>
        <time>2018-09-09T08:09:57Z</time>
      </trkpt>
      <trkpt lat="43.70564" lon="3.19814">
        <ele>293.82</ele>
        <time>2018-09-09T08:10:01Z</time>
      </trkpt>
      <trkpt lat="43.70557" lon="3.19821">
        <ele>294.78</ele>
        <time>2018-09-09T08:10:12Z</time>
      </trkpt>
      <trkpt lat="43.70547" lon="3.19827">
        <ele>295.74</ele>
        <time>2018-09-09T08:10:21Z</time>
      </trkpt>
      <trkpt lat="43.70545" lon="3.19831">
        <ele>295.74</ele>
        <time>2018-09-09T08:10:24Z</time>
      </trkpt>
      <trkpt lat="43.70536" lon="3.19834">
        <ele>293.34</ele>
        <time>2018-09-09T08:10:35Z</time>
      </trkpt>
      <trkpt lat="43.70526" lon="3.19836">
        <ele>292.86</ele>
        <time>2018-09-09T08:10:49Z</time>
      </trkpt>
      <trkpt lat="43.70521" lon="3.19837">
        <ele>292.86</ele>
        <time>2018-09-09T08:10:54Z</time>
      </trkpt>
      <trkpt lat="43.70507" lon="3.19844">
        <ele>294.3</ele>
        <time>2018-09-09T08:11:10Z</time>
      </trkpt>
      <trkpt lat="43.70503" lon="3.19845">
        <ele>295.74</ele>
        <time>2018-09-09T08:11:14Z</time>
      </trkpt>
      <trkpt lat="43.70499" lon="3.19849">
        <ele>297.18</ele>
        <time>2018-09-09T08:11:21Z</time>
      </trkpt>
      <trkpt lat="43.70484" lon="3.19865">
        <ele>298.63</ele>
        <time>2018-09-09T08:11:36Z</time>
      </trkpt>
      <trkpt lat="43.70474" lon="3.19875">
        <ele>299.11</ele>
        <time>2018-09-09T08:11:51Z</time>
      </trkpt>
      <trkpt lat="43.70472" lon="3.19879">
        <ele>299.11</ele>
        <time>2018-09-09T08:11:54Z</time>
      </trkpt>
      <trkpt lat="43.70462" lon="3.19887">
        <ele>301.03</ele>
        <time>2018-09-09T08:12:05Z</time>
      </trkpt>
      <trkpt lat="43.70456" lon="3.1989">
        <ele>301.51</ele>
        <time>2018-09-09T08:12:13Z</time>
      </trkpt>
      <trkpt lat="43.70446" lon="3.19897">
        <ele>301.99</ele>
        <time>2018-09-09T08:12:27Z</time>
      </trkpt>
      <trkpt lat="43.70433" lon="3.19906">
        <ele>303.91</ele>
        <time>2018-09-09T08:12:42Z</time>
      </trkpt>
      <trkpt lat="43.70426" lon="3.19917">
        <ele>307.28</ele>
        <time>2018-09-09T08:12:51Z</time>
      </trkpt>
      <trkpt lat="43.70417" lon="3.19928">
        <ele>308.72</ele>
        <time>2018-09-09T08:13:05Z</time>
      </trkpt>
      <trkpt lat="43.70413" lon="3.1993">
        <ele>309.68</ele>
        <time>2018-09-09T08:13:17Z</time>
      </trkpt>
      <trkpt lat="43.70413" lon="3.19929">
        <ele>308.24</ele>
        <time>2018-09-09T08:13:34Z</time>
      </trkpt>
      <trkpt lat="43.70414" lon="3.1993">
        <ele>308.24</ele>
        <time>2018-09-09T08:13:56Z</time>
      </trkpt>
      <trkpt lat="43.70411" lon="3.19939">
        <ele>307.28</ele>
        <time>2018-09-09T08:14:08Z</time>
      </trkpt>
      <trkpt lat="43.70411" lon="3.19935">
        <ele>306.8</ele>
        <time>2018-09-09T08:14:20Z</time>
      </trkpt>
      <trkpt lat="43.70416" lon="3.19928">
        <ele>304.88</ele>
        <time>2018-09-09T08:14:33Z</time>
      </trkpt>
      <trkpt lat="43.70423" lon="3.19911">
        <ele>302.95</ele>
        <time>2018-09-09T08:14:47Z</time>
      </trkpt>
      <trkpt lat="43.7043" lon="3.19899">
        <ele>301.99</ele>
        <time>2018-09-09T08:15:03Z</time>
      </trkpt>
      <trkpt lat="43.70439" lon="3.19889">
        <ele>301.99</ele>
        <time>2018-09-09T08:15:20Z</time>
      </trkpt>
      <trkpt lat="43.70453" lon="3.19875">
        <ele>302.47</ele>
        <time>2018-09-09T08:15:42Z</time>
      </trkpt>
      <trkpt lat="43.70461" lon="3.19861">
        <ele>304.88</ele>
        <time>2018-09-09T08:15:57Z</time>
      </trkpt>
      <trkpt lat="43.70465" lon="3.19854">
        <ele>307.28</ele>
        <time>2018-09-09T08:16:09Z</time>
      </trkpt>
      <trkpt lat="43.70467" lon="3.1985">
        <ele>308.72</ele>
        <time>2018-09-09T08:16:24Z</time>
      </trkpt>
      <trkpt lat="43.70482" lon="3.19838">
        <ele>306.8</ele>
        <time>2018-09-09T08:16:37Z</time>
      </trkpt>
      <trkpt lat="43.70495" lon="3.19826">
        <ele>309.2</ele>
        <time>2018-09-09T08:16:49Z</time>
      </trkpt>
      <trkpt lat="43.70503" lon="3.19812">
        <ele>313.05</ele>
        <time>2018-09-09T08:17:03Z</time>
      </trkpt>
      <trkpt lat="43.70509" lon="3.19805">
        <ele>314.01</ele>
        <time>2018-09-09T08:17:15Z</time>
      </trkpt>
      <trkpt lat="43.70523" lon="3.19793">
        <ele>316.89</ele>
        <time>2018-09-09T08:17:31Z</time>
      </trkpt>
      <trkpt lat="43.70534" lon="3.19783">
        <ele>317.85</ele>
        <time>2018-09-09T08:17:46Z</time>
      </trkpt>
      <trkpt lat="43.70539" lon="3.19778">
        <ele>318.33</ele>
        <time>2018-09-09T08:17:53Z</time>
      </trkpt>
      <trkpt lat="43.70548" lon="3.19764">
        <ele>317.85</ele>
        <time>2018-09-09T08:18:08Z</time>
      </trkpt>
      <trkpt lat="43.70551" lon="3.19758">
        <ele>317.37</ele>
        <time>2018-09-09T08:18:18Z</time>
      </trkpt>
      <trkpt lat="43.70552" lon="3.19753">
        <ele>317.37</ele>
        <time>2018-09-09T08:18:21Z</time>
      </trkpt>
      <trkpt lat="43.7055" lon="3.19744">
        <ele>319.3</ele>
        <time>2018-09-09T08:18:35Z</time>
      </trkpt>
      <trkpt lat="43.70549" lon="3.19738">
        <ele>318.33</ele>
        <time>2018-09-09T08:18:50Z</time>
      </trkpt>
      <trkpt lat="43.70546" lon="3.19722">
        <ele>316.89</ele>
        <time>2018-09-09T08:19:00Z</time>
      </trkpt>
      <trkpt lat="43.70546" lon="3.19717">
        <ele>318.33</ele>
        <time>2018-09-09T08:19:04Z</time>
      </trkpt>
      <trkpt lat="43.70547" lon="3.19704">
        <ele>320.74</ele>
        <time>2018-09-09T08:19:17Z</time>
      </trkpt>
      <trkpt lat="43.70545" lon="3.19683">
        <ele>320.26</ele>
        <time>2018-09-09T08:19:32Z</time>
      </trkpt>
      <trkpt lat="43.70543" lon="3.19674">
        <ele>321.22</ele>
        <time>2018-09-09T08:19:45Z</time>
      </trkpt>
      <trkpt lat="43.70545" lon="3.19658">
        <ele>320.74</ele>
        <time>2018-09-09T08:19:58Z</time>
      </trkpt>
      <trkpt lat="43.70546" lon="3.19642">
        <ele>322.18</ele>
        <time>2018-09-09T08:20:12Z</time>
      </trkpt>
      <trkpt lat="43.70543" lon="3.19619">
        <ele>326.99</ele>
        <time>2018-09-09T08:20:25Z</time>
      </trkpt>
      <trkpt lat="43.70543" lon="3.19605">
        <ele>326.02</ele>
        <time>2018-09-09T08:20:36Z</time>
      </trkpt>
      <trkpt lat="43.70545" lon="3.19593">
        <ele>325.54</ele>
        <time>2018-09-09T08:20:47Z</time>
      </trkpt>
      <trkpt lat="43.70548" lon="3.19578">
        <ele>322.66</ele>
        <time>2018-09-09T08:21:01Z</time>
      </trkpt>
      <trkpt lat="43.70549" lon="3.19573">
        <ele>321.7</ele>
        <time>2018-09-09T08:21:05Z</time>
      </trkpt>
      <trkpt lat="43.70551" lon="3.19558">
        <ele>322.18</ele>
        <time>2018-09-09T08:21:19Z</time>
      </trkpt>
      <trkpt lat="43.70555" lon="3.19555">
        <ele>327.95</ele>
        <time>2018-09-09T08:21:37Z</time>
      </trkpt>
      <trkpt lat="43.70556" lon="3.19556">
        <ele>330.35</ele>
        <time>2018-09-09T08:21:55Z</time>
      </trkpt>
      <trkpt lat="43.70555" lon="3.19557">
        <ele>331.79</ele>
        <time>2018-09-09T08:22:15Z</time>
      </trkpt>
      <trkpt lat="43.70552" lon="3.19554">
        <ele>333.71</ele>
        <time>2018-09-09T08:22:34Z</time>
      </trkpt>
      <trkpt lat="43.70545" lon="3.19561">
        <ele>335.64</ele>
        <time>2018-09-09T08:22:47Z</time>
      </trkpt>
      <trkpt lat="43.70543" lon="3.19578">
        <ele>337.56</ele>
        <time>2018-09-09T08:23:04Z</time>
      </trkpt>
      <trkpt lat="43.70542" lon="3.1958">
        <ele>337.56</ele>
        <time>2018-09-09T08:23:06Z</time>
      </trkpt>
      <trkpt lat="43.70538" lon="3.19594">
        <ele>337.56</ele>
        <time>2018-09-09T08:23:20Z</time>
      </trkpt>
      <trkpt lat="43.70536" lon="3.196">
        <ele>337.56</ele>
        <time>2018-09-09T08:23:25Z</time>
      </trkpt>
      <trkpt lat="43.70531" lon="3.19609">
        <ele>339.48</ele>
        <time>2018-09-09T08:23:36Z</time>
      </trkpt>
      <trkpt lat="43.70528" lon="3.19625">
        <ele>339.48</ele>
        <time>2018-09-09T08:23:51Z</time>
      </trkpt>
      <trkpt lat="43.70526" lon="3.19636">
        <ele>338.52</ele>
        <time>2018-09-09T08:24:05Z</time>
      </trkpt>
      <trkpt lat="43.70525" lon="3.19648">
        <ele>338.52</ele>
        <time>2018-09-09T08:24:18Z</time>
      </trkpt>
      <trkpt lat="43.70522" lon="3.19663">
        <ele>339.96</ele>
        <time>2018-09-09T08:24:33Z</time>
      </trkpt>
      <trkpt lat="43.70519" lon="3.19685">
        <ele>341.41</ele>
        <time>2018-09-09T08:24:51Z</time>
      </trkpt>
      <trkpt lat="43.70516" lon="3.19699">
        <ele>341.89</ele>
        <time>2018-09-09T08:25:05Z</time>
      </trkpt>
      <trkpt lat="43.70514" lon="3.19705">
        <ele>341.89</ele>
        <time>2018-09-09T08:25:18Z</time>
      </trkpt>
      <trkpt lat="43.70506" lon="3.19719">
        <ele>342.37</ele>
        <time>2018-09-09T08:25:33Z</time>
      </trkpt>
      <trkpt lat="43.70504" lon="3.19721">
        <ele>342.85</ele>
        <time>2018-09-09T08:25:35Z</time>
      </trkpt>
      <trkpt lat="43.70498" lon="3.19733">
        <ele>343.81</ele>
        <time>2018-09-09T08:25:48Z</time>
      </trkpt>
      <trkpt lat="43.70491" lon="3.19743">
        <ele>343.33</ele>
        <time>2018-09-09T08:26:01Z</time>
      </trkpt>
      <trkpt lat="43.70489" lon="3.19747">
        <ele>343.33</ele>
        <time>2018-09-09T08:26:04Z</time>
      </trkpt>
      <trkpt lat="43.7048" lon="3.19751">
        <ele>339.96</ele>
        <time>2018-09-09T08:26:18Z</time>
      </trkpt>
      <trkpt lat="43.70471" lon="3.19755">
        <ele>336.6</ele>
        <time>2018-09-09T08:26:32Z</time>
      </trkpt>
      <trkpt lat="43.70463" lon="3.19761">
        <ele>336.12</ele>
        <time>2018-09-09T08:26:45Z</time>
      </trkpt>
      <trkpt lat="43.7045" lon="3.19771">
        <ele>337.08</ele>
        <time>2018-09-09T08:26:58Z</time>
      </trkpt>
      <trkpt lat="43.70439" lon="3.19781">
        <ele>339.96</ele>
        <time>2018-09-09T08:27:11Z</time>
      </trkpt>
      <trkpt lat="43.70431" lon="3.19788">
        <ele>339.96</ele>
        <time>2018-09-09T08:27:24Z</time>
      </trkpt>
      <trkpt lat="43.70413" lon="3.19806">
        <ele>345.25</ele>
        <time>2018-09-09T08:27:43Z</time>
      </trkpt>
      <trkpt lat="43.70405" lon="3.19805">
        <ele>343.81</ele>
        <time>2018-09-09T08:27:59Z</time>
      </trkpt>
      <trkpt lat="43.70396" lon="3.19814">
        <ele>343.81</ele>
        <time>2018-09-09T08:28:16Z</time>
      </trkpt>
      <trkpt lat="43.70381" lon="3.19843">
        <ele>355.83</ele>
        <time>2018-09-09T08:28:30Z</time>
      </trkpt>
      <trkpt lat="43.70371" lon="3.19848">
        <ele>358.23</ele>
        <time>2018-09-09T08:28:43Z</time>
      </trkpt>
      <trkpt lat="43.70366" lon="3.19865">
        <ele>361.11</ele>
        <time>2018-09-09T08:28:54Z</time>
      </trkpt>
      <trkpt lat="43.70359" lon="3.19875">
        <ele>361.59</ele>
        <time>2018-09-09T08:29:07Z</time>
      </trkpt>
      <trkpt lat="43.70358" lon="3.19876">
        <ele>361.59</ele>
        <time>2018-09-09T08:29:08Z</time>
      </trkpt>
      <trkpt lat="43.7035" lon="3.19884">
        <ele>361.11</ele>
        <time>2018-09-09T08:29:18Z</time>
      </trkpt>
      <trkpt lat="43.70341" lon="3.19901">
        <ele>356.31</ele>
        <time>2018-09-09T08:29:33Z</time>
      </trkpt>
      <trkpt lat="43.70338" lon="3.19915">
        <ele>354.86</ele>
        <time>2018-09-09T08:29:45Z</time>
      </trkpt>
      <trkpt lat="43.70333" lon="3.19928">
        <ele>349.1</ele>
        <time>2018-09-09T08:30:01Z</time>
      </trkpt>
      <trkpt lat="43.70326" lon="3.19938">
        <ele>345.73</ele>
        <time>2018-09-09T08:30:15Z</time>
      </trkpt>
      <trkpt lat="43.70325" lon="3.19941">
        <ele>345.73</ele>
        <time>2018-09-09T08:30:20Z</time>
      </trkpt>
      <trkpt lat="43.70323" lon="3.19947">
        <ele>346.69</ele>
        <time>2018-09-09T08:30:24Z</time>
      </trkpt>
      <trkpt lat="43.70314" lon="3.19959">
        <ele>349.1</ele>
        <time>2018-09-09T08:30:38Z</time>
      </trkpt>
      <trkpt lat="43.7031" lon="3.19962">
        <ele>349.58</ele>
        <time>2018-09-09T08:30:44Z</time>
      </trkpt>
      <trkpt lat="43.70304" lon="3.19968">
        <ele>351.02</ele>
        <time>2018-09-09T08:30:56Z</time>
      </trkpt>
      <trkpt lat="43.70301" lon="3.19975">
        <ele>352.46</ele>
        <time>2018-09-09T08:31:00Z</time>
      </trkpt>
      <trkpt lat="43.70295" lon="3.19981">
        <ele>357.75</ele>
        <time>2018-09-09T08:31:12Z</time>
      </trkpt>
      <trkpt lat="43.7029" lon="3.1998">
        <ele>358.71</ele>
        <time>2018-09-09T08:31:24Z</time>
      </trkpt>
      <trkpt lat="43.7029" lon="3.19979">
        <ele>360.15</ele>
        <time>2018-09-09T08:31:45Z</time>
      </trkpt>
      <trkpt lat="43.7029" lon="3.19979">
        <ele>361.11</ele>
        <time>2018-09-09T08:32:07Z</time>
      </trkpt>
      <trkpt lat="43.70291" lon="3.1998">
        <ele>362.55</ele>
        <time>2018-09-09T08:32:34Z</time>
      </trkpt>
      <trkpt lat="43.70291" lon="3.19975">
        <ele>363.52</ele>
        <time>2018-09-09T08:32:50Z</time>
      </trkpt>
      <trkpt lat="43.7029" lon="3.19973">
        <ele>364</ele>
        <time>2018-09-09T08:33:09Z</time>
      </trkpt>
      <trkpt lat="43.70292" lon="3.19972">
        <ele>364.48</ele>
        <time>2018-09-09T08:33:25Z</time>
      </trkpt>
      <trkpt lat="43.70293" lon="3.19972">
        <ele>364.96</ele>
        <time>2018-09-09T08:33:39Z</time>
      </trkpt>
      <trkpt lat="43.70294" lon="3.19965">
        <ele>364.48</ele>
        <time>2018-09-09T08:33:51Z</time>
      </trkpt>
      <trkpt lat="43.70299" lon="3.19957">
        <ele>360.15</ele>
        <time>2018-09-09T08:34:04Z</time>
      </trkpt>
      <trkpt lat="43.70302" lon="3.19952">
        <ele>358.71</ele>
        <time>2018-09-09T08:34:20Z</time>
      </trkpt>
      <trkpt lat="43.70302" lon="3.1993">
        <ele>354.86</ele>
        <time>2018-09-09T08:34:35Z</time>
      </trkpt>
      <trkpt lat="43.70305" lon="3.1992">
        <ele>354.38</ele>
        <time>2018-09-09T08:34:53Z</time>
      </trkpt>
      <trkpt lat="43.70305" lon="3.19917">
        <ele>354.86</ele>
        <time>2018-09-09T08:35:17Z</time>
      </trkpt>
      <trkpt lat="43.7031" lon="3.19909">
        <ele>354.86</ele>
        <time>2018-09-09T08:35:31Z</time>
      </trkpt>
      <trkpt lat="43.70316" lon="3.19893">
        <ele>357.27</ele>
        <time>2018-09-09T08:35:47Z</time>
      </trkpt>
      <trkpt lat="43.70318" lon="3.19881">
        <ele>358.23</ele>
        <time>2018-09-09T08:36:02Z</time>
      </trkpt>
      <trkpt lat="43.70324" lon="3.19868">
        <ele>359.67</ele>
        <time>2018-09-09T08:36:17Z</time>
      </trkpt>
      <trkpt lat="43.70326" lon="3.19857">
        <ele>362.07</ele>
        <time>2018-09-09T08:36:31Z</time>
      </trkpt>
      <trkpt lat="43.70326" lon="3.1985">
        <ele>364.96</ele>
        <time>2018-09-09T08:36:45Z</time>
      </trkpt>
      <trkpt lat="43.70328" lon="3.19841">
        <ele>366.88</ele>
        <time>2018-09-09T08:36:58Z</time>
      </trkpt>
      <trkpt lat="43.70331" lon="3.19831">
        <ele>366.4</ele>
        <time>2018-09-09T08:37:11Z</time>
      </trkpt>
      <trkpt lat="43.70331" lon="3.19819">
        <ele>373.13</ele>
        <time>2018-09-09T08:37:21Z</time>
      </trkpt>
      <trkpt lat="43.70332" lon="3.19818">
        <ele>376.01</ele>
        <time>2018-09-09T08:37:39Z</time>
      </trkpt>
      <trkpt lat="43.70333" lon="3.19823">
        <ele>377.94</ele>
        <time>2018-09-09T08:37:54Z</time>
      </trkpt>
      <trkpt lat="43.70329" lon="3.19826">
        <ele>377.94</ele>
        <time>2018-09-09T08:38:07Z</time>
      </trkpt>
      <trkpt lat="43.70328" lon="3.19832">
        <ele>377.45</ele>
        <time>2018-09-09T08:38:19Z</time>
      </trkpt>
      <trkpt lat="43.70323" lon="3.19839">
        <ele>376.97</ele>
        <time>2018-09-09T08:38:34Z</time>
      </trkpt>
      <trkpt lat="43.70317" lon="3.19848">
        <ele>376.49</ele>
        <time>2018-09-09T08:38:47Z</time>
      </trkpt>
      <trkpt lat="43.7031" lon="3.1986">
        <ele>376.01</ele>
        <time>2018-09-09T08:39:02Z</time>
      </trkpt>
      <trkpt lat="43.70302" lon="3.19867">
        <ele>377.94</ele>
        <time>2018-09-09T08:39:16Z</time>
      </trkpt>
      <trkpt lat="43.70297" lon="3.19876">
        <ele>381.78</ele>
        <time>2018-09-09T08:39:29Z</time>
      </trkpt>
      <trkpt lat="43.70291" lon="3.19884">
        <ele>385.15</ele>
        <time>2018-09-09T08:39:39Z</time>
      </trkpt>
      <trkpt lat="43.70287" lon="3.19892">
        <ele>384.66</ele>
        <time>2018-09-09T08:39:46Z</time>
      </trkpt>
      <trkpt lat="43.70282" lon="3.19897">
        <ele>386.11</ele>
        <time>2018-09-09T08:39:57Z</time>
      </trkpt>
      <trkpt lat="43.70276" lon="3.19904">
        <ele>385.15</ele>
        <time>2018-09-09T08:40:08Z</time>
      </trkpt>
      <trkpt lat="43.70272" lon="3.19909">
        <ele>385.15</ele>
        <time>2018-09-09T08:40:24Z</time>
      </trkpt>
      <trkpt lat="43.70265" lon="3.19916">
        <ele>384.18</ele>
        <time>2018-09-09T08:40:37Z</time>
      </trkpt>
      <trkpt lat="43.70257" lon="3.19924">
        <ele>386.11</ele>
        <time>2018-09-09T08:40:53Z</time>
      </trkpt>
      <trkpt lat="43.70247" lon="3.19931">
        <ele>390.43</ele>
        <time>2018-09-09T08:41:08Z</time>
      </trkpt>
      <trkpt lat="43.70241" lon="3.19938">
        <ele>392.84</ele>
        <time>2018-09-09T08:41:23Z</time>
      </trkpt>
      <trkpt lat="43.70234" lon="3.19946">
        <ele>397.64</ele>
        <time>2018-09-09T08:41:35Z</time>
      </trkpt>
      <trkpt lat="43.70228" lon="3.19953">
        <ele>402.45</ele>
        <time>2018-09-09T08:41:50Z</time>
      </trkpt>
      <trkpt lat="43.70226" lon="3.19955">
        <ele>401.97</ele>
        <time>2018-09-09T08:42:11Z</time>
      </trkpt>
      <trkpt lat="43.7022" lon="3.19963">
        <ele>403.41</ele>
        <time>2018-09-09T08:42:25Z</time>
      </trkpt>
      <trkpt lat="43.70216" lon="3.19977">
        <ele>402.93</ele>
        <time>2018-09-09T08:42:38Z</time>
      </trkpt>
      <trkpt lat="43.70211" lon="3.19983">
        <ele>403.41</ele>
        <time>2018-09-09T08:42:50Z</time>
      </trkpt>
      <trkpt lat="43.70207" lon="3.19993">
        <ele>403.89</ele>
        <time>2018-09-09T08:43:04Z</time>
      </trkpt>
      <trkpt lat="43.70202" lon="3.20005">
        <ele>401.01</ele>
        <time>2018-09-09T08:43:18Z</time>
      </trkpt>
      <trkpt lat="43.70198" lon="3.20015">
        <ele>401.97</ele>
        <time>2018-09-09T08:43:31Z</time>
      </trkpt>
      <trkpt lat="43.70192" lon="3.20026">
        <ele>402.93</ele>
        <time>2018-09-09T08:43:45Z</time>
      </trkpt>
      <trkpt lat="43.70191" lon="3.20027">
        <ele>404.37</ele>
        <time>2018-09-09T08:43:47Z</time>
      </trkpt>
      <trkpt lat="43.70187" lon="3.20033">
        <ele>407.26</ele>
        <time>2018-09-09T08:43:58Z</time>
      </trkpt>
      <trkpt lat="43.70184" lon="3.20035">
        <ele>408.7</ele>
        <time>2018-09-09T08:44:01Z</time>
      </trkpt>
      <trkpt lat="43.70179" lon="3.20046">
        <ele>411.1</ele>
        <time>2018-09-09T08:44:14Z</time>
      </trkpt>
      <trkpt lat="43.70172" lon="3.2006">
        <ele>414.47</ele>
        <time>2018-09-09T08:44:26Z</time>
      </trkpt>
      <trkpt lat="43.70168" lon="3.20058">
        <ele>416.39</ele>
        <time>2018-09-09T08:44:37Z</time>
      </trkpt>
      <trkpt lat="43.70167" lon="3.20052">
        <ele>414.47</ele>
        <time>2018-09-09T08:44:54Z</time>
      </trkpt>
      <trkpt lat="43.70169" lon="3.20037">
        <ele>414.47</ele>
        <time>2018-09-09T08:45:09Z</time>
      </trkpt>
      <trkpt lat="43.70168" lon="3.20021">
        <ele>413.5</ele>
        <time>2018-09-09T08:45:21Z</time>
      </trkpt>
      <trkpt lat="43.70171" lon="3.20014">
        <ele>414.95</ele>
        <time>2018-09-09T08:45:32Z</time>
      </trkpt>
      <trkpt lat="43.70171" lon="3.20006">
        <ele>415.91</ele>
        <time>2018-09-09T08:45:42Z</time>
      </trkpt>
      <trkpt lat="43.70173" lon="3.19994">
        <ele>417.35</ele>
        <time>2018-09-09T08:45:54Z</time>
      </trkpt>
      <trkpt lat="43.70176" lon="3.1998">
        <ele>417.83</ele>
        <time>2018-09-09T08:46:10Z</time>
      </trkpt>
      <trkpt lat="43.70177" lon="3.19968">
        <ele>419.75</ele>
        <time>2018-09-09T08:46:22Z</time>
      </trkpt>
      <trkpt lat="43.70179" lon="3.19957">
        <ele>422.16</ele>
        <time>2018-09-09T08:46:37Z</time>
      </trkpt>
      <trkpt lat="43.7018" lon="3.1994">
        <ele>421.68</ele>
        <time>2018-09-09T08:46:51Z</time>
      </trkpt>
      <trkpt lat="43.70178" lon="3.19926">
        <ele>421.68</ele>
        <time>2018-09-09T08:47:08Z</time>
      </trkpt>
      <trkpt lat="43.70184" lon="3.19909">
        <ele>422.64</ele>
        <time>2018-09-09T08:47:23Z</time>
      </trkpt>
      <trkpt lat="43.70193" lon="3.19898">
        <ele>421.68</ele>
        <time>2018-09-09T08:47:36Z</time>
      </trkpt>
      <trkpt lat="43.702" lon="3.19886">
        <ele>421.19</ele>
        <time>2018-09-09T08:47:50Z</time>
      </trkpt>
      <trkpt lat="43.70207" lon="3.19878">
        <ele>423.12</ele>
        <time>2018-09-09T08:48:03Z</time>
      </trkpt>
      <trkpt lat="43.70211" lon="3.19866">
        <ele>424.56</ele>
        <time>2018-09-09T08:48:19Z</time>
      </trkpt>
      <trkpt lat="43.70214" lon="3.19852">
        <ele>422.16</ele>
        <time>2018-09-09T08:48:35Z</time>
      </trkpt>
      <trkpt lat="43.70219" lon="3.19839">
        <ele>424.56</ele>
        <time>2018-09-09T08:48:50Z</time>
      </trkpt>
      <trkpt lat="43.70221" lon="3.19825">
        <ele>426</ele>
        <time>2018-09-09T08:49:04Z</time>
      </trkpt>
      <trkpt lat="43.70225" lon="3.19814">
        <ele>425.52</ele>
        <time>2018-09-09T08:49:18Z</time>
      </trkpt>
      <trkpt lat="43.70232" lon="3.19801">
        <ele>424.56</ele>
        <time>2018-09-09T08:49:35Z</time>
      </trkpt>
      <trkpt lat="43.70237" lon="3.19787">
        <ele>427.44</ele>
        <time>2018-09-09T08:49:49Z</time>
      </trkpt>
      <trkpt lat="43.70241" lon="3.19776">
        <ele>428.89</ele>
        <time>2018-09-09T08:50:03Z</time>
      </trkpt>
      <trkpt lat="43.70243" lon="3.1977">
        <ele>429.85</ele>
        <time>2018-09-09T08:50:15Z</time>
      </trkpt>
      <trkpt lat="43.70251" lon="3.19753">
        <ele>437.06</ele>
        <time>2018-09-09T08:50:30Z</time>
      </trkpt>
      <trkpt lat="43.70257" lon="3.19744">
        <ele>438.5</ele>
        <time>2018-09-09T08:50:44Z</time>
      </trkpt>
      <trkpt lat="43.70262" lon="3.19738">
        <ele>439.94</ele>
        <time>2018-09-09T08:50:56Z</time>
      </trkpt>
      <trkpt lat="43.70261" lon="3.19735">
        <ele>438.5</ele>
        <time>2018-09-09T08:51:02Z</time>
      </trkpt>
      <trkpt lat="43.70269" lon="3.19721">
        <ele>441.38</ele>
        <time>2018-09-09T08:51:14Z</time>
      </trkpt>
      <trkpt lat="43.70274" lon="3.19711">
        <ele>441.86</ele>
        <time>2018-09-09T08:51:29Z</time>
      </trkpt>
      <trkpt lat="43.70277" lon="3.19693">
        <ele>436.58</ele>
        <time>2018-09-09T08:51:44Z</time>
      </trkpt>
      <trkpt lat="43.70279" lon="3.19683">
        <ele>435.61</ele>
        <time>2018-09-09T08:51:59Z</time>
      </trkpt>
      <trkpt lat="43.70283" lon="3.19677">
        <ele>438.02</ele>
        <time>2018-09-09T08:52:10Z</time>
      </trkpt>
      <trkpt lat="43.70285" lon="3.19671">
        <ele>438.5</ele>
        <time>2018-09-09T08:52:21Z</time>
      </trkpt>
      <trkpt lat="43.70291" lon="3.19658">
        <ele>435.61</ele>
        <time>2018-09-09T08:52:31Z</time>
      </trkpt>
      <trkpt lat="43.70292" lon="3.19654">
        <ele>435.61</ele>
        <time>2018-09-09T08:52:33Z</time>
      </trkpt>
      <trkpt lat="43.70293" lon="3.19643">
        <ele>438.98</ele>
        <time>2018-09-09T08:52:46Z</time>
      </trkpt>
      <trkpt lat="43.70293" lon="3.19634">
        <ele>439.46</ele>
        <time>2018-09-09T08:52:59Z</time>
      </trkpt>
      <trkpt lat="43.70295" lon="3.19616">
        <ele>442.34</ele>
        <time>2018-09-09T08:53:14Z</time>
      </trkpt>
      <trkpt lat="43.70293" lon="3.19603">
        <ele>444.27</ele>
        <time>2018-09-09T08:53:30Z</time>
      </trkpt>
      <trkpt lat="43.70292" lon="3.1959">
        <ele>443.79</ele>
        <time>2018-09-09T08:53:45Z</time>
      </trkpt>
      <trkpt lat="43.70291" lon="3.19578">
        <ele>445.23</ele>
        <time>2018-09-09T08:54:01Z</time>
      </trkpt>
      <trkpt lat="43.70288" lon="3.19558">
        <ele>445.23</ele>
        <time>2018-09-09T08:54:16Z</time>
      </trkpt>
      <trkpt lat="43.70282" lon="3.19542">
        <ele>445.23</ele>
        <time>2018-09-09T08:54:28Z</time>
      </trkpt>
      <trkpt lat="43.70281" lon="3.1954">
        <ele>444.75</ele>
        <time>2018-09-09T08:54:29Z</time>
      </trkpt>
      <trkpt lat="43.70281" lon="3.19537">
        <ele>447.63</ele>
        <time>2018-09-09T08:54:38Z</time>
      </trkpt>
      <trkpt lat="43.70279" lon="3.19528">
        <ele>450.52</ele>
        <time>2018-09-09T08:54:48Z</time>
      </trkpt>
      <trkpt lat="43.70274" lon="3.19519">
        <ele>454.84</ele>
        <time>2018-09-09T08:55:03Z</time>
      </trkpt>
      <trkpt lat="43.70268" lon="3.19511">
        <ele>458.21</ele>
        <time>2018-09-09T08:55:15Z</time>
      </trkpt>
      <trkpt lat="43.70262" lon="3.19505">
        <ele>460.13</ele>
        <time>2018-09-09T08:55:32Z</time>
      </trkpt>
      <trkpt lat="43.70245" lon="3.19493">
        <ele>463.01</ele>
        <time>2018-09-09T08:55:48Z</time>
      </trkpt>
      <trkpt lat="43.70236" lon="3.19491">
        <ele>465.42</ele>
        <time>2018-09-09T08:56:03Z</time>
      </trkpt>
      <trkpt lat="43.70232" lon="3.19489">
        <ele>465.9</ele>
        <time>2018-09-09T08:56:07Z</time>
      </trkpt>
      <trkpt lat="43.70229" lon="3.19489">
        <ele>467.82</ele>
        <time>2018-09-09T08:56:10Z</time>
      </trkpt>
      <trkpt lat="43.70221" lon="3.19485">
        <ele>469.74</ele>
        <time>2018-09-09T08:56:21Z</time>
      </trkpt>
      <trkpt lat="43.7021" lon="3.19478">
        <ele>471.66</ele>
        <time>2018-09-09T08:56:35Z</time>
      </trkpt>
      <trkpt lat="43.70198" lon="3.19478">
        <ele>476.47</ele>
        <time>2018-09-09T08:56:51Z</time>
      </trkpt>
      <trkpt lat="43.70188" lon="3.19483">
        <ele>481.28</ele>
        <time>2018-09-09T08:57:08Z</time>
      </trkpt>
      <trkpt lat="43.70181" lon="3.19483">
        <ele>482.24</ele>
        <time>2018-09-09T08:57:20Z</time>
      </trkpt>
      <trkpt lat="43.7017" lon="3.19486">
        <ele>481.76</ele>
        <time>2018-09-09T08:57:34Z</time>
      </trkpt>
      <trkpt lat="43.7016" lon="3.19482">
        <ele>479.84</ele>
        <time>2018-09-09T08:57:50Z</time>
      </trkpt>
      <trkpt lat="43.70153" lon="3.19484">
        <ele>479.84</ele>
        <time>2018-09-09T08:58:05Z</time>
      </trkpt>
      <trkpt lat="43.70144" lon="3.19485">
        <ele>478.87</ele>
        <time>2018-09-09T08:58:17Z</time>
      </trkpt>
      <trkpt lat="43.70137" lon="3.19487">
        <ele>477.91</ele>
        <time>2018-09-09T08:58:31Z</time>
      </trkpt>
      <trkpt lat="43.70124" lon="3.19488">
        <ele>479.35</ele>
        <time>2018-09-09T08:58:44Z</time>
      </trkpt>
      <trkpt lat="43.7012" lon="3.19488">
        <ele>479.35</ele>
        <time>2018-09-09T08:58:49Z</time>
      </trkpt>
      <trkpt lat="43.70117" lon="3.19488">
        <ele>478.87</ele>
        <time>2018-09-09T08:58:59Z</time>
      </trkpt>
      <trkpt lat="43.70111" lon="3.19489">
        <ele>478.39</ele>
        <time>2018-09-09T08:59:09Z</time>
      </trkpt>
      <trkpt lat="43.70104" lon="3.19487">
        <ele>479.84</ele>
        <time>2018-09-09T08:59:20Z</time>
      </trkpt>
      <trkpt lat="43.701" lon="3.19483">
        <ele>480.32</ele>
        <time>2018-09-09T08:59:29Z</time>
      </trkpt>
      <trkpt lat="43.70093" lon="3.19485">
        <ele>481.76</ele>
        <time>2018-09-09T08:59:44Z</time>
      </trkpt>
      <trkpt lat="43.70093" lon="3.19486">
        <ele>481.76</ele>
        <time>2018-09-09T09:00:02Z</time>
      </trkpt>
      <trkpt lat="43.70092" lon="3.19487">
        <ele>481.76</ele>
        <time>2018-09-09T09:00:26Z</time>
      </trkpt>
      <trkpt lat="43.70093" lon="3.19488">
        <ele>482.24</ele>
        <time>2018-09-09T09:00:50Z</time>
      </trkpt>
      <trkpt lat="43.70093" lon="3.19489">
        <ele>482.24</ele>
        <time>2018-09-09T09:01:17Z</time>
      </trkpt>
      <trkpt lat="43.70093" lon="3.19488">
        <ele>481.76</ele>
        <time>2018-09-09T09:01:42Z</time>
      </trkpt>
      <trkpt lat="43.70093" lon="3.19488">
        <ele>481.76</ele>
        <time>2018-09-09T09:02:10Z</time>
      </trkpt>
      <trkpt lat="43.70092" lon="3.19488">
        <ele>481.76</ele>
        <time>2018-09-09T09:02:33Z</time>
      </trkpt>
      <trkpt lat="43.70092" lon="3.19485">
        <ele>483.68</ele>
        <time>2018-09-09T09:03:00Z</time>
      </trkpt>
      <trkpt lat="43.70092" lon="3.19487">
        <ele>484.16</ele>
        <time>2018-09-09T09:03:18Z</time>
      </trkpt>
      <trkpt lat="43.70092" lon="3.19486">
        <ele>484.16</ele>
        <time>2018-09-09T09:03:39Z</time>
      </trkpt>
      <trkpt lat="43.70086" lon="3.19479">
        <ele>485.6</ele>
        <time>2018-09-09T09:03:52Z</time>
      </trkpt>
      <trkpt lat="43.7008" lon="3.19472">
        <ele>487.53</ele>
        <time>2018-09-09T09:04:07Z</time>
      </trkpt>
      <trkpt lat="43.70078" lon="3.19465">
        <ele>486.08</ele>
        <time>2018-09-09T09:04:20Z</time>
      </trkpt>
      <trkpt lat="43.70076" lon="3.19459">
        <ele>484.64</ele>
        <time>2018-09-09T09:04:33Z</time>
      </trkpt>
      <trkpt lat="43.70075" lon="3.19452">
        <ele>484.64</ele>
        <time>2018-09-09T09:04:47Z</time>
      </trkpt>
      <trkpt lat="43.70074" lon="3.19433">
        <ele>485.12</ele>
        <time>2018-09-09T09:05:01Z</time>
      </trkpt>
      <trkpt lat="43.70074" lon="3.19418">
        <ele>485.12</ele>
        <time>2018-09-09T09:05:17Z</time>
      </trkpt>
      <trkpt lat="43.70074" lon="3.19401">
        <ele>483.68</ele>
        <time>2018-09-09T09:05:33Z</time>
      </trkpt>
      <trkpt lat="43.70075" lon="3.19394">
        <ele>482.72</ele>
        <time>2018-09-09T09:05:40Z</time>
      </trkpt>
      <trkpt lat="43.70075" lon="3.1937">
        <ele>478.87</ele>
        <time>2018-09-09T09:05:57Z</time>
      </trkpt>
      <trkpt lat="43.70075" lon="3.19352">
        <ele>476.95</ele>
        <time>2018-09-09T09:06:11Z</time>
      </trkpt>
      <trkpt lat="43.70075" lon="3.19341">
        <ele>476.47</ele>
        <time>2018-09-09T09:06:28Z</time>
      </trkpt>
      <trkpt lat="43.70076" lon="3.19343">
        <ele>475.03</ele>
        <time>2018-09-09T09:06:40Z</time>
      </trkpt>
      <trkpt lat="43.70077" lon="3.19344">
        <ele>474.55</ele>
        <time>2018-09-09T09:06:52Z</time>
      </trkpt>
      <trkpt lat="43.70077" lon="3.19344">
        <ele>474.55</ele>
        <time>2018-09-09T09:06:55Z</time>
      </trkpt>
      <trkpt lat="43.7007" lon="3.19321">
        <ele>474.07</ele>
        <time>2018-09-09T09:07:08Z</time>
      </trkpt>
      <trkpt lat="43.70064" lon="3.19304">
        <ele>474.07</ele>
        <time>2018-09-09T09:07:22Z</time>
      </trkpt>
      <trkpt lat="43.70064" lon="3.19301">
        <ele>474.55</ele>
        <time>2018-09-09T09:07:24Z</time>
      </trkpt>
      <trkpt lat="43.70061" lon="3.19295">
        <ele>474.07</ele>
        <time>2018-09-09T09:07:36Z</time>
      </trkpt>
      <trkpt lat="43.7006" lon="3.19291">
        <ele>473.59</ele>
        <time>2018-09-09T09:07:39Z</time>
      </trkpt>
      <trkpt lat="43.70058" lon="3.19285">
        <ele>473.59</ele>
        <time>2018-09-09T09:07:44Z</time>
      </trkpt>
      <trkpt lat="43.7005" lon="3.19271">
        <ele>472.14</ele>
        <time>2018-09-09T09:07:58Z</time>
      </trkpt>
      <trkpt lat="43.70041" lon="3.1926">
        <ele>470.22</ele>
        <time>2018-09-09T09:08:12Z</time>
      </trkpt>
      <trkpt lat="43.70031" lon="3.19247">
        <ele>467.34</ele>
        <time>2018-09-09T09:08:28Z</time>
      </trkpt>
      <trkpt lat="43.70027" lon="3.19244">
        <ele>465.9</ele>
        <time>2018-09-09T09:08:34Z</time>
      </trkpt>
      <trkpt lat="43.70013" lon="3.1923">
        <ele>464.45</ele>
        <time>2018-09-09T09:08:51Z</time>
      </trkpt>
      <trkpt lat="43.70008" lon="3.19224">
        <ele>463.01</ele>
        <time>2018-09-09T09:09:05Z</time>
      </trkpt>
      <trkpt lat="43.70007" lon="3.19222">
        <ele>462.53</ele>
        <time>2018-09-09T09:09:25Z</time>
      </trkpt>
      <trkpt lat="43.69998" lon="3.19216">
        <ele>460.13</ele>
        <time>2018-09-09T09:09:40Z</time>
      </trkpt>
      <trkpt lat="43.69992" lon="3.19209">
        <ele>460.13</ele>
        <time>2018-09-09T09:09:53Z</time>
      </trkpt>
      <trkpt lat="43.69984" lon="3.19202">
        <ele>460.13</ele>
        <time>2018-09-09T09:10:08Z</time>
      </trkpt>
      <trkpt lat="43.69973" lon="3.1919">
        <ele>457.24</ele>
        <time>2018-09-09T09:10:25Z</time>
      </trkpt>
      <trkpt lat="43.69964" lon="3.19182">
        <ele>454.36</ele>
        <time>2018-09-09T09:10:40Z</time>
      </trkpt>
      <trkpt lat="43.69954" lon="3.19171">
        <ele>453.4</ele>
        <time>2018-09-09T09:10:57Z</time>
      </trkpt>
      <trkpt lat="43.69945" lon="3.19164">
        <ele>452.92</ele>
        <time>2018-09-09T09:11:12Z</time>
      </trkpt>
      <trkpt lat="43.69936" lon="3.19155">
        <ele>452.44</ele>
        <time>2018-09-09T09:11:27Z</time>
      </trkpt>
      <trkpt lat="43.69925" lon="3.19146">
        <ele>451</ele>
        <time>2018-09-09T09:11:42Z</time>
      </trkpt>
      <trkpt lat="43.69917" lon="3.19138">
        <ele>451</ele>
        <time>2018-09-09T09:11:55Z</time>
      </trkpt>
      <trkpt lat="43.69909" lon="3.19131">
        <ele>450.03</ele>
        <time>2018-09-09T09:12:08Z</time>
      </trkpt>
      <trkpt lat="43.69902" lon="3.19124">
        <ele>450.03</ele>
        <time>2018-09-09T09:12:20Z</time>
      </trkpt>
      <trkpt lat="43.69899" lon="3.19121">
        <ele>449.55</ele>
        <time>2018-09-09T09:12:24Z</time>
      </trkpt>
      <trkpt lat="43.69888" lon="3.1911">
        <ele>448.11</ele>
        <time>2018-09-09T09:12:42Z</time>
      </trkpt>
      <trkpt lat="43.69878" lon="3.19102">
        <ele>445.23</ele>
        <time>2018-09-09T09:12:58Z</time>
      </trkpt>
      <trkpt lat="43.69868" lon="3.19095">
        <ele>442.82</ele>
        <time>2018-09-09T09:13:14Z</time>
      </trkpt>
      <trkpt lat="43.69867" lon="3.19094">
        <ele>442.34</ele>
        <time>2018-09-09T09:13:15Z</time>
      </trkpt>
      <trkpt lat="43.69855" lon="3.19087">
        <ele>439.46</ele>
        <time>2018-09-09T09:13:31Z</time>
      </trkpt>
      <trkpt lat="43.69845" lon="3.19082">
        <ele>439.46</ele>
        <time>2018-09-09T09:13:45Z</time>
      </trkpt>
      <trkpt lat="43.69839" lon="3.19079">
        <ele>438.98</ele>
        <time>2018-09-09T09:13:56Z</time>
      </trkpt>
      <trkpt lat="43.69834" lon="3.19077">
        <ele>438.02</ele>
        <time>2018-09-09T09:14:03Z</time>
      </trkpt>
      <trkpt lat="43.69823" lon="3.19075">
        <ele>438.02</ele>
        <time>2018-09-09T09:14:17Z</time>
      </trkpt>
      <trkpt lat="43.69812" lon="3.19074">
        <ele>436.58</ele>
        <time>2018-09-09T09:14:30Z</time>
      </trkpt>
      <trkpt lat="43.69801" lon="3.19073">
        <ele>434.65</ele>
        <time>2018-09-09T09:14:43Z</time>
      </trkpt>
      <trkpt lat="43.69785" lon="3.19074">
        <ele>432.73</ele>
        <time>2018-09-09T09:14:58Z</time>
      </trkpt>
      <trkpt lat="43.69784" lon="3.19074">
        <ele>432.25</ele>
        <time>2018-09-09T09:15:00Z</time>
      </trkpt>
      <trkpt lat="43.69773" lon="3.19072">
        <ele>431.77</ele>
        <time>2018-09-09T09:15:12Z</time>
      </trkpt>
      <trkpt lat="43.69763" lon="3.19072">
        <ele>430.33</ele>
        <time>2018-09-09T09:15:22Z</time>
      </trkpt>
      <trkpt lat="43.69756" lon="3.19072">
        <ele>427.92</ele>
        <time>2018-09-09T09:15:31Z</time>
      </trkpt>
      <trkpt lat="43.69745" lon="3.19073">
        <ele>424.08</ele>
        <time>2018-09-09T09:15:44Z</time>
      </trkpt>
      <trkpt lat="43.6974" lon="3.19075">
        <ele>425.52</ele>
        <time>2018-09-09T09:15:49Z</time>
      </trkpt>
      <trkpt lat="43.69726" lon="3.19078">
        <ele>425.04</ele>
        <time>2018-09-09T09:16:06Z</time>
      </trkpt>
      <trkpt lat="43.69714" lon="3.19077">
        <ele>422.16</ele>
        <time>2018-09-09T09:16:20Z</time>
      </trkpt>
      <trkpt lat="43.69707" lon="3.19075">
        <ele>420.71</ele>
        <time>2018-09-09T09:16:27Z</time>
      </trkpt>
      <trkpt lat="43.69695" lon="3.19071">
        <ele>418.79</ele>
        <time>2018-09-09T09:16:41Z</time>
      </trkpt>
      <trkpt lat="43.69685" lon="3.19068">
        <ele>417.83</ele>
        <time>2018-09-09T09:16:53Z</time>
      </trkpt>
      <trkpt lat="43.69674" lon="3.19068">
        <ele>416.39</ele>
        <time>2018-09-09T09:17:05Z</time>
      </trkpt>
      <trkpt lat="43.6966" lon="3.19059">
        <ele>414.95</ele>
        <time>2018-09-09T09:17:23Z</time>
      </trkpt>
      <trkpt lat="43.69649" lon="3.19046">
        <ele>414.47</ele>
        <time>2018-09-09T09:17:40Z</time>
      </trkpt>
      <trkpt lat="43.69644" lon="3.19041">
        <ele>413.98</ele>
        <time>2018-09-09T09:17:47Z</time>
      </trkpt>
      <trkpt lat="43.69631" lon="3.19025">
        <ele>414.95</ele>
        <time>2018-09-09T09:18:07Z</time>
      </trkpt>
      <trkpt lat="43.69621" lon="3.19006">
        <ele>414.95</ele>
        <time>2018-09-09T09:18:27Z</time>
      </trkpt>
      <trkpt lat="43.69612" lon="3.18988">
        <ele>415.91</ele>
        <time>2018-09-09T09:18:42Z</time>
      </trkpt>
      <trkpt lat="43.6961" lon="3.18983">
        <ele>415.91</ele>
        <time>2018-09-09T09:18:47Z</time>
      </trkpt>
      <trkpt lat="43.69607" lon="3.18976">
        <ele>416.39</ele>
        <time>2018-09-09T09:18:51Z</time>
      </trkpt>
      <trkpt lat="43.69599" lon="3.18961">
        <ele>416.39</ele>
        <time>2018-09-09T09:19:06Z</time>
      </trkpt>
      <trkpt lat="43.69597" lon="3.18956">
        <ele>414.95</ele>
        <time>2018-09-09T09:19:21Z</time>
      </trkpt>
      <trkpt lat="43.69595" lon="3.18955">
        <ele>416.87</ele>
        <time>2018-09-09T09:19:40Z</time>
      </trkpt>
      <trkpt lat="43.69593" lon="3.18952">
        <ele>417.83</ele>
        <time>2018-09-09T09:19:53Z</time>
      </trkpt>
      <trkpt lat="43.6959" lon="3.18947">
        <ele>418.79</ele>
        <time>2018-09-09T09:20:08Z</time>
      </trkpt>
      <trkpt lat="43.69585" lon="3.18948">
        <ele>418.79</ele>
        <time>2018-09-09T09:20:20Z</time>
      </trkpt>
      <trkpt lat="43.69583" lon="3.18949">
        <ele>418.79</ele>
        <time>2018-09-09T09:20:32Z</time>
      </trkpt>
      <trkpt lat="43.69585" lon="3.1894">
        <ele>418.79</ele>
        <time>2018-09-09T09:20:46Z</time>
      </trkpt>
      <trkpt lat="43.69584" lon="3.18929">
        <ele>416.87</ele>
        <time>2018-09-09T09:20:57Z</time>
      </trkpt>
      <trkpt lat="43.69581" lon="3.18918">
        <ele>414.95</ele>
        <time>2018-09-09T09:21:10Z</time>
      </trkpt>
      <trkpt lat="43.69577" lon="3.18913">
        <ele>415.43</ele>
        <time>2018-09-09T09:21:22Z</time>
      </trkpt>
      <trkpt lat="43.69577" lon="3.1891">
        <ele>416.39</ele>
        <time>2018-09-09T09:21:29Z</time>
      </trkpt>
      <trkpt lat="43.69578" lon="3.18907">
        <ele>416.87</ele>
        <time>2018-09-09T09:21:31Z</time>
      </trkpt>
      <trkpt lat="43.69579" lon="3.18901">
        <ele>416.87</ele>
        <time>2018-09-09T09:21:37Z</time>
      </trkpt>
      <trkpt lat="43.69573" lon="3.18894">
        <ele>416.39</ele>
        <time>2018-09-09T09:21:49Z</time>
      </trkpt>
      <trkpt lat="43.69572" lon="3.18892">
        <ele>416.87</ele>
        <time>2018-09-09T09:22:01Z</time>
      </trkpt>
      <trkpt lat="43.69572" lon="3.18891">
        <ele>416.39</ele>
        <time>2018-09-09T09:22:14Z</time>
      </trkpt>
      <trkpt lat="43.69575" lon="3.18891">
        <ele>416.87</ele>
        <time>2018-09-09T09:22:25Z</time>
      </trkpt>
      <trkpt lat="43.69571" lon="3.18886">
        <ele>416.87</ele>
        <time>2018-09-09T09:22:35Z</time>
      </trkpt>
      <trkpt lat="43.6957" lon="3.18886">
        <ele>416.87</ele>
        <time>2018-09-09T09:22:46Z</time>
      </trkpt>
      <trkpt lat="43.69571" lon="3.18884">
        <ele>416.39</ele>
        <time>2018-09-09T09:22:48Z</time>
      </trkpt>
      <trkpt lat="43.69575" lon="3.18875">
        <ele>413.5</ele>
        <time>2018-09-09T09:23:01Z</time>
      </trkpt>
      <trkpt lat="43.69573" lon="3.18869">
        <ele>413.98</ele>
        <time>2018-09-09T09:23:16Z</time>
      </trkpt>
      <trkpt lat="43.69571" lon="3.18851">
        <ele>414.47</ele>
        <time>2018-09-09T09:23:32Z</time>
      </trkpt>
      <trkpt lat="43.69571" lon="3.18833">
        <ele>413.98</ele>
        <time>2018-09-09T09:23:48Z</time>
      </trkpt>
      <trkpt lat="43.69572" lon="3.18818">
        <ele>415.91</ele>
        <time>2018-09-09T09:24:03Z</time>
      </trkpt>
      <trkpt lat="43.69573" lon="3.18807">
        <ele>414.95</ele>
        <time>2018-09-09T09:24:17Z</time>
      </trkpt>
      <trkpt lat="43.69573" lon="3.18796">
        <ele>415.91</ele>
        <time>2018-09-09T09:24:30Z</time>
      </trkpt>
      <trkpt lat="43.69571" lon="3.18778">
        <ele>416.87</ele>
        <time>2018-09-09T09:24:47Z</time>
      </trkpt>
      <trkpt lat="43.69571" lon="3.18777">
        <ele>417.35</ele>
        <time>2018-09-09T09:25:03Z</time>
      </trkpt>
      <trkpt lat="43.6957" lon="3.18767">
        <ele>418.31</ele>
        <time>2018-09-09T09:25:18Z</time>
      </trkpt>
      <trkpt lat="43.69567" lon="3.18755">
        <ele>418.79</ele>
        <time>2018-09-09T09:25:32Z</time>
      </trkpt>
      <trkpt lat="43.69564" lon="3.1875">
        <ele>416.87</ele>
        <time>2018-09-09T09:25:46Z</time>
      </trkpt>
      <trkpt lat="43.69561" lon="3.18749">
        <ele>415.43</ele>
        <time>2018-09-09T09:26:00Z</time>
      </trkpt>
      <trkpt lat="43.69558" lon="3.18747">
        <ele>415.91</ele>
        <time>2018-09-09T09:26:16Z</time>
      </trkpt>
      <trkpt lat="43.69559" lon="3.18747">
        <ele>415.91</ele>
        <time>2018-09-09T09:26:38Z</time>
      </trkpt>
      <trkpt lat="43.69559" lon="3.18746">
        <ele>416.87</ele>
        <time>2018-09-09T09:27:00Z</time>
      </trkpt>
      <trkpt lat="43.69559" lon="3.18746">
        <ele>416.39</ele>
        <time>2018-09-09T09:27:16Z</time>
      </trkpt>
      <trkpt lat="43.69554" lon="3.18738">
        <ele>415.91</ele>
        <time>2018-09-09T09:27:30Z</time>
      </trkpt>
      <trkpt lat="43.69551" lon="3.18736">
        <ele>414.95</ele>
        <time>2018-09-09T09:27:45Z</time>
      </trkpt>
      <trkpt lat="43.69544" lon="3.18727">
        <ele>415.91</ele>
        <time>2018-09-09T09:27:56Z</time>
      </trkpt>
      <trkpt lat="43.6954" lon="3.18727">
        <ele>415.91</ele>
        <time>2018-09-09T09:28:13Z</time>
      </trkpt>
      <trkpt lat="43.69535" lon="3.18725">
        <ele>415.91</ele>
        <time>2018-09-09T09:28:19Z</time>
      </trkpt>
      <trkpt lat="43.69531" lon="3.18723">
        <ele>416.39</ele>
        <time>2018-09-09T09:28:23Z</time>
      </trkpt>
      <trkpt lat="43.69521" lon="3.18719">
        <ele>417.83</ele>
        <time>2018-09-09T09:28:38Z</time>
      </trkpt>
      <trkpt lat="43.69513" lon="3.18714">
        <ele>417.83</ele>
        <time>2018-09-09T09:28:51Z</time>
      </trkpt>
      <trkpt lat="43.6951" lon="3.18711">
        <ele>418.31</ele>
        <time>2018-09-09T09:29:09Z</time>
      </trkpt>
      <trkpt lat="43.69508" lon="3.18711">
        <ele>418.79</ele>
        <time>2018-09-09T09:29:35Z</time>
      </trkpt>
      <trkpt lat="43.695" lon="3.18705">
        <ele>419.27</ele>
        <time>2018-09-09T09:29:51Z</time>
      </trkpt>
      <trkpt lat="43.69488" lon="3.18693">
        <ele>421.68</ele>
        <time>2018-09-09T09:30:04Z</time>
      </trkpt>
      <trkpt lat="43.69481" lon="3.18687">
        <ele>422.64</ele>
        <time>2018-09-09T09:30:20Z</time>
      </trkpt>
      <trkpt lat="43.69463" lon="3.18675">
        <ele>421.68</ele>
        <time>2018-09-09T09:30:35Z</time>
      </trkpt>
      <trkpt lat="43.6945" lon="3.18668">
        <ele>421.19</ele>
        <time>2018-09-09T09:30:49Z</time>
      </trkpt>
      <trkpt lat="43.69443" lon="3.18664">
        <ele>418.31</ele>
        <time>2018-09-09T09:31:02Z</time>
      </trkpt>
      <trkpt lat="43.69439" lon="3.18664">
        <ele>416.87</ele>
        <time>2018-09-09T09:31:19Z</time>
      </trkpt>
      <trkpt lat="43.69436" lon="3.18658">
        <ele>418.31</ele>
        <time>2018-09-09T09:31:30Z</time>
      </trkpt>
      <trkpt lat="43.69431" lon="3.18655">
        <ele>420.23</ele>
        <time>2018-09-09T09:31:42Z</time>
      </trkpt>
      <trkpt lat="43.69427" lon="3.18652">
        <ele>421.68</ele>
        <time>2018-09-09T09:31:56Z</time>
      </trkpt>
      <trkpt lat="43.69422" lon="3.18648">
        <ele>421.19</ele>
        <time>2018-09-09T09:32:13Z</time>
      </trkpt>
      <trkpt lat="43.69417" lon="3.18644">
        <ele>420.71</ele>
        <time>2018-09-09T09:32:25Z</time>
      </trkpt>
      <trkpt lat="43.69408" lon="3.18641">
        <ele>419.27</ele>
        <time>2018-09-09T09:32:37Z</time>
      </trkpt>
      <trkpt lat="43.69396" lon="3.18631">
        <ele>419.75</ele>
        <time>2018-09-09T09:32:52Z</time>
      </trkpt>
      <trkpt lat="43.69394" lon="3.18629">
        <ele>419.75</ele>
        <time>2018-09-09T09:32:55Z</time>
      </trkpt>
      <trkpt lat="43.69384" lon="3.18625">
        <ele>419.75</ele>
        <time>2018-09-09T09:33:08Z</time>
      </trkpt>
      <trkpt lat="43.69376" lon="3.18617">
        <ele>420.23</ele>
        <time>2018-09-09T09:33:22Z</time>
      </trkpt>
      <trkpt lat="43.69372" lon="3.18614">
        <ele>422.16</ele>
        <time>2018-09-09T09:33:35Z</time>
      </trkpt>
      <trkpt lat="43.6936" lon="3.1861">
        <ele>424.08</ele>
        <time>2018-09-09T09:33:48Z</time>
      </trkpt>
      <trkpt lat="43.69349" lon="3.18611">
        <ele>426</ele>
        <time>2018-09-09T09:34:02Z</time>
      </trkpt>
      <trkpt lat="43.69346" lon="3.18607">
        <ele>425.04</ele>
        <time>2018-09-09T09:34:18Z</time>
      </trkpt>
      <trkpt lat="43.69349" lon="3.18618">
        <ele>423.6</ele>
        <time>2018-09-09T09:34:32Z</time>
      </trkpt>
      <trkpt lat="43.69346" lon="3.18633">
        <ele>423.6</ele>
        <time>2018-09-09T09:34:44Z</time>
      </trkpt>
      <trkpt lat="43.69342" lon="3.18646">
        <ele>424.08</ele>
        <time>2018-09-09T09:35:00Z</time>
      </trkpt>
      <trkpt lat="43.69338" lon="3.18653">
        <ele>425.52</ele>
        <time>2018-09-09T09:35:12Z</time>
      </trkpt>
      <trkpt lat="43.6933" lon="3.18662">
        <ele>426.96</ele>
        <time>2018-09-09T09:35:27Z</time>
      </trkpt>
      <trkpt lat="43.69319" lon="3.18663">
        <ele>427.92</ele>
        <time>2018-09-09T09:35:42Z</time>
      </trkpt>
      <trkpt lat="43.69306" lon="3.18668">
        <ele>428.89</ele>
        <time>2018-09-09T09:35:58Z</time>
      </trkpt>
      <trkpt lat="43.69291" lon="3.18675">
        <ele>428.89</ele>
        <time>2018-09-09T09:36:16Z</time>
      </trkpt>
      <trkpt lat="43.69279" lon="3.18675">
        <ele>426.96</ele>
        <time>2018-09-09T09:36:31Z</time>
      </trkpt>
      <trkpt lat="43.69269" lon="3.18676">
        <ele>426.48</ele>
        <time>2018-09-09T09:36:43Z</time>
      </trkpt>
      <trkpt lat="43.69268" lon="3.18676">
        <ele>426.96</ele>
        <time>2018-09-09T09:36:46Z</time>
      </trkpt>
      <trkpt lat="43.69261" lon="3.18677">
        <ele>425.52</ele>
        <time>2018-09-09T09:37:00Z</time>
      </trkpt>
      <trkpt lat="43.69253" lon="3.18683">
        <ele>424.56</ele>
        <time>2018-09-09T09:37:12Z</time>
      </trkpt>
      <trkpt lat="43.69254" lon="3.18684">
        <ele>426</ele>
        <time>2018-09-09T09:37:24Z</time>
      </trkpt>
      <trkpt lat="43.69252" lon="3.18677">
        <ele>426</ele>
        <time>2018-09-09T09:37:36Z</time>
      </trkpt>
      <trkpt lat="43.69252" lon="3.18676">
        <ele>426.48</ele>
        <time>2018-09-09T09:37:42Z</time>
      </trkpt>
      <trkpt lat="43.69251" lon="3.18676">
        <ele>427.44</ele>
        <time>2018-09-09T09:37:44Z</time>
      </trkpt>
      <trkpt lat="43.69247" lon="3.18674">
        <ele>428.4</ele>
        <time>2018-09-09T09:37:47Z</time>
      </trkpt>
      <trkpt lat="43.6923" lon="3.18667">
        <ele>429.85</ele>
        <time>2018-09-09T09:38:02Z</time>
      </trkpt>
      <trkpt lat="43.69225" lon="3.18667">
        <ele>429.85</ele>
        <time>2018-09-09T09:38:06Z</time>
      </trkpt>
      <trkpt lat="43.69223" lon="3.18665">
        <ele>428.89</ele>
        <time>2018-09-09T09:38:08Z</time>
      </trkpt>
      <trkpt lat="43.6922" lon="3.18666">
        <ele>428.89</ele>
        <time>2018-09-09T09:38:12Z</time>
      </trkpt>
      <trkpt lat="43.69216" lon="3.18666">
        <ele>429.37</ele>
        <time>2018-09-09T09:38:15Z</time>
      </trkpt>
      <trkpt lat="43.69202" lon="3.18668">
        <ele>428.4</ele>
        <time>2018-09-09T09:38:29Z</time>
      </trkpt>
      <trkpt lat="43.6919" lon="3.18668">
        <ele>428.4</ele>
        <time>2018-09-09T09:38:42Z</time>
      </trkpt>
      <trkpt lat="43.69189" lon="3.18666">
        <ele>428.89</ele>
        <time>2018-09-09T09:38:53Z</time>
      </trkpt>
      <trkpt lat="43.69189" lon="3.18666">
        <ele>429.37</ele>
        <time>2018-09-09T09:38:55Z</time>
      </trkpt>
      <trkpt lat="43.69184" lon="3.18669">
        <ele>430.81</ele>
        <time>2018-09-09T09:38:59Z</time>
      </trkpt>
      <trkpt lat="43.69179" lon="3.1867">
        <ele>432.25</ele>
        <time>2018-09-09T09:39:04Z</time>
      </trkpt>
      <trkpt lat="43.69165" lon="3.18673">
        <ele>433.21</ele>
        <time>2018-09-09T09:39:15Z</time>
      </trkpt>
      <trkpt lat="43.69156" lon="3.18676">
        <ele>433.21</ele>
        <time>2018-09-09T09:39:22Z</time>
      </trkpt>
      <trkpt lat="43.69144" lon="3.18673">
        <ele>431.77</ele>
        <time>2018-09-09T09:39:31Z</time>
      </trkpt>
      <trkpt lat="43.69141" lon="3.18674">
        <ele>431.29</ele>
        <time>2018-09-09T09:39:33Z</time>
      </trkpt>
      <trkpt lat="43.69118" lon="3.18672">
        <ele>428.4</ele>
        <time>2018-09-09T09:39:51Z</time>
      </trkpt>
      <trkpt lat="43.69106" lon="3.18677">
        <ele>430.81</ele>
        <time>2018-09-09T09:40:01Z</time>
      </trkpt>
      <trkpt lat="43.69096" lon="3.18679">
        <ele>431.77</ele>
        <time>2018-09-09T09:40:09Z</time>
      </trkpt>
      <trkpt lat="43.69091" lon="3.18685">
        <ele>433.21</ele>
        <time>2018-09-09T09:40:14Z</time>
      </trkpt>
      <trkpt lat="43.69087" lon="3.18689">
        <ele>433.21</ele>
        <time>2018-09-09T09:40:18Z</time>
      </trkpt>
      <trkpt lat="43.69081" lon="3.18691">
        <ele>433.69</ele>
        <time>2018-09-09T09:40:24Z</time>
      </trkpt>
      <trkpt lat="43.69077" lon="3.18695">
        <ele>433.21</ele>
        <time>2018-09-09T09:40:28Z</time>
      </trkpt>
      <trkpt lat="43.69066" lon="3.18699">
        <ele>433.21</ele>
        <time>2018-09-09T09:40:39Z</time>
      </trkpt>
      <trkpt lat="43.69064" lon="3.18702">
        <ele>433.21</ele>
        <time>2018-09-09T09:40:42Z</time>
      </trkpt>
      <trkpt lat="43.69058" lon="3.18706">
        <ele>434.65</ele>
        <time>2018-09-09T09:40:48Z</time>
      </trkpt>
      <trkpt lat="43.69053" lon="3.18709">
        <ele>435.13</ele>
        <time>2018-09-09T09:40:53Z</time>
      </trkpt>
      <trkpt lat="43.69048" lon="3.18712">
        <ele>436.1</ele>
        <time>2018-09-09T09:40:58Z</time>
      </trkpt>
      <trkpt lat="43.69046" lon="3.18715">
        <ele>436.58</ele>
        <time>2018-09-09T09:41:01Z</time>
      </trkpt>
      <trkpt lat="43.69035" lon="3.18724">
        <ele>437.54</ele>
        <time>2018-09-09T09:41:14Z</time>
      </trkpt>
      <trkpt lat="43.69034" lon="3.18724">
        <ele>438.02</ele>
        <time>2018-09-09T09:41:15Z</time>
      </trkpt>
      <trkpt lat="43.6903" lon="3.18731">
        <ele>438.98</ele>
        <time>2018-09-09T09:41:21Z</time>
      </trkpt>
      <trkpt lat="43.69028" lon="3.18735">
        <ele>439.46</ele>
        <time>2018-09-09T09:41:25Z</time>
      </trkpt>
      <trkpt lat="43.69019" lon="3.1875">
        <ele>441.38</ele>
        <time>2018-09-09T09:41:40Z</time>
      </trkpt>
      <trkpt lat="43.69017" lon="3.18753">
        <ele>441.86</ele>
        <time>2018-09-09T09:41:43Z</time>
      </trkpt>
      <trkpt lat="43.69006" lon="3.18767">
        <ele>441.86</ele>
        <time>2018-09-09T09:41:58Z</time>
      </trkpt>
      <trkpt lat="43.68994" lon="3.18777">
        <ele>441.86</ele>
        <time>2018-09-09T09:42:14Z</time>
      </trkpt>
      <trkpt lat="43.6898" lon="3.18789">
        <ele>440.9</ele>
        <time>2018-09-09T09:42:29Z</time>
      </trkpt>
      <trkpt lat="43.68971" lon="3.18792">
        <ele>440.42</ele>
        <time>2018-09-09T09:42:40Z</time>
      </trkpt>
      <trkpt lat="43.68963" lon="3.18794">
        <ele>438.98</ele>
        <time>2018-09-09T09:42:52Z</time>
      </trkpt>
      <trkpt lat="43.68953" lon="3.18795">
        <ele>440.42</ele>
        <time>2018-09-09T09:43:04Z</time>
      </trkpt>
      <trkpt lat="43.68949" lon="3.18795">
        <ele>440.9</ele>
        <time>2018-09-09T09:43:22Z</time>
      </trkpt>
      <trkpt lat="43.6895" lon="3.18795">
        <ele>440.42</ele>
        <time>2018-09-09T09:43:42Z</time>
      </trkpt>
      <trkpt lat="43.68944" lon="3.188">
        <ele>439.46</ele>
        <time>2018-09-09T09:44:07Z</time>
      </trkpt>
      <trkpt lat="43.68933" lon="3.18809">
        <ele>438.02</ele>
        <time>2018-09-09T09:44:23Z</time>
      </trkpt>
      <trkpt lat="43.68922" lon="3.18823">
        <ele>438.02</ele>
        <time>2018-09-09T09:44:37Z</time>
      </trkpt>
      <trkpt lat="43.68912" lon="3.18834">
        <ele>438.02</ele>
        <time>2018-09-09T09:44:51Z</time>
      </trkpt>
      <trkpt lat="43.68905" lon="3.18842">
        <ele>439.46</ele>
        <time>2018-09-09T09:45:03Z</time>
      </trkpt>
      <trkpt lat="43.68899" lon="3.18855">
        <ele>438.5</ele>
        <time>2018-09-09T09:45:16Z</time>
      </trkpt>
      <trkpt lat="43.68899" lon="3.1887">
        <ele>439.94</ele>
        <time>2018-09-09T09:45:31Z</time>
      </trkpt>
      <trkpt lat="43.68897" lon="3.18886">
        <ele>440.42</ele>
        <time>2018-09-09T09:45:47Z</time>
      </trkpt>
      <trkpt lat="43.68892" lon="3.18896">
        <ele>440.9</ele>
        <time>2018-09-09T09:46:00Z</time>
      </trkpt>
      <trkpt lat="43.68889" lon="3.18917">
        <ele>439.94</ele>
        <time>2018-09-09T09:46:15Z</time>
      </trkpt>
      <trkpt lat="43.68887" lon="3.18928">
        <ele>440.9</ele>
        <time>2018-09-09T09:46:23Z</time>
      </trkpt>
      <trkpt lat="43.68885" lon="3.18944">
        <ele>436.58</ele>
        <time>2018-09-09T09:46:38Z</time>
      </trkpt>
      <trkpt lat="43.68884" lon="3.1896">
        <ele>433.69</ele>
        <time>2018-09-09T09:46:52Z</time>
      </trkpt>
      <trkpt lat="43.68883" lon="3.1898">
        <ele>432.25</ele>
        <time>2018-09-09T09:47:07Z</time>
      </trkpt>
      <trkpt lat="43.68885" lon="3.19002">
        <ele>430.33</ele>
        <time>2018-09-09T09:47:21Z</time>
      </trkpt>
      <trkpt lat="43.68886" lon="3.19022">
        <ele>430.33</ele>
        <time>2018-09-09T09:47:36Z</time>
      </trkpt>
      <trkpt lat="43.68883" lon="3.19042">
        <ele>428.89</ele>
        <time>2018-09-09T09:47:51Z</time>
      </trkpt>
      <trkpt lat="43.68873" lon="3.19047">
        <ele>424.56</ele>
        <time>2018-09-09T09:48:03Z</time>
      </trkpt>
      <trkpt lat="43.68862" lon="3.1905">
        <ele>421.68</ele>
        <time>2018-09-09T09:48:16Z</time>
      </trkpt>
      <trkpt lat="43.68861" lon="3.19051">
        <ele>421.19</ele>
        <time>2018-09-09T09:48:17Z</time>
      </trkpt>
      <trkpt lat="43.6885" lon="3.19048">
        <ele>418.79</ele>
        <time>2018-09-09T09:48:28Z</time>
      </trkpt>
      <trkpt lat="43.68842" lon="3.19048">
        <ele>415.43</ele>
        <time>2018-09-09T09:48:41Z</time>
      </trkpt>
      <trkpt lat="43.68842" lon="3.1905">
        <ele>414.95</ele>
        <time>2018-09-09T09:48:59Z</time>
      </trkpt>
      <trkpt lat="43.68833" lon="3.1905">
        <ele>414.95</ele>
        <time>2018-09-09T09:49:14Z</time>
      </trkpt>
      <trkpt lat="43.68826" lon="3.19049">
        <ele>415.43</ele>
        <time>2018-09-09T09:49:19Z</time>
      </trkpt>
      <trkpt lat="43.68819" lon="3.19045">
        <ele>416.39</ele>
        <time>2018-09-09T09:49:24Z</time>
      </trkpt>
      <trkpt lat="43.68814" lon="3.19045">
        <ele>416.39</ele>
        <time>2018-09-09T09:49:37Z</time>
      </trkpt>
      <trkpt lat="43.68816" lon="3.19044">
        <ele>416.39</ele>
        <time>2018-09-09T09:49:51Z</time>
      </trkpt>
      <trkpt lat="43.68826" lon="3.19044">
        <ele>420.23</ele>
        <time>2018-09-09T09:49:58Z</time>
      </trkpt>
      <trkpt lat="43.68812" lon="3.19047">
        <ele>419.75</ele>
        <time>2018-09-09T09:50:11Z</time>
      </trkpt>
      <trkpt lat="43.68807" lon="3.19046">
        <ele>418.31</ele>
        <time>2018-09-09T09:50:16Z</time>
      </trkpt>
      <trkpt lat="43.68799" lon="3.19037">
        <ele>417.35</ele>
        <time>2018-09-09T09:50:29Z</time>
      </trkpt>
      <trkpt lat="43.68793" lon="3.19023">
        <ele>417.83</ele>
        <time>2018-09-09T09:50:42Z</time>
      </trkpt>
      <trkpt lat="43.68779" lon="3.19008">
        <ele>417.83</ele>
        <time>2018-09-09T09:50:58Z</time>
      </trkpt>
      <trkpt lat="43.68764" lon="3.18998">
        <ele>417.35</ele>
        <time>2018-09-09T09:51:13Z</time>
      </trkpt>
      <trkpt lat="43.68752" lon="3.18995">
        <ele>417.35</ele>
        <time>2018-09-09T09:51:26Z</time>
      </trkpt>
      <trkpt lat="43.68738" lon="3.18989">
        <ele>414.47</ele>
        <time>2018-09-09T09:51:42Z</time>
      </trkpt>
      <trkpt lat="43.6873" lon="3.18983">
        <ele>413.98</ele>
        <time>2018-09-09T09:51:58Z</time>
      </trkpt>
      <trkpt lat="43.68729" lon="3.18982">
        <ele>413.98</ele>
        <time>2018-09-09T09:51:59Z</time>
      </trkpt>
      <trkpt lat="43.68722" lon="3.18978">
        <ele>413.98</ele>
        <time>2018-09-09T09:52:07Z</time>
      </trkpt>
      <trkpt lat="43.6871" lon="3.18977">
        <ele>413.5</ele>
        <time>2018-09-09T09:52:19Z</time>
      </trkpt>
      <trkpt lat="43.68701" lon="3.18977">
        <ele>412.06</ele>
        <time>2018-09-09T09:52:33Z</time>
      </trkpt>
      <trkpt lat="43.68686" lon="3.18975">
        <ele>413.02</ele>
        <time>2018-09-09T09:52:45Z</time>
      </trkpt>
      <trkpt lat="43.68685" lon="3.18975">
        <ele>412.54</ele>
        <time>2018-09-09T09:52:47Z</time>
      </trkpt>
      <trkpt lat="43.68674" lon="3.18968">
        <ele>410.62</ele>
        <time>2018-09-09T09:53:02Z</time>
      </trkpt>
      <trkpt lat="43.68666" lon="3.18958">
        <ele>406.77</ele>
        <time>2018-09-09T09:53:17Z</time>
      </trkpt>
      <trkpt lat="43.68656" lon="3.18953">
        <ele>404.85</ele>
        <time>2018-09-09T09:53:29Z</time>
      </trkpt>
      <trkpt lat="43.68656" lon="3.18953">
        <ele>404.37</ele>
        <time>2018-09-09T09:53:30Z</time>
      </trkpt>
      <trkpt lat="43.68642" lon="3.18946">
        <ele>400.53</ele>
        <time>2018-09-09T09:53:45Z</time>
      </trkpt>
      <trkpt lat="43.68628" lon="3.18941">
        <ele>397.16</ele>
        <time>2018-09-09T09:53:59Z</time>
      </trkpt>
      <trkpt lat="43.68614" lon="3.18937">
        <ele>394.28</ele>
        <time>2018-09-09T09:54:13Z</time>
      </trkpt>
      <trkpt lat="43.68608" lon="3.18934">
        <ele>391.87</ele>
        <time>2018-09-09T09:54:20Z</time>
      </trkpt>
      <trkpt lat="43.68606" lon="3.18928">
        <ele>391.87</ele>
        <time>2018-09-09T09:54:25Z</time>
      </trkpt>
      <trkpt lat="43.68598" lon="3.18916">
        <ele>387.07</ele>
        <time>2018-09-09T09:54:40Z</time>
      </trkpt>
      <trkpt lat="43.68596" lon="3.18909">
        <ele>387.07</ele>
        <time>2018-09-09T09:54:45Z</time>
      </trkpt>
      <trkpt lat="43.68595" lon="3.18905">
        <ele>387.07</ele>
        <time>2018-09-09T09:54:48Z</time>
      </trkpt>
      <trkpt lat="43.6859" lon="3.18899">
        <ele>388.03</ele>
        <time>2018-09-09T09:54:54Z</time>
      </trkpt>
      <trkpt lat="43.68581" lon="3.18883">
        <ele>388.99</ele>
        <time>2018-09-09T09:55:08Z</time>
      </trkpt>
      <trkpt lat="43.68572" lon="3.18869">
        <ele>386.59</ele>
        <time>2018-09-09T09:55:25Z</time>
      </trkpt>
      <trkpt lat="43.6857" lon="3.18873">
        <ele>385.63</ele>
        <time>2018-09-09T09:55:40Z</time>
      </trkpt>
      <trkpt lat="43.68564" lon="3.18883">
        <ele>384.66</ele>
        <time>2018-09-09T09:55:54Z</time>
      </trkpt>
      <trkpt lat="43.68564" lon="3.18893">
        <ele>383.7</ele>
        <time>2018-09-09T09:56:05Z</time>
      </trkpt>
      <trkpt lat="43.68563" lon="3.18898">
        <ele>383.22</ele>
        <time>2018-09-09T09:56:08Z</time>
      </trkpt>
      <trkpt lat="43.68561" lon="3.18902">
        <ele>384.18</ele>
        <time>2018-09-09T09:56:19Z</time>
      </trkpt>
      <trkpt lat="43.68557" lon="3.18917">
        <ele>383.7</ele>
        <time>2018-09-09T09:56:34Z</time>
      </trkpt>
      <trkpt lat="43.68555" lon="3.18925">
        <ele>384.18</ele>
        <time>2018-09-09T09:56:44Z</time>
      </trkpt>
      <trkpt lat="43.68552" lon="3.18928">
        <ele>384.18</ele>
        <time>2018-09-09T09:57:02Z</time>
      </trkpt>
      <trkpt lat="43.68552" lon="3.18928">
        <ele>384.66</ele>
        <time>2018-09-09T09:57:21Z</time>
      </trkpt>
      <trkpt lat="43.68549" lon="3.18926">
        <ele>383.7</ele>
        <time>2018-09-09T09:57:39Z</time>
      </trkpt>
      <trkpt lat="43.6854" lon="3.18927">
        <ele>382.26</ele>
        <time>2018-09-09T09:57:56Z</time>
      </trkpt>
      <trkpt lat="43.6853" lon="3.18929">
        <ele>379.86</ele>
        <time>2018-09-09T09:58:09Z</time>
      </trkpt>
      <trkpt lat="43.68519" lon="3.18929">
        <ele>378.42</ele>
        <time>2018-09-09T09:58:21Z</time>
      </trkpt>
      <trkpt lat="43.68512" lon="3.18926">
        <ele>376.97</ele>
        <time>2018-09-09T09:58:35Z</time>
      </trkpt>
      <trkpt lat="43.68505" lon="3.18927">
        <ele>376.01</ele>
        <time>2018-09-09T09:58:47Z</time>
      </trkpt>
      <trkpt lat="43.68504" lon="3.18925">
        <ele>376.49</ele>
        <time>2018-09-09T09:59:04Z</time>
      </trkpt>
      <trkpt lat="43.68502" lon="3.18926">
        <ele>376.49</ele>
        <time>2018-09-09T09:59:22Z</time>
      </trkpt>
      <trkpt lat="43.68495" lon="3.18926">
        <ele>375.53</ele>
        <time>2018-09-09T09:59:37Z</time>
      </trkpt>
      <trkpt lat="43.6849" lon="3.18924">
        <ele>375.53</ele>
        <time>2018-09-09T09:59:52Z</time>
      </trkpt>
      <trkpt lat="43.68488" lon="3.18925">
        <ele>376.01</ele>
        <time>2018-09-09T10:00:05Z</time>
      </trkpt>
      <trkpt lat="43.6848" lon="3.18925">
        <ele>374.09</ele>
        <time>2018-09-09T10:00:20Z</time>
      </trkpt>
      <trkpt lat="43.68477" lon="3.18924">
        <ele>371.69</ele>
        <time>2018-09-09T10:00:37Z</time>
      </trkpt>
      <trkpt lat="43.68474" lon="3.18925">
        <ele>370.73</ele>
        <time>2018-09-09T10:00:54Z</time>
      </trkpt>
      <trkpt lat="43.68472" lon="3.1893">
        <ele>370.24</ele>
        <time>2018-09-09T10:01:07Z</time>
      </trkpt>
      <trkpt lat="43.68472" lon="3.1893">
        <ele>370.24</ele>
        <time>2018-09-09T10:01:28Z</time>
      </trkpt>
      <trkpt lat="43.68473" lon="3.1893">
        <ele>370.24</ele>
        <time>2018-09-09T10:01:44Z</time>
      </trkpt>
      <trkpt lat="43.68473" lon="3.18932">
        <ele>372.65</ele>
        <time>2018-09-09T10:02:09Z</time>
      </trkpt>
      <trkpt lat="43.68471" lon="3.18932">
        <ele>373.61</ele>
        <time>2018-09-09T10:02:41Z</time>
      </trkpt>
      <trkpt lat="43.6847" lon="3.18931">
        <ele>374.09</ele>
        <time>2018-09-09T10:03:12Z</time>
      </trkpt>
      <trkpt lat="43.68471" lon="3.1893">
        <ele>375.53</ele>
        <time>2018-09-09T10:03:51Z</time>
      </trkpt>
      <trkpt lat="43.68471" lon="3.1893">
        <ele>376.49</ele>
        <time>2018-09-09T10:04:21Z</time>
      </trkpt>
      <trkpt lat="43.68471" lon="3.1893">
        <ele>376.49</ele>
        <time>2018-09-09T10:04:51Z</time>
      </trkpt>
      <trkpt lat="43.68472" lon="3.1893">
        <ele>376.97</ele>
        <time>2018-09-09T10:05:25Z</time>
      </trkpt>
      <trkpt lat="43.68471" lon="3.1893">
        <ele>377.45</ele>
        <time>2018-09-09T10:05:55Z</time>
      </trkpt>
      <trkpt lat="43.68471" lon="3.1893">
        <ele>377.94</ele>
        <time>2018-09-09T10:06:32Z</time>
      </trkpt>
      <trkpt lat="43.68471" lon="3.18931">
        <ele>377.45</ele>
        <time>2018-09-09T10:07:06Z</time>
      </trkpt>
      <trkpt lat="43.6847" lon="3.1893">
        <ele>377.45</ele>
        <time>2018-09-09T10:07:45Z</time>
      </trkpt>
      <trkpt lat="43.68469" lon="3.1893">
        <ele>376.97</ele>
        <time>2018-09-09T10:08:17Z</time>
      </trkpt>
      <trkpt lat="43.68469" lon="3.1893">
        <ele>377.45</ele>
        <time>2018-09-09T10:08:47Z</time>
      </trkpt>
      <trkpt lat="43.68469" lon="3.18929">
        <ele>377.94</ele>
        <time>2018-09-09T10:09:22Z</time>
      </trkpt>
      <trkpt lat="43.68468" lon="3.18929">
        <ele>378.42</ele>
        <time>2018-09-09T10:09:53Z</time>
      </trkpt>
      <trkpt lat="43.68468" lon="3.18928">
        <ele>378.42</ele>
        <time>2018-09-09T10:10:27Z</time>
      </trkpt>
      <trkpt lat="43.68469" lon="3.18928">
        <ele>378.42</ele>
        <time>2018-09-09T10:10:58Z</time>
      </trkpt>
      <trkpt lat="43.6847" lon="3.18928">
        <ele>379.38</ele>
        <time>2018-09-09T10:11:35Z</time>
      </trkpt>
      <trkpt lat="43.68471" lon="3.18928">
        <ele>380.34</ele>
        <time>2018-09-09T10:12:10Z</time>
      </trkpt>
      <trkpt lat="43.68472" lon="3.18928">
        <ele>380.34</ele>
        <time>2018-09-09T10:12:47Z</time>
      </trkpt>
      <trkpt lat="43.68472" lon="3.18929">
        <ele>380.82</ele>
        <time>2018-09-09T10:13:25Z</time>
      </trkpt>
      <trkpt lat="43.68471" lon="3.1893">
        <ele>380.82</ele>
        <time>2018-09-09T10:13:59Z</time>
      </trkpt>
      <trkpt lat="43.6847" lon="3.18931">
        <ele>379.86</ele>
        <time>2018-09-09T10:14:32Z</time>
      </trkpt>
      <trkpt lat="43.6847" lon="3.18931">
        <ele>379.38</ele>
        <time>2018-09-09T10:15:05Z</time>
      </trkpt>
      <trkpt lat="43.6847" lon="3.1893">
        <ele>378.9</ele>
        <time>2018-09-09T10:15:36Z</time>
      </trkpt>
      <trkpt lat="43.6847" lon="3.1893">
        <ele>378.42</ele>
        <time>2018-09-09T10:16:10Z</time>
      </trkpt>
      <trkpt lat="43.6847" lon="3.18931">
        <ele>377.94</ele>
        <time>2018-09-09T10:16:45Z</time>
      </trkpt>
      <trkpt lat="43.68472" lon="3.18932">
        <ele>378.42</ele>
        <time>2018-09-09T10:17:17Z</time>
      </trkpt>
      <trkpt lat="43.68473" lon="3.18931">
        <ele>377.45</ele>
        <time>2018-09-09T10:17:50Z</time>
      </trkpt>
      <trkpt lat="43.68473" lon="3.1893">
        <ele>376.01</ele>
        <time>2018-09-09T10:18:23Z</time>
      </trkpt>
      <trkpt lat="43.68471" lon="3.18929">
        <ele>377.94</ele>
        <time>2018-09-09T10:19:00Z</time>
      </trkpt>
      <trkpt lat="43.68471" lon="3.18929">
        <ele>379.38</ele>
        <time>2018-09-09T10:19:35Z</time>
      </trkpt>
      <trkpt lat="43.68471" lon="3.1893">
        <ele>379.38</ele>
        <time>2018-09-09T10:20:13Z</time>
      </trkpt>
      <trkpt lat="43.68472" lon="3.1893">
        <ele>379.38</ele>
        <time>2018-09-09T10:20:55Z</time>
      </trkpt>
      <trkpt lat="43.68472" lon="3.18929">
        <ele>378.9</ele>
        <time>2018-09-09T10:21:27Z</time>
      </trkpt>
      <trkpt lat="43.68472" lon="3.18929">
        <ele>378.9</ele>
        <time>2018-09-09T10:21:44Z</time>
      </trkpt>
      <trkpt lat="43.68472" lon="3.18928">
        <ele>378.9</ele>
        <time>2018-09-09T10:22:14Z</time>
      </trkpt>
      <trkpt lat="43.68473" lon="3.18927">
        <ele>378.9</ele>
        <time>2018-09-09T10:22:45Z</time>
      </trkpt>
      <trkpt lat="43.68473" lon="3.18927">
        <ele>378.9</ele>
        <time>2018-09-09T10:23:11Z</time>
      </trkpt>
      <trkpt lat="43.68473" lon="3.18926">
        <ele>378.9</ele>
        <time>2018-09-09T10:23:39Z</time>
      </trkpt>
      <trkpt lat="43.68473" lon="3.18925">
        <ele>378.9</ele>
        <time>2018-09-09T10:24:06Z</time>
      </trkpt>
      <trkpt lat="43.68473" lon="3.18925">
        <ele>378.42</ele>
        <time>2018-09-09T10:24:28Z</time>
      </trkpt>
      <trkpt lat="43.68473" lon="3.18925">
        <ele>378.42</ele>
        <time>2018-09-09T10:24:51Z</time>
      </trkpt>
      <trkpt lat="43.68473" lon="3.18925">
        <ele>378.9</ele>
        <time>2018-09-09T10:25:19Z</time>
      </trkpt>
      <trkpt lat="43.68473" lon="3.18926">
        <ele>378.9</ele>
        <time>2018-09-09T10:25:45Z</time>
      </trkpt>
      <trkpt lat="43.68472" lon="3.18926">
        <ele>377.94</ele>
        <time>2018-09-09T10:26:13Z</time>
      </trkpt>
      <trkpt lat="43.68472" lon="3.18926">
        <ele>377.94</ele>
        <time>2018-09-09T10:26:21Z</time>
      </trkpt>
      <trkpt lat="43.68275" lon="3.19109">
        <ele>343.81</ele>
        <time>2018-09-09T11:10:44Z</time>
      </trkpt>
      <trkpt lat="43.68285" lon="3.19042">
        <ele>349.1</ele>
        <time>2018-09-09T11:11:00Z</time>
      </trkpt>
      <trkpt lat="43.68284" lon="3.19041">
        <ele>349.1</ele>
        <time>2018-09-09T11:11:04Z</time>
      </trkpt>
      <trkpt lat="43.68288" lon="3.19026">
        <ele>349.1</ele>
        <time>2018-09-09T11:11:15Z</time>
      </trkpt>
      <trkpt lat="43.68288" lon="3.19024">
        <ele>348.62</ele>
        <time>2018-09-09T11:11:16Z</time>
      </trkpt>
      <trkpt lat="43.68289" lon="3.1901">
        <ele>346.69</ele>
        <time>2018-09-09T11:11:29Z</time>
      </trkpt>
      <trkpt lat="43.6829" lon="3.19009">
        <ele>346.21</ele>
        <time>2018-09-09T11:11:31Z</time>
      </trkpt>
      <trkpt lat="43.68292" lon="3.19004">
        <ele>345.73</ele>
        <time>2018-09-09T11:11:37Z</time>
      </trkpt>
      <trkpt lat="43.68291" lon="3.19">
        <ele>345.25</ele>
        <time>2018-09-09T11:11:39Z</time>
      </trkpt>
      <trkpt lat="43.68292" lon="3.18994">
        <ele>344.29</ele>
        <time>2018-09-09T11:11:43Z</time>
      </trkpt>
      <trkpt lat="43.68294" lon="3.18998">
        <ele>342.85</ele>
        <time>2018-09-09T11:11:58Z</time>
      </trkpt>
      <trkpt lat="43.68297" lon="3.19">
        <ele>342.85</ele>
        <time>2018-09-09T11:12:09Z</time>
      </trkpt>
      <trkpt lat="43.68294" lon="3.18997">
        <ele>346.21</ele>
        <time>2018-09-09T11:12:22Z</time>
      </trkpt>
      <trkpt lat="43.68295" lon="3.18997">
        <ele>346.69</ele>
        <time>2018-09-09T11:12:31Z</time>
      </trkpt>
      <trkpt lat="43.68294" lon="3.18996">
        <ele>346.69</ele>
        <time>2018-09-09T11:12:32Z</time>
      </trkpt>
      <trkpt lat="43.68293" lon="3.18988">
        <ele>347.17</ele>
        <time>2018-09-09T11:12:42Z</time>
      </trkpt>
      <trkpt lat="43.68287" lon="3.18978">
        <ele>346.69</ele>
        <time>2018-09-09T11:12:52Z</time>
      </trkpt>
      <trkpt lat="43.68288" lon="3.18975">
        <ele>345.25</ele>
        <time>2018-09-09T11:13:09Z</time>
      </trkpt>
      <trkpt lat="43.68289" lon="3.18976">
        <ele>344.77</ele>
        <time>2018-09-09T11:13:21Z</time>
      </trkpt>
      <trkpt lat="43.6829" lon="3.18976">
        <ele>344.29</ele>
        <time>2018-09-09T11:13:31Z</time>
      </trkpt>
      <trkpt lat="43.68293" lon="3.18984">
        <ele>344.77</ele>
        <time>2018-09-09T11:13:42Z</time>
      </trkpt>
      <trkpt lat="43.68294" lon="3.1899">
        <ele>344.77</ele>
        <time>2018-09-09T11:13:55Z</time>
      </trkpt>
      <trkpt lat="43.68298" lon="3.18995">
        <ele>344.77</ele>
        <time>2018-09-09T11:14:11Z</time>
      </trkpt>
      <trkpt lat="43.68298" lon="3.18995">
        <ele>345.73</ele>
        <time>2018-09-09T11:14:28Z</time>
      </trkpt>
      <trkpt lat="43.68296" lon="3.18998">
        <ele>346.21</ele>
        <time>2018-09-09T11:14:43Z</time>
      </trkpt>
      <trkpt lat="43.6829" lon="3.18996">
        <ele>347.17</ele>
        <time>2018-09-09T11:14:56Z</time>
      </trkpt>
      <trkpt lat="43.68285" lon="3.18989">
        <ele>347.65</ele>
        <time>2018-09-09T11:15:07Z</time>
      </trkpt>
      <trkpt lat="43.68284" lon="3.18987">
        <ele>348.62</ele>
        <time>2018-09-09T11:15:09Z</time>
      </trkpt>
      <trkpt lat="43.68282" lon="3.18981">
        <ele>348.62</ele>
        <time>2018-09-09T11:15:15Z</time>
      </trkpt>
      <trkpt lat="43.68276" lon="3.1897">
        <ele>347.17</ele>
        <time>2018-09-09T11:15:29Z</time>
      </trkpt>
      <trkpt lat="43.68275" lon="3.18969">
        <ele>346.69</ele>
        <time>2018-09-09T11:15:30Z</time>
      </trkpt>
      <trkpt lat="43.68269" lon="3.18964">
        <ele>346.69</ele>
        <time>2018-09-09T11:15:36Z</time>
      </trkpt>
      <trkpt lat="43.68264" lon="3.18954">
        <ele>345.73</ele>
        <time>2018-09-09T11:15:49Z</time>
      </trkpt>
      <trkpt lat="43.68262" lon="3.18952">
        <ele>346.21</ele>
        <time>2018-09-09T11:15:53Z</time>
      </trkpt>
      <trkpt lat="43.68259" lon="3.18947">
        <ele>346.69</ele>
        <time>2018-09-09T11:16:06Z</time>
      </trkpt>
      <trkpt lat="43.68258" lon="3.18944">
        <ele>346.21</ele>
        <time>2018-09-09T11:16:17Z</time>
      </trkpt>
      <trkpt lat="43.68255" lon="3.1894">
        <ele>345.25</ele>
        <time>2018-09-09T11:16:31Z</time>
      </trkpt>
      <trkpt lat="43.68251" lon="3.18937">
        <ele>343.81</ele>
        <time>2018-09-09T11:16:43Z</time>
      </trkpt>
      <trkpt lat="43.68249" lon="3.18934">
        <ele>343.81</ele>
        <time>2018-09-09T11:16:55Z</time>
      </trkpt>
      <trkpt lat="43.68247" lon="3.1893">
        <ele>343.81</ele>
        <time>2018-09-09T11:16:59Z</time>
      </trkpt>
      <trkpt lat="43.68242" lon="3.18927">
        <ele>343.81</ele>
        <time>2018-09-09T11:17:05Z</time>
      </trkpt>
      <trkpt lat="43.68239" lon="3.18923">
        <ele>344.29</ele>
        <time>2018-09-09T11:17:10Z</time>
      </trkpt>
      <trkpt lat="43.68236" lon="3.18917">
        <ele>343.33</ele>
        <time>2018-09-09T11:17:21Z</time>
      </trkpt>
      <trkpt lat="43.6823" lon="3.18911">
        <ele>342.85</ele>
        <time>2018-09-09T11:17:31Z</time>
      </trkpt>
      <trkpt lat="43.68227" lon="3.18907">
        <ele>342.37</ele>
        <time>2018-09-09T11:17:36Z</time>
      </trkpt>
      <trkpt lat="43.68225" lon="3.18905">
        <ele>342.85</ele>
        <time>2018-09-09T11:17:40Z</time>
      </trkpt>
      <trkpt lat="43.68222" lon="3.18901">
        <ele>343.33</ele>
        <time>2018-09-09T11:17:45Z</time>
      </trkpt>
      <trkpt lat="43.68218" lon="3.18899">
        <ele>344.29</ele>
        <time>2018-09-09T11:17:49Z</time>
      </trkpt>
      <trkpt lat="43.68211" lon="3.18892">
        <ele>344.77</ele>
        <time>2018-09-09T11:18:00Z</time>
      </trkpt>
      <trkpt lat="43.68203" lon="3.1889">
        <ele>344.77</ele>
        <time>2018-09-09T11:18:10Z</time>
      </trkpt>
      <trkpt lat="43.682" lon="3.18889">
        <ele>345.25</ele>
        <time>2018-09-09T11:18:14Z</time>
      </trkpt>
      <trkpt lat="43.68196" lon="3.18889">
        <ele>346.21</ele>
        <time>2018-09-09T11:18:18Z</time>
      </trkpt>
      <trkpt lat="43.68195" lon="3.18887">
        <ele>346.69</ele>
        <time>2018-09-09T11:18:30Z</time>
      </trkpt>
      <trkpt lat="43.68196" lon="3.18886">
        <ele>345.73</ele>
        <time>2018-09-09T11:18:47Z</time>
      </trkpt>
      <trkpt lat="43.68193" lon="3.18887">
        <ele>346.69</ele>
        <time>2018-09-09T11:18:53Z</time>
      </trkpt>
      <trkpt lat="43.68184" lon="3.18889">
        <ele>347.17</ele>
        <time>2018-09-09T11:19:03Z</time>
      </trkpt>
      <trkpt lat="43.68174" lon="3.1889">
        <ele>347.65</ele>
        <time>2018-09-09T11:19:12Z</time>
      </trkpt>
      <trkpt lat="43.68162" lon="3.18883">
        <ele>348.13</ele>
        <time>2018-09-09T11:19:23Z</time>
      </trkpt>
      <trkpt lat="43.68155" lon="3.18877">
        <ele>348.13</ele>
        <time>2018-09-09T11:19:30Z</time>
      </trkpt>
      <trkpt lat="43.68151" lon="3.18868">
        <ele>349.1</ele>
        <time>2018-09-09T11:19:37Z</time>
      </trkpt>
      <trkpt lat="43.68144" lon="3.18858">
        <ele>349.1</ele>
        <time>2018-09-09T11:19:46Z</time>
      </trkpt>
      <trkpt lat="43.68135" lon="3.18849">
        <ele>347.65</ele>
        <time>2018-09-09T11:19:57Z</time>
      </trkpt>
      <trkpt lat="43.68133" lon="3.18849">
        <ele>347.65</ele>
        <time>2018-09-09T11:19:59Z</time>
      </trkpt>
      <trkpt lat="43.68127" lon="3.18843">
        <ele>347.65</ele>
        <time>2018-09-09T11:20:06Z</time>
      </trkpt>
      <trkpt lat="43.68125" lon="3.18842">
        <ele>347.65</ele>
        <time>2018-09-09T11:20:08Z</time>
      </trkpt>
      <trkpt lat="43.68121" lon="3.18839">
        <ele>346.21</ele>
        <time>2018-09-09T11:20:12Z</time>
      </trkpt>
      <trkpt lat="43.68112" lon="3.18836">
        <ele>345.73</ele>
        <time>2018-09-09T11:20:20Z</time>
      </trkpt>
      <trkpt lat="43.6811" lon="3.18835">
        <ele>346.21</ele>
        <time>2018-09-09T11:20:22Z</time>
      </trkpt>
      <trkpt lat="43.68098" lon="3.18829">
        <ele>347.65</ele>
        <time>2018-09-09T11:20:34Z</time>
      </trkpt>
      <trkpt lat="43.68082" lon="3.18822">
        <ele>348.62</ele>
        <time>2018-09-09T11:20:48Z</time>
      </trkpt>
      <trkpt lat="43.68077" lon="3.1882">
        <ele>348.62</ele>
        <time>2018-09-09T11:20:53Z</time>
      </trkpt>
      <trkpt lat="43.68064" lon="3.18815">
        <ele>349.1</ele>
        <time>2018-09-09T11:21:04Z</time>
      </trkpt>
      <trkpt lat="43.68055" lon="3.18813">
        <ele>349.1</ele>
        <time>2018-09-09T11:21:13Z</time>
      </trkpt>
      <trkpt lat="43.68045" lon="3.18806">
        <ele>352.46</ele>
        <time>2018-09-09T11:21:27Z</time>
      </trkpt>
      <trkpt lat="43.6804" lon="3.18804">
        <ele>352.94</ele>
        <time>2018-09-09T11:21:45Z</time>
      </trkpt>
      <trkpt lat="43.68035" lon="3.188">
        <ele>351.98</ele>
        <time>2018-09-09T11:22:00Z</time>
      </trkpt>
      <trkpt lat="43.68025" lon="3.18793">
        <ele>349.1</ele>
        <time>2018-09-09T11:22:17Z</time>
      </trkpt>
      <trkpt lat="43.6802" lon="3.18785">
        <ele>347.17</ele>
        <time>2018-09-09T11:22:30Z</time>
      </trkpt>
      <trkpt lat="43.6801" lon="3.18772">
        <ele>343.81</ele>
        <time>2018-09-09T11:22:45Z</time>
      </trkpt>
      <trkpt lat="43.68001" lon="3.18765">
        <ele>339.96</ele>
        <time>2018-09-09T11:23:02Z</time>
      </trkpt>
      <trkpt lat="43.67988" lon="3.1876">
        <ele>337.08</ele>
        <time>2018-09-09T11:23:18Z</time>
      </trkpt>
      <trkpt lat="43.6798" lon="3.18759">
        <ele>335.64</ele>
        <time>2018-09-09T11:23:28Z</time>
      </trkpt>
      <trkpt lat="43.6796" lon="3.18754">
        <ele>335.16</ele>
        <time>2018-09-09T11:23:46Z</time>
      </trkpt>
      <trkpt lat="43.67957" lon="3.18755">
        <ele>335.16</ele>
        <time>2018-09-09T11:23:50Z</time>
      </trkpt>
      <trkpt lat="43.67942" lon="3.18765">
        <ele>335.64</ele>
        <time>2018-09-09T11:24:06Z</time>
      </trkpt>
      <trkpt lat="43.67936" lon="3.18768">
        <ele>334.2</ele>
        <time>2018-09-09T11:24:13Z</time>
      </trkpt>
      <trkpt lat="43.67933" lon="3.18774">
        <ele>333.71</ele>
        <time>2018-09-09T11:24:28Z</time>
      </trkpt>
      <trkpt lat="43.6793" lon="3.18776">
        <ele>334.68</ele>
        <time>2018-09-09T11:24:46Z</time>
      </trkpt>
      <trkpt lat="43.67928" lon="3.18778">
        <ele>336.12</ele>
        <time>2018-09-09T11:24:58Z</time>
      </trkpt>
      <trkpt lat="43.6793" lon="3.18777">
        <ele>336.6</ele>
        <time>2018-09-09T11:25:13Z</time>
      </trkpt>
      <trkpt lat="43.67932" lon="3.18773">
        <ele>335.16</ele>
        <time>2018-09-09T11:25:24Z</time>
      </trkpt>
      <trkpt lat="43.67927" lon="3.18775">
        <ele>335.16</ele>
        <time>2018-09-09T11:25:32Z</time>
      </trkpt>
      <trkpt lat="43.67914" lon="3.18776">
        <ele>336.12</ele>
        <time>2018-09-09T11:25:43Z</time>
      </trkpt>
      <trkpt lat="43.67906" lon="3.18776">
        <ele>336.6</ele>
        <time>2018-09-09T11:25:53Z</time>
      </trkpt>
      <trkpt lat="43.67895" lon="3.18773">
        <ele>336.12</ele>
        <time>2018-09-09T11:26:06Z</time>
      </trkpt>
      <trkpt lat="43.67888" lon="3.18771">
        <ele>336.12</ele>
        <time>2018-09-09T11:26:16Z</time>
      </trkpt>
      <trkpt lat="43.67879" lon="3.18768">
        <ele>337.08</ele>
        <time>2018-09-09T11:26:28Z</time>
      </trkpt>
      <trkpt lat="43.67871" lon="3.18766">
        <ele>336.12</ele>
        <time>2018-09-09T11:26:36Z</time>
      </trkpt>
      <trkpt lat="43.67867" lon="3.18762">
        <ele>336.12</ele>
        <time>2018-09-09T11:26:41Z</time>
      </trkpt>
      <trkpt lat="43.67863" lon="3.18757">
        <ele>335.16</ele>
        <time>2018-09-09T11:26:49Z</time>
      </trkpt>
      <trkpt lat="43.67856" lon="3.18749">
        <ele>334.68</ele>
        <time>2018-09-09T11:27:01Z</time>
      </trkpt>
      <trkpt lat="43.67855" lon="3.18748">
        <ele>334.68</ele>
        <time>2018-09-09T11:27:03Z</time>
      </trkpt>
      <trkpt lat="43.67847" lon="3.18739">
        <ele>332.75</ele>
        <time>2018-09-09T11:27:15Z</time>
      </trkpt>
      <trkpt lat="43.67846" lon="3.18738">
        <ele>332.27</ele>
        <time>2018-09-09T11:27:17Z</time>
      </trkpt>
      <trkpt lat="43.67839" lon="3.18737">
        <ele>331.31</ele>
        <time>2018-09-09T11:27:30Z</time>
      </trkpt>
      <trkpt lat="43.67838" lon="3.18735">
        <ele>329.87</ele>
        <time>2018-09-09T11:27:42Z</time>
      </trkpt>
      <trkpt lat="43.6783" lon="3.18738">
        <ele>330.83</ele>
        <time>2018-09-09T11:27:51Z</time>
      </trkpt>
      <trkpt lat="43.67826" lon="3.18741">
        <ele>331.79</ele>
        <time>2018-09-09T11:28:00Z</time>
      </trkpt>
      <trkpt lat="43.67823" lon="3.1874">
        <ele>331.31</ele>
        <time>2018-09-09T11:28:02Z</time>
      </trkpt>
      <trkpt lat="43.6781" lon="3.18744">
        <ele>332.75</ele>
        <time>2018-09-09T11:28:15Z</time>
      </trkpt>
      <trkpt lat="43.67805" lon="3.18747">
        <ele>333.23</ele>
        <time>2018-09-09T11:28:30Z</time>
      </trkpt>
      <trkpt lat="43.67799" lon="3.18744">
        <ele>332.75</ele>
        <time>2018-09-09T11:28:40Z</time>
      </trkpt>
      <trkpt lat="43.67798" lon="3.18743">
        <ele>332.75</ele>
        <time>2018-09-09T11:28:52Z</time>
      </trkpt>
      <trkpt lat="43.67797" lon="3.18743">
        <ele>332.75</ele>
        <time>2018-09-09T11:28:58Z</time>
      </trkpt>
      <trkpt lat="43.67788" lon="3.18732">
        <ele>329.87</ele>
        <time>2018-09-09T11:29:09Z</time>
      </trkpt>
      <trkpt lat="43.67781" lon="3.18729">
        <ele>327.95</ele>
        <time>2018-09-09T11:29:15Z</time>
      </trkpt>
      <trkpt lat="43.67777" lon="3.18728">
        <ele>326.99</ele>
        <time>2018-09-09T11:29:19Z</time>
      </trkpt>
      <trkpt lat="43.67769" lon="3.18722">
        <ele>325.06</ele>
        <time>2018-09-09T11:29:29Z</time>
      </trkpt>
      <trkpt lat="43.67763" lon="3.18722">
        <ele>323.14</ele>
        <time>2018-09-09T11:29:35Z</time>
      </trkpt>
      <trkpt lat="43.67759" lon="3.18721">
        <ele>322.66</ele>
        <time>2018-09-09T11:29:39Z</time>
      </trkpt>
      <trkpt lat="43.67748" lon="3.18718">
        <ele>322.18</ele>
        <time>2018-09-09T11:29:51Z</time>
      </trkpt>
      <trkpt lat="43.67751" lon="3.18712">
        <ele>322.66</ele>
        <time>2018-09-09T11:29:59Z</time>
      </trkpt>
      <trkpt lat="43.67753" lon="3.18709">
        <ele>322.18</ele>
        <time>2018-09-09T11:30:02Z</time>
      </trkpt>
      <trkpt lat="43.67757" lon="3.18698">
        <ele>322.66</ele>
        <time>2018-09-09T11:30:12Z</time>
      </trkpt>
      <trkpt lat="43.67765" lon="3.1869">
        <ele>321.22</ele>
        <time>2018-09-09T11:30:23Z</time>
      </trkpt>
      <trkpt lat="43.6777" lon="3.18681">
        <ele>319.3</ele>
        <time>2018-09-09T11:30:34Z</time>
      </trkpt>
      <trkpt lat="43.6777" lon="3.18677">
        <ele>318.81</ele>
        <time>2018-09-09T11:30:40Z</time>
      </trkpt>
      <trkpt lat="43.67774" lon="3.18662">
        <ele>321.7</ele>
        <time>2018-09-09T11:30:53Z</time>
      </trkpt>
      <trkpt lat="43.67775" lon="3.18661">
        <ele>321.7</ele>
        <time>2018-09-09T11:30:54Z</time>
      </trkpt>
      <trkpt lat="43.67776" lon="3.18653">
        <ele>322.66</ele>
        <time>2018-09-09T11:31:01Z</time>
      </trkpt>
      <trkpt lat="43.67779" lon="3.18643">
        <ele>322.18</ele>
        <time>2018-09-09T11:31:12Z</time>
      </trkpt>
      <trkpt lat="43.67779" lon="3.18643">
        <ele>320.26</ele>
        <time>2018-09-09T11:31:26Z</time>
      </trkpt>
      <trkpt lat="43.67779" lon="3.18643">
        <ele>318.33</ele>
        <time>2018-09-09T11:31:48Z</time>
      </trkpt>
      <trkpt lat="43.67781" lon="3.18633">
        <ele>319.3</ele>
        <time>2018-09-09T11:32:00Z</time>
      </trkpt>
      <trkpt lat="43.67786" lon="3.1862">
        <ele>320.74</ele>
        <time>2018-09-09T11:32:11Z</time>
      </trkpt>
      <trkpt lat="43.67795" lon="3.18615">
        <ele>320.26</ele>
        <time>2018-09-09T11:32:20Z</time>
      </trkpt>
      <trkpt lat="43.67806" lon="3.1862">
        <ele>320.74</ele>
        <time>2018-09-09T11:32:30Z</time>
      </trkpt>
      <trkpt lat="43.67813" lon="3.18621">
        <ele>319.78</ele>
        <time>2018-09-09T11:32:36Z</time>
      </trkpt>
      <trkpt lat="43.6781" lon="3.18621">
        <ele>320.26</ele>
        <time>2018-09-09T11:32:41Z</time>
      </trkpt>
      <trkpt lat="43.67808" lon="3.18622">
        <ele>319.78</ele>
        <time>2018-09-09T11:32:53Z</time>
      </trkpt>
      <trkpt lat="43.67815" lon="3.1862">
        <ele>319.78</ele>
        <time>2018-09-09T11:33:09Z</time>
      </trkpt>
      <trkpt lat="43.67818" lon="3.18618">
        <ele>320.26</ele>
        <time>2018-09-09T11:33:12Z</time>
      </trkpt>
      <trkpt lat="43.67831" lon="3.1862">
        <ele>319.3</ele>
        <time>2018-09-09T11:33:21Z</time>
      </trkpt>
      <trkpt lat="43.67843" lon="3.18624">
        <ele>317.37</ele>
        <time>2018-09-09T11:33:31Z</time>
      </trkpt>
      <trkpt lat="43.67854" lon="3.18625">
        <ele>315.93</ele>
        <time>2018-09-09T11:33:42Z</time>
      </trkpt>
      <trkpt lat="43.67867" lon="3.18625">
        <ele>314.01</ele>
        <time>2018-09-09T11:33:52Z</time>
      </trkpt>
      <trkpt lat="43.67875" lon="3.18622">
        <ele>311.12</ele>
        <time>2018-09-09T11:34:03Z</time>
      </trkpt>
      <trkpt lat="43.67882" lon="3.18613">
        <ele>310.64</ele>
        <time>2018-09-09T11:34:15Z</time>
      </trkpt>
      <trkpt lat="43.67884" lon="3.18618">
        <ele>309.2</ele>
        <time>2018-09-09T11:34:27Z</time>
      </trkpt>
      <trkpt lat="43.67884" lon="3.18619">
        <ele>309.2</ele>
        <time>2018-09-09T11:34:28Z</time>
      </trkpt>
      <trkpt lat="43.67888" lon="3.1862">
        <ele>309.2</ele>
        <time>2018-09-09T11:34:35Z</time>
      </trkpt>
      <trkpt lat="43.67902" lon="3.18624">
        <ele>306.32</ele>
        <time>2018-09-09T11:34:48Z</time>
      </trkpt>
      <trkpt lat="43.67909" lon="3.18619">
        <ele>303.91</ele>
        <time>2018-09-09T11:34:57Z</time>
      </trkpt>
      <trkpt lat="43.67912" lon="3.18612">
        <ele>301.51</ele>
        <time>2018-09-09T11:35:05Z</time>
      </trkpt>
      <trkpt lat="43.67913" lon="3.18598">
        <ele>298.15</ele>
        <time>2018-09-09T11:35:16Z</time>
      </trkpt>
      <trkpt lat="43.67911" lon="3.18591">
        <ele>298.15</ele>
        <time>2018-09-09T11:35:21Z</time>
      </trkpt>
      <trkpt lat="43.6791" lon="3.18577">
        <ele>298.63</ele>
        <time>2018-09-09T11:35:33Z</time>
      </trkpt>
      <trkpt lat="43.6791" lon="3.18576">
        <ele>298.63</ele>
        <time>2018-09-09T11:35:34Z</time>
      </trkpt>
      <trkpt lat="43.67911" lon="3.18571">
        <ele>298.63</ele>
        <time>2018-09-09T11:35:37Z</time>
      </trkpt>
      <trkpt lat="43.67913" lon="3.18559">
        <ele>299.11</ele>
        <time>2018-09-09T11:35:44Z</time>
      </trkpt>
      <trkpt lat="43.67915" lon="3.1855">
        <ele>297.67</ele>
        <time>2018-09-09T11:35:48Z</time>
      </trkpt>
      <trkpt lat="43.67913" lon="3.1854">
        <ele>295.26</ele>
        <time>2018-09-09T11:35:58Z</time>
      </trkpt>
      <trkpt lat="43.67912" lon="3.18533">
        <ele>294.78</ele>
        <time>2018-09-09T11:36:02Z</time>
      </trkpt>
      <trkpt lat="43.67911" lon="3.18527">
        <ele>294.78</ele>
        <time>2018-09-09T11:36:08Z</time>
      </trkpt>
      <trkpt lat="43.67909" lon="3.1852">
        <ele>294.78</ele>
        <time>2018-09-09T11:36:16Z</time>
      </trkpt>
      <trkpt lat="43.67907" lon="3.18519">
        <ele>294.78</ele>
        <time>2018-09-09T11:36:18Z</time>
      </trkpt>
      <trkpt lat="43.67904" lon="3.18513">
        <ele>294.78</ele>
        <time>2018-09-09T11:36:24Z</time>
      </trkpt>
      <trkpt lat="43.679" lon="3.18502">
        <ele>293.82</ele>
        <time>2018-09-09T11:36:29Z</time>
      </trkpt>
      <trkpt lat="43.6789" lon="3.18487">
        <ele>291.9</ele>
        <time>2018-09-09T11:36:40Z</time>
      </trkpt>
      <trkpt lat="43.67889" lon="3.18485">
        <ele>291.9</ele>
        <time>2018-09-09T11:36:42Z</time>
      </trkpt>
      <trkpt lat="43.67878" lon="3.18476">
        <ele>290.46</ele>
        <time>2018-09-09T11:36:54Z</time>
      </trkpt>
      <trkpt lat="43.67869" lon="3.18471">
        <ele>289.01</ele>
        <time>2018-09-09T11:37:07Z</time>
      </trkpt>
      <trkpt lat="43.67856" lon="3.18466">
        <ele>287.09</ele>
        <time>2018-09-09T11:37:21Z</time>
      </trkpt>
      <trkpt lat="43.67856" lon="3.18466">
        <ele>287.09</ele>
        <time>2018-09-09T11:37:26Z</time>
      </trkpt>
      <trkpt lat="43.67851" lon="3.18461">
        <ele>286.61</ele>
        <time>2018-09-09T11:37:31Z</time>
      </trkpt>
      <trkpt lat="43.67842" lon="3.18458">
        <ele>289.01</ele>
        <time>2018-09-09T11:37:38Z</time>
      </trkpt>
      <trkpt lat="43.6784" lon="3.18456">
        <ele>289.49</ele>
        <time>2018-09-09T11:37:41Z</time>
      </trkpt>
      <trkpt lat="43.67834" lon="3.18455">
        <ele>289.97</ele>
        <time>2018-09-09T11:37:46Z</time>
      </trkpt>
      <trkpt lat="43.67832" lon="3.18454">
        <ele>290.46</ele>
        <time>2018-09-09T11:37:48Z</time>
      </trkpt>
      <trkpt lat="43.67815" lon="3.18457">
        <ele>289.97</ele>
        <time>2018-09-09T11:38:01Z</time>
      </trkpt>
      <trkpt lat="43.67814" lon="3.18458">
        <ele>289.49</ele>
        <time>2018-09-09T11:38:02Z</time>
      </trkpt>
      <trkpt lat="43.67811" lon="3.18459">
        <ele>288.53</ele>
        <time>2018-09-09T11:38:06Z</time>
      </trkpt>
      <trkpt lat="43.67802" lon="3.18455">
        <ele>287.57</ele>
        <time>2018-09-09T11:38:17Z</time>
      </trkpt>
      <trkpt lat="43.67799" lon="3.18456">
        <ele>287.09</ele>
        <time>2018-09-09T11:38:19Z</time>
      </trkpt>
      <trkpt lat="43.6779" lon="3.18457">
        <ele>287.09</ele>
        <time>2018-09-09T11:38:32Z</time>
      </trkpt>
      <trkpt lat="43.67791" lon="3.18456">
        <ele>286.61</ele>
        <time>2018-09-09T11:38:54Z</time>
      </trkpt>
      <trkpt lat="43.67791" lon="3.18455">
        <ele>286.61</ele>
        <time>2018-09-09T11:39:08Z</time>
      </trkpt>
      <trkpt lat="43.67792" lon="3.18456">
        <ele>286.61</ele>
        <time>2018-09-09T11:39:28Z</time>
      </trkpt>
      <trkpt lat="43.67793" lon="3.18457">
        <ele>286.61</ele>
        <time>2018-09-09T11:39:51Z</time>
      </trkpt>
      <trkpt lat="43.67792" lon="3.18457">
        <ele>286.13</ele>
        <time>2018-09-09T11:40:15Z</time>
      </trkpt>
      <trkpt lat="43.67792" lon="3.18454">
        <ele>285.65</ele>
        <time>2018-09-09T11:40:32Z</time>
      </trkpt>
      <trkpt lat="43.6779" lon="3.18454">
        <ele>285.17</ele>
        <time>2018-09-09T11:40:55Z</time>
      </trkpt>
      <trkpt lat="43.67791" lon="3.18454">
        <ele>285.17</ele>
        <time>2018-09-09T11:41:15Z</time>
      </trkpt>
      <trkpt lat="43.67787" lon="3.18456">
        <ele>284.69</ele>
        <time>2018-09-09T11:41:35Z</time>
      </trkpt>
      <trkpt lat="43.67786" lon="3.18456">
        <ele>284.69</ele>
        <time>2018-09-09T11:42:00Z</time>
      </trkpt>
      <trkpt lat="43.67789" lon="3.18456">
        <ele>284.21</ele>
        <time>2018-09-09T11:42:19Z</time>
      </trkpt>
      <trkpt lat="43.67791" lon="3.18455">
        <ele>283.73</ele>
        <time>2018-09-09T11:42:33Z</time>
      </trkpt>
      <trkpt lat="43.67791" lon="3.18455">
        <ele>283.73</ele>
        <time>2018-09-09T11:42:53Z</time>
      </trkpt>
      <trkpt lat="43.67792" lon="3.18456">
        <ele>283.73</ele>
        <time>2018-09-09T11:42:58Z</time>
      </trkpt>
      <trkpt lat="43.67796" lon="3.18455">
        <ele>283.25</ele>
        <time>2018-09-09T11:43:08Z</time>
      </trkpt>
      <trkpt lat="43.67799" lon="3.18455">
        <ele>281.8</ele>
        <time>2018-09-09T11:43:22Z</time>
      </trkpt>
      <trkpt lat="43.67804" lon="3.18452">
        <ele>282.28</ele>
        <time>2018-09-09T11:43:33Z</time>
      </trkpt>
      <trkpt lat="43.67805" lon="3.18449">
        <ele>282.28</ele>
        <time>2018-09-09T11:43:35Z</time>
      </trkpt>
      <trkpt lat="43.6781" lon="3.18435">
        <ele>280.36</ele>
        <time>2018-09-09T11:43:46Z</time>
      </trkpt>
      <trkpt lat="43.67819" lon="3.18414">
        <ele>277</ele>
        <time>2018-09-09T11:44:00Z</time>
      </trkpt>
      <trkpt lat="43.67822" lon="3.18408">
        <ele>275.56</ele>
        <time>2018-09-09T11:44:05Z</time>
      </trkpt>
      <trkpt lat="43.67832" lon="3.18393">
        <ele>273.15</ele>
        <time>2018-09-09T11:44:17Z</time>
      </trkpt>
      <trkpt lat="43.67843" lon="3.18384">
        <ele>270.27</ele>
        <time>2018-09-09T11:44:28Z</time>
      </trkpt>
      <trkpt lat="43.67849" lon="3.18378">
        <ele>269.79</ele>
        <time>2018-09-09T11:44:37Z</time>
      </trkpt>
      <trkpt lat="43.6786" lon="3.18366">
        <ele>270.27</ele>
        <time>2018-09-09T11:44:50Z</time>
      </trkpt>
      <trkpt lat="43.6787" lon="3.18354">
        <ele>269.31</ele>
        <time>2018-09-09T11:45:02Z</time>
      </trkpt>
      <trkpt lat="43.67876" lon="3.18352">
        <ele>269.31</ele>
        <time>2018-09-09T11:45:13Z</time>
      </trkpt>
      <trkpt lat="43.67878" lon="3.18349">
        <ele>269.79</ele>
        <time>2018-09-09T11:45:18Z</time>
      </trkpt>
      <trkpt lat="43.67879" lon="3.18346">
        <ele>269.79</ele>
        <time>2018-09-09T11:45:20Z</time>
      </trkpt>
      <trkpt lat="43.67881" lon="3.1834">
        <ele>269.79</ele>
        <time>2018-09-09T11:45:24Z</time>
      </trkpt>
      <trkpt lat="43.67885" lon="3.18338">
        <ele>269.31</ele>
        <time>2018-09-09T11:45:27Z</time>
      </trkpt>
      <trkpt lat="43.6789" lon="3.1833">
        <ele>268.83</ele>
        <time>2018-09-09T11:45:32Z</time>
      </trkpt>
      <trkpt lat="43.67894" lon="3.18316">
        <ele>267.86</ele>
        <time>2018-09-09T11:45:45Z</time>
      </trkpt>
      <trkpt lat="43.67897" lon="3.18314">
        <ele>267.86</ele>
        <time>2018-09-09T11:45:58Z</time>
      </trkpt>
      <trkpt lat="43.679" lon="3.18316">
        <ele>268.35</ele>
        <time>2018-09-09T11:46:04Z</time>
      </trkpt>
      <trkpt lat="43.67905" lon="3.18321">
        <ele>267.38</ele>
        <time>2018-09-09T11:46:16Z</time>
      </trkpt>
      <trkpt lat="43.67907" lon="3.18323">
        <ele>266.9</ele>
        <time>2018-09-09T11:46:19Z</time>
      </trkpt>
      <trkpt lat="43.67911" lon="3.18327">
        <ele>267.38</ele>
        <time>2018-09-09T11:46:29Z</time>
      </trkpt>
      <trkpt lat="43.67911" lon="3.18328">
        <ele>267.38</ele>
        <time>2018-09-09T11:46:30Z</time>
      </trkpt>
      <trkpt lat="43.67913" lon="3.18329">
        <ele>267.38</ele>
        <time>2018-09-09T11:46:32Z</time>
      </trkpt>
      <trkpt lat="43.67916" lon="3.18333">
        <ele>267.38</ele>
        <time>2018-09-09T11:46:35Z</time>
      </trkpt>
      <trkpt lat="43.67921" lon="3.18339">
        <ele>267.86</ele>
        <time>2018-09-09T11:46:42Z</time>
      </trkpt>
      <trkpt lat="43.67925" lon="3.18345">
        <ele>268.35</ele>
        <time>2018-09-09T11:46:49Z</time>
      </trkpt>
      <trkpt lat="43.67927" lon="3.18347">
        <ele>268.35</ele>
        <time>2018-09-09T11:46:53Z</time>
      </trkpt>
      <trkpt lat="43.67934" lon="3.18356">
        <ele>268.35</ele>
        <time>2018-09-09T11:47:06Z</time>
      </trkpt>
      <trkpt lat="43.67939" lon="3.1836">
        <ele>268.83</ele>
        <time>2018-09-09T11:47:13Z</time>
      </trkpt>
      <trkpt lat="43.67946" lon="3.18367">
        <ele>270.27</ele>
        <time>2018-09-09T11:47:21Z</time>
      </trkpt>
      <trkpt lat="43.67948" lon="3.1837">
        <ele>270.27</ele>
        <time>2018-09-09T11:47:24Z</time>
      </trkpt>
      <trkpt lat="43.67951" lon="3.18376">
        <ele>269.79</ele>
        <time>2018-09-09T11:47:29Z</time>
      </trkpt>
      <trkpt lat="43.67952" lon="3.18378">
        <ele>269.31</ele>
        <time>2018-09-09T11:47:32Z</time>
      </trkpt>
      <trkpt lat="43.67956" lon="3.18382">
        <ele>269.79</ele>
        <time>2018-09-09T11:47:38Z</time>
      </trkpt>
      <trkpt lat="43.6796" lon="3.18385">
        <ele>270.27</ele>
        <time>2018-09-09T11:47:43Z</time>
      </trkpt>
      <trkpt lat="43.67969" lon="3.1839">
        <ele>271.23</ele>
        <time>2018-09-09T11:47:54Z</time>
      </trkpt>
      <trkpt lat="43.67977" lon="3.18396">
        <ele>273.15</ele>
        <time>2018-09-09T11:48:08Z</time>
      </trkpt>
      <trkpt lat="43.67982" lon="3.18399">
        <ele>273.15</ele>
        <time>2018-09-09T11:48:13Z</time>
      </trkpt>
      <trkpt lat="43.67992" lon="3.18403">
        <ele>272.19</ele>
        <time>2018-09-09T11:48:27Z</time>
      </trkpt>
      <trkpt lat="43.68" lon="3.18409">
        <ele>272.67</ele>
        <time>2018-09-09T11:48:40Z</time>
      </trkpt>
      <trkpt lat="43.68008" lon="3.18413">
        <ele>272.19</ele>
        <time>2018-09-09T11:48:51Z</time>
      </trkpt>
      <trkpt lat="43.6801" lon="3.18414">
        <ele>272.19</ele>
        <time>2018-09-09T11:48:53Z</time>
      </trkpt>
      <trkpt lat="43.68016" lon="3.18419">
        <ele>271.71</ele>
        <time>2018-09-09T11:49:01Z</time>
      </trkpt>
      <trkpt lat="43.68024" lon="3.18426">
        <ele>270.75</ele>
        <time>2018-09-09T11:49:14Z</time>
      </trkpt>
      <trkpt lat="43.68035" lon="3.18434">
        <ele>272.19</ele>
        <time>2018-09-09T11:49:30Z</time>
      </trkpt>
      <trkpt lat="43.68036" lon="3.18435">
        <ele>272.19</ele>
        <time>2018-09-09T11:49:33Z</time>
      </trkpt>
      <trkpt lat="43.6804" lon="3.18438">
        <ele>272.19</ele>
        <time>2018-09-09T11:49:44Z</time>
      </trkpt>
      <trkpt lat="43.6804" lon="3.18439">
        <ele>272.19</ele>
        <time>2018-09-09T11:49:56Z</time>
      </trkpt>
      <trkpt lat="43.68047" lon="3.18435">
        <ele>272.19</ele>
        <time>2018-09-09T11:50:08Z</time>
      </trkpt>
      <trkpt lat="43.68059" lon="3.18429">
        <ele>271.23</ele>
        <time>2018-09-09T11:50:22Z</time>
      </trkpt>
      <trkpt lat="43.68066" lon="3.18424">
        <ele>270.27</ele>
        <time>2018-09-09T11:50:36Z</time>
      </trkpt>
      <trkpt lat="43.68068" lon="3.18423">
        <ele>269.31</ele>
        <time>2018-09-09T11:50:51Z</time>
      </trkpt>
      <trkpt lat="43.68084" lon="3.18416">
        <ele>268.83</ele>
        <time>2018-09-09T11:51:09Z</time>
      </trkpt>
      <trkpt lat="43.6809" lon="3.18419">
        <ele>267.38</ele>
        <time>2018-09-09T11:51:21Z</time>
      </trkpt>
      <trkpt lat="43.68093" lon="3.18422">
        <ele>266.9</ele>
        <time>2018-09-09T11:51:36Z</time>
      </trkpt>
      <trkpt lat="43.68097" lon="3.18426">
        <ele>266.9</ele>
        <time>2018-09-09T11:51:47Z</time>
      </trkpt>
      <trkpt lat="43.681" lon="3.18427">
        <ele>266.42</ele>
        <time>2018-09-09T11:51:51Z</time>
      </trkpt>
      <trkpt lat="43.68105" lon="3.18426">
        <ele>268.35</ele>
        <time>2018-09-09T11:52:02Z</time>
      </trkpt>
      <trkpt lat="43.68108" lon="3.18423">
        <ele>269.31</ele>
        <time>2018-09-09T11:52:16Z</time>
      </trkpt>
      <trkpt lat="43.68109" lon="3.18424">
        <ele>269.79</ele>
        <time>2018-09-09T11:52:33Z</time>
      </trkpt>
      <trkpt lat="43.68109" lon="3.18424">
        <ele>269.79</ele>
        <time>2018-09-09T11:52:51Z</time>
      </trkpt>
      <trkpt lat="43.6811" lon="3.18424">
        <ele>269.79</ele>
        <time>2018-09-09T11:53:08Z</time>
      </trkpt>
      <trkpt lat="43.68109" lon="3.18424">
        <ele>270.27</ele>
        <time>2018-09-09T11:53:26Z</time>
      </trkpt>
      <trkpt lat="43.68109" lon="3.18424">
        <ele>270.27</ele>
        <time>2018-09-09T11:53:48Z</time>
      </trkpt>
      <trkpt lat="43.68109" lon="3.18423">
        <ele>269.79</ele>
        <time>2018-09-09T11:54:10Z</time>
      </trkpt>
      <trkpt lat="43.68109" lon="3.18423">
        <ele>270.27</ele>
        <time>2018-09-09T11:54:27Z</time>
      </trkpt>
      <trkpt lat="43.68109" lon="3.18422">
        <ele>270.75</ele>
        <time>2018-09-09T11:54:46Z</time>
      </trkpt>
      <trkpt lat="43.68109" lon="3.18423">
        <ele>270.75</ele>
        <time>2018-09-09T11:55:10Z</time>
      </trkpt>
      <trkpt lat="43.68109" lon="3.18422">
        <ele>270.27</ele>
        <time>2018-09-09T11:55:37Z</time>
      </trkpt>
      <trkpt lat="43.6811" lon="3.18422">
        <ele>270.75</ele>
        <time>2018-09-09T11:55:53Z</time>
      </trkpt>
      <trkpt lat="43.6811" lon="3.18422">
        <ele>271.23</ele>
        <time>2018-09-09T11:56:07Z</time>
      </trkpt>
      <trkpt lat="43.68113" lon="3.18421">
        <ele>271.23</ele>
        <time>2018-09-09T11:56:12Z</time>
      </trkpt>
      <trkpt lat="43.6812" lon="3.18415">
        <ele>270.27</ele>
        <time>2018-09-09T11:56:20Z</time>
      </trkpt>
      <trkpt lat="43.6813" lon="3.18405">
        <ele>269.79</ele>
        <time>2018-09-09T11:56:26Z</time>
      </trkpt>
      <trkpt lat="43.68134" lon="3.18402">
        <ele>268.83</ele>
        <time>2018-09-09T11:56:29Z</time>
      </trkpt>
      <trkpt lat="43.6814" lon="3.18393">
        <ele>267.38</ele>
        <time>2018-09-09T11:56:40Z</time>
      </trkpt>
      <trkpt lat="43.68143" lon="3.18386">
        <ele>265.94</ele>
        <time>2018-09-09T11:56:45Z</time>
      </trkpt>
      <trkpt lat="43.68156" lon="3.18372">
        <ele>263.54</ele>
        <time>2018-09-09T11:57:00Z</time>
      </trkpt>
      <trkpt lat="43.6816" lon="3.18369">
        <ele>262.58</ele>
        <time>2018-09-09T11:57:04Z</time>
      </trkpt>
      <trkpt lat="43.68172" lon="3.18367">
        <ele>261.14</ele>
        <time>2018-09-09T11:57:14Z</time>
      </trkpt>
      <trkpt lat="43.68189" lon="3.18369">
        <ele>262.1</ele>
        <time>2018-09-09T11:57:28Z</time>
      </trkpt>
      <trkpt lat="43.68201" lon="3.18365">
        <ele>263.06</ele>
        <time>2018-09-09T11:57:39Z</time>
      </trkpt>
      <trkpt lat="43.68204" lon="3.18363">
        <ele>263.54</ele>
        <time>2018-09-09T11:57:42Z</time>
      </trkpt>
      <trkpt lat="43.68211" lon="3.1836">
        <ele>264.5</ele>
        <time>2018-09-09T11:57:49Z</time>
      </trkpt>
      <trkpt lat="43.68213" lon="3.18358">
        <ele>264.98</ele>
        <time>2018-09-09T11:57:52Z</time>
      </trkpt>
      <trkpt lat="43.6822" lon="3.18349">
        <ele>266.9</ele>
        <time>2018-09-09T11:58:00Z</time>
      </trkpt>
      <trkpt lat="43.68227" lon="3.18343">
        <ele>266.42</ele>
        <time>2018-09-09T11:58:06Z</time>
      </trkpt>
      <trkpt lat="43.68235" lon="3.18332">
        <ele>264.98</ele>
        <time>2018-09-09T11:58:19Z</time>
      </trkpt>
      <trkpt lat="43.68237" lon="3.1833">
        <ele>264.02</ele>
        <time>2018-09-09T11:58:29Z</time>
      </trkpt>
      <trkpt lat="43.68247" lon="3.18321">
        <ele>263.54</ele>
        <time>2018-09-09T11:58:41Z</time>
      </trkpt>
      <trkpt lat="43.68249" lon="3.18304">
        <ele>261.62</ele>
        <time>2018-09-09T11:58:54Z</time>
      </trkpt>
      <trkpt lat="43.6825" lon="3.18299">
        <ele>260.65</ele>
        <time>2018-09-09T11:58:57Z</time>
      </trkpt>
      <trkpt lat="43.68252" lon="3.18281">
        <ele>258.25</ele>
        <time>2018-09-09T11:59:10Z</time>
      </trkpt>
      <trkpt lat="43.68255" lon="3.1827">
        <ele>258.25</ele>
        <time>2018-09-09T11:59:18Z</time>
      </trkpt>
      <trkpt lat="43.68256" lon="3.18267">
        <ele>257.77</ele>
        <time>2018-09-09T11:59:20Z</time>
      </trkpt>
      <trkpt lat="43.68263" lon="3.18251">
        <ele>255.85</ele>
        <time>2018-09-09T11:59:33Z</time>
      </trkpt>
      <trkpt lat="43.68269" lon="3.18236">
        <ele>255.85</ele>
        <time>2018-09-09T11:59:46Z</time>
      </trkpt>
      <trkpt lat="43.68273" lon="3.18227">
        <ele>255.85</ele>
        <time>2018-09-09T11:59:55Z</time>
      </trkpt>
      <trkpt lat="43.68276" lon="3.18212">
        <ele>255.85</ele>
        <time>2018-09-09T12:00:08Z</time>
      </trkpt>
      <trkpt lat="43.68277" lon="3.18206">
        <ele>256.33</ele>
        <time>2018-09-09T12:00:13Z</time>
      </trkpt>
      <trkpt lat="43.68281" lon="3.18191">
        <ele>255.37</ele>
        <time>2018-09-09T12:00:25Z</time>
      </trkpt>
      <trkpt lat="43.68286" lon="3.18185">
        <ele>254.89</ele>
        <time>2018-09-09T12:00:32Z</time>
      </trkpt>
      <trkpt lat="43.68291" lon="3.18182">
        <ele>253.44</ele>
        <time>2018-09-09T12:00:38Z</time>
      </trkpt>
      <trkpt lat="43.68298" lon="3.18177">
        <ele>253.44</ele>
        <time>2018-09-09T12:00:46Z</time>
      </trkpt>
      <trkpt lat="43.68306" lon="3.18167">
        <ele>253.93</ele>
        <time>2018-09-09T12:00:58Z</time>
      </trkpt>
      <trkpt lat="43.68307" lon="3.18162">
        <ele>254.41</ele>
        <time>2018-09-09T12:01:02Z</time>
      </trkpt>
      <trkpt lat="43.68307" lon="3.18153">
        <ele>254.41</ele>
        <time>2018-09-09T12:01:08Z</time>
      </trkpt>
      <trkpt lat="43.68311" lon="3.18144">
        <ele>252.48</ele>
        <time>2018-09-09T12:01:16Z</time>
      </trkpt>
      <trkpt lat="43.68314" lon="3.18141">
        <ele>251.52</ele>
        <time>2018-09-09T12:01:20Z</time>
      </trkpt>
      <trkpt lat="43.68323" lon="3.18134">
        <ele>250.56</ele>
        <time>2018-09-09T12:01:33Z</time>
      </trkpt>
      <trkpt lat="43.68329" lon="3.18131">
        <ele>252</ele>
        <time>2018-09-09T12:01:45Z</time>
      </trkpt>
      <trkpt lat="43.68336" lon="3.1813">
        <ele>252.96</ele>
        <time>2018-09-09T12:01:57Z</time>
      </trkpt>
      <trkpt lat="43.68347" lon="3.18124">
        <ele>253.93</ele>
        <time>2018-09-09T12:02:11Z</time>
      </trkpt>
      <trkpt lat="43.68358" lon="3.18118">
        <ele>252.48</ele>
        <time>2018-09-09T12:02:25Z</time>
      </trkpt>
      <trkpt lat="43.68367" lon="3.18114">
        <ele>250.08</ele>
        <time>2018-09-09T12:02:38Z</time>
      </trkpt>
      <trkpt lat="43.68379" lon="3.18108">
        <ele>249.6</ele>
        <time>2018-09-09T12:02:53Z</time>
      </trkpt>
      <trkpt lat="43.68379" lon="3.18099">
        <ele>248.64</ele>
        <time>2018-09-09T12:03:06Z</time>
      </trkpt>
      <trkpt lat="43.6838" lon="3.1809">
        <ele>247.68</ele>
        <time>2018-09-09T12:03:11Z</time>
      </trkpt>
      <trkpt lat="43.68379" lon="3.18087">
        <ele>248.16</ele>
        <time>2018-09-09T12:03:14Z</time>
      </trkpt>
      <trkpt lat="43.68379" lon="3.18082">
        <ele>247.68</ele>
        <time>2018-09-09T12:03:17Z</time>
      </trkpt>
      <trkpt lat="43.6838" lon="3.18074">
        <ele>248.16</ele>
        <time>2018-09-09T12:03:24Z</time>
      </trkpt>
      <trkpt lat="43.68381" lon="3.18065">
        <ele>248.64</ele>
        <time>2018-09-09T12:03:31Z</time>
      </trkpt>
      <trkpt lat="43.68382" lon="3.1806">
        <ele>249.6</ele>
        <time>2018-09-09T12:03:33Z</time>
      </trkpt>
      <trkpt lat="43.68391" lon="3.18046">
        <ele>249.6</ele>
        <time>2018-09-09T12:03:47Z</time>
      </trkpt>
      <trkpt lat="43.68397" lon="3.18042">
        <ele>249.6</ele>
        <time>2018-09-09T12:03:53Z</time>
      </trkpt>
      <trkpt lat="43.6841" lon="3.18033">
        <ele>250.56</ele>
        <time>2018-09-09T12:04:08Z</time>
      </trkpt>
      <trkpt lat="43.68414" lon="3.18031">
        <ele>250.56</ele>
        <time>2018-09-09T12:04:11Z</time>
      </trkpt>
      <trkpt lat="43.68428" lon="3.18023">
        <ele>250.56</ele>
        <time>2018-09-09T12:04:26Z</time>
      </trkpt>
      <trkpt lat="43.68429" lon="3.18022">
        <ele>250.56</ele>
        <time>2018-09-09T12:04:27Z</time>
      </trkpt>
      <trkpt lat="43.68431" lon="3.18021">
        <ele>250.56</ele>
        <time>2018-09-09T12:04:29Z</time>
      </trkpt>
      <trkpt lat="43.68443" lon="3.18014">
        <ele>250.08</ele>
        <time>2018-09-09T12:04:42Z</time>
      </trkpt>
      <trkpt lat="43.68445" lon="3.18013">
        <ele>250.56</ele>
        <time>2018-09-09T12:04:44Z</time>
      </trkpt>
      <trkpt lat="43.68456" lon="3.18008">
        <ele>249.12</ele>
        <time>2018-09-09T12:04:56Z</time>
      </trkpt>
      <trkpt lat="43.68464" lon="3.18004">
        <ele>250.08</ele>
        <time>2018-09-09T12:05:08Z</time>
      </trkpt>
      <trkpt lat="43.68463" lon="3.18004">
        <ele>250.08</ele>
        <time>2018-09-09T12:05:30Z</time>
      </trkpt>
      <trkpt lat="43.68464" lon="3.18005">
        <ele>250.56</ele>
        <time>2018-09-09T12:05:40Z</time>
      </trkpt>
      <trkpt lat="43.68468" lon="3.18007">
        <ele>250.08</ele>
        <time>2018-09-09T12:05:43Z</time>
      </trkpt>
      <trkpt lat="43.68482" lon="3.17996">
        <ele>249.12</ele>
        <time>2018-09-09T12:05:57Z</time>
      </trkpt>
      <trkpt lat="43.68484" lon="3.17993">
        <ele>249.12</ele>
        <time>2018-09-09T12:06:02Z</time>
      </trkpt>
      <trkpt lat="43.68489" lon="3.17986">
        <ele>249.12</ele>
        <time>2018-09-09T12:06:07Z</time>
      </trkpt>
      <trkpt lat="43.68493" lon="3.17974">
        <ele>249.12</ele>
        <time>2018-09-09T12:06:15Z</time>
      </trkpt>
      <trkpt lat="43.6849" lon="3.17965">
        <ele>250.56</ele>
        <time>2018-09-09T12:06:22Z</time>
      </trkpt>
      <trkpt lat="43.68488" lon="3.1796">
        <ele>249.6</ele>
        <time>2018-09-09T12:06:25Z</time>
      </trkpt>
      <trkpt lat="43.68487" lon="3.17951">
        <ele>249.12</ele>
        <time>2018-09-09T12:06:29Z</time>
      </trkpt>
      <trkpt lat="43.68486" lon="3.17948">
        <ele>249.12</ele>
        <time>2018-09-09T12:06:31Z</time>
      </trkpt>
      <trkpt lat="43.68484" lon="3.17945">
        <ele>249.12</ele>
        <time>2018-09-09T12:06:35Z</time>
      </trkpt>
      <trkpt lat="43.68482" lon="3.17941">
        <ele>248.64</ele>
        <time>2018-09-09T12:06:38Z</time>
      </trkpt>
      <trkpt lat="43.68481" lon="3.17938">
        <ele>248.16</ele>
        <time>2018-09-09T12:06:40Z</time>
      </trkpt>
      <trkpt lat="43.68477" lon="3.17922">
        <ele>246.72</ele>
        <time>2018-09-09T12:06:52Z</time>
      </trkpt>
      <trkpt lat="43.68477" lon="3.17916">
        <ele>247.2</ele>
        <time>2018-09-09T12:06:57Z</time>
      </trkpt>
      <trkpt lat="43.68475" lon="3.17914">
        <ele>247.68</ele>
        <time>2018-09-09T12:07:09Z</time>
      </trkpt>
      <trkpt lat="43.6847" lon="3.17913">
        <ele>247.68</ele>
        <time>2018-09-09T12:07:23Z</time>
      </trkpt>
      <trkpt lat="43.68472" lon="3.17913">
        <ele>247.68</ele>
        <time>2018-09-09T12:07:36Z</time>
      </trkpt>
      <trkpt lat="43.68456" lon="3.17914">
        <ele>245.75</ele>
        <time>2018-09-09T12:07:51Z</time>
      </trkpt>
      <trkpt lat="43.6845" lon="3.17914">
        <ele>245.75</ele>
        <time>2018-09-09T12:07:57Z</time>
      </trkpt>
      <trkpt lat="43.68451" lon="3.17913">
        <ele>245.27</ele>
        <time>2018-09-09T12:08:09Z</time>
      </trkpt>
      <trkpt lat="43.68451" lon="3.17912">
        <ele>245.27</ele>
        <time>2018-09-09T12:08:19Z</time>
      </trkpt>
      <trkpt lat="43.68447" lon="3.1791">
        <ele>245.75</ele>
        <time>2018-09-09T12:08:24Z</time>
      </trkpt>
      <trkpt lat="43.68437" lon="3.17904">
        <ele>244.31</ele>
        <time>2018-09-09T12:08:39Z</time>
      </trkpt>
      <trkpt lat="43.68437" lon="3.17906">
        <ele>244.31</ele>
        <time>2018-09-09T12:08:52Z</time>
      </trkpt>
      <trkpt lat="43.68435" lon="3.17907">
        <ele>243.83</ele>
        <time>2018-09-09T12:09:06Z</time>
      </trkpt>
      <trkpt lat="43.68428" lon="3.17906">
        <ele>243.83</ele>
        <time>2018-09-09T12:09:19Z</time>
      </trkpt>
      <trkpt lat="43.68421" lon="3.17903">
        <ele>244.31</ele>
        <time>2018-09-09T12:09:32Z</time>
      </trkpt>
      <trkpt lat="43.68418" lon="3.179">
        <ele>243.83</ele>
        <time>2018-09-09T12:09:49Z</time>
      </trkpt>
      <trkpt lat="43.68413" lon="3.17895">
        <ele>243.83</ele>
        <time>2018-09-09T12:10:00Z</time>
      </trkpt>
      <trkpt lat="43.68405" lon="3.17892">
        <ele>244.31</ele>
        <time>2018-09-09T12:10:07Z</time>
      </trkpt>
      <trkpt lat="43.68398" lon="3.17878">
        <ele>243.83</ele>
        <time>2018-09-09T12:10:18Z</time>
      </trkpt>
      <trkpt lat="43.68392" lon="3.17873">
        <ele>242.39</ele>
        <time>2018-09-09T12:10:24Z</time>
      </trkpt>
      <trkpt lat="43.68388" lon="3.17871">
        <ele>241.43</ele>
        <time>2018-09-09T12:10:28Z</time>
      </trkpt>
      <trkpt lat="43.68382" lon="3.17865">
        <ele>240.47</ele>
        <time>2018-09-09T12:10:33Z</time>
      </trkpt>
      <trkpt lat="43.68378" lon="3.17856">
        <ele>239.99</ele>
        <time>2018-09-09T12:10:46Z</time>
      </trkpt>
      <trkpt lat="43.68379" lon="3.17856">
        <ele>239.02</ele>
        <time>2018-09-09T12:11:23Z</time>
      </trkpt>
      <trkpt lat="43.6838" lon="3.17864">
        <ele>239.51</ele>
        <time>2018-09-09T12:11:28Z</time>
      </trkpt>
      <trkpt lat="43.68408" lon="3.1786">
        <ele>243.35</ele>
        <time>2018-09-09T12:11:43Z</time>
      </trkpt>
      <trkpt lat="43.68413" lon="3.17859">
        <ele>244.31</ele>
        <time>2018-09-09T12:11:46Z</time>
      </trkpt>
      <trkpt lat="43.68415" lon="3.17851">
        <ele>245.27</ele>
        <time>2018-09-09T12:11:52Z</time>
      </trkpt>
      <trkpt lat="43.68412" lon="3.17844">
        <ele>243.35</ele>
        <time>2018-09-09T12:12:03Z</time>
      </trkpt>
      <trkpt lat="43.68415" lon="3.17843">
        <ele>243.35</ele>
        <time>2018-09-09T12:12:16Z</time>
      </trkpt>
      <trkpt lat="43.68419" lon="3.17841">
        <ele>242.39</ele>
        <time>2018-09-09T12:12:22Z</time>
      </trkpt>
      <trkpt lat="43.68427" lon="3.1784">
        <ele>243.35</ele>
        <time>2018-09-09T12:12:32Z</time>
      </trkpt>
      <trkpt lat="43.68432" lon="3.17839">
        <ele>242.87</ele>
        <time>2018-09-09T12:12:38Z</time>
      </trkpt>
      <trkpt lat="43.68445" lon="3.17834">
        <ele>242.39</ele>
        <time>2018-09-09T12:12:52Z</time>
      </trkpt>
      <trkpt lat="43.68451" lon="3.17832">
        <ele>242.39</ele>
        <time>2018-09-09T12:12:58Z</time>
      </trkpt>
      <trkpt lat="43.68462" lon="3.17827">
        <ele>242.87</ele>
        <time>2018-09-09T12:13:10Z</time>
      </trkpt>
      <trkpt lat="43.6847" lon="3.17825">
        <ele>242.87</ele>
        <time>2018-09-09T12:13:18Z</time>
      </trkpt>
      <trkpt lat="43.68473" lon="3.17824">
        <ele>242.87</ele>
        <time>2018-09-09T12:13:21Z</time>
      </trkpt>
      <trkpt lat="43.68483" lon="3.17817">
        <ele>243.83</ele>
        <time>2018-09-09T12:13:32Z</time>
      </trkpt>
      <trkpt lat="43.68496" lon="3.17813">
        <ele>244.79</ele>
        <time>2018-09-09T12:13:45Z</time>
      </trkpt>
      <trkpt lat="43.68504" lon="3.17809">
        <ele>243.83</ele>
        <time>2018-09-09T12:13:56Z</time>
      </trkpt>
      <trkpt lat="43.68513" lon="3.17808">
        <ele>242.87</ele>
        <time>2018-09-09T12:14:05Z</time>
      </trkpt>
      <trkpt lat="43.6852" lon="3.17804">
        <ele>243.83</ele>
        <time>2018-09-09T12:14:19Z</time>
      </trkpt>
      <trkpt lat="43.6852" lon="3.17804">
        <ele>243.83</ele>
        <time>2018-09-09T12:14:34Z</time>
      </trkpt>
      <trkpt lat="43.68522" lon="3.17805">
        <ele>243.83</ele>
        <time>2018-09-09T12:14:40Z</time>
      </trkpt>
      <trkpt lat="43.68537" lon="3.17804">
        <ele>244.79</ele>
        <time>2018-09-09T12:14:54Z</time>
      </trkpt>
      <trkpt lat="43.68557" lon="3.17798">
        <ele>243.35</ele>
        <time>2018-09-09T12:15:10Z</time>
      </trkpt>
      <trkpt lat="43.68564" lon="3.17797">
        <ele>244.31</ele>
        <time>2018-09-09T12:15:18Z</time>
      </trkpt>
      <trkpt lat="43.68578" lon="3.17796">
        <ele>244.79</ele>
        <time>2018-09-09T12:15:32Z</time>
      </trkpt>
      <trkpt lat="43.68584" lon="3.17795">
        <ele>245.75</ele>
        <time>2018-09-09T12:15:39Z</time>
      </trkpt>
      <trkpt lat="43.68586" lon="3.17794">
        <ele>245.75</ele>
        <time>2018-09-09T12:15:41Z</time>
      </trkpt>
      <trkpt lat="43.68592" lon="3.17789">
        <ele>246.23</ele>
        <time>2018-09-09T12:15:47Z</time>
      </trkpt>
      <trkpt lat="43.68597" lon="3.17785">
        <ele>246.72</ele>
        <time>2018-09-09T12:15:54Z</time>
      </trkpt>
      <trkpt lat="43.686" lon="3.17782">
        <ele>246.72</ele>
        <time>2018-09-09T12:15:57Z</time>
      </trkpt>
      <trkpt lat="43.68612" lon="3.17779">
        <ele>247.2</ele>
        <time>2018-09-09T12:16:08Z</time>
      </trkpt>
      <trkpt lat="43.6862" lon="3.17775">
        <ele>246.72</ele>
        <time>2018-09-09T12:16:17Z</time>
      </trkpt>
      <trkpt lat="43.68628" lon="3.17771">
        <ele>246.72</ele>
        <time>2018-09-09T12:16:25Z</time>
      </trkpt>
      <trkpt lat="43.68632" lon="3.1777">
        <ele>246.72</ele>
        <time>2018-09-09T12:16:28Z</time>
      </trkpt>
      <trkpt lat="43.68637" lon="3.17767">
        <ele>247.2</ele>
        <time>2018-09-09T12:16:32Z</time>
      </trkpt>
      <trkpt lat="43.6864" lon="3.17765">
        <ele>247.68</ele>
        <time>2018-09-09T12:16:37Z</time>
      </trkpt>
      <trkpt lat="43.68654" lon="3.17761">
        <ele>246.72</ele>
        <time>2018-09-09T12:16:51Z</time>
      </trkpt>
      <trkpt lat="43.68664" lon="3.17753">
        <ele>246.72</ele>
        <time>2018-09-09T12:17:03Z</time>
      </trkpt>
      <trkpt lat="43.68665" lon="3.1775">
        <ele>246.23</ele>
        <time>2018-09-09T12:17:05Z</time>
      </trkpt>
      <trkpt lat="43.68674" lon="3.17742">
        <ele>246.72</ele>
        <time>2018-09-09T12:17:12Z</time>
      </trkpt>
      <trkpt lat="43.68683" lon="3.17736">
        <ele>247.68</ele>
        <time>2018-09-09T12:17:18Z</time>
      </trkpt>
      <trkpt lat="43.6869" lon="3.17735">
        <ele>249.6</ele>
        <time>2018-09-09T12:17:29Z</time>
      </trkpt>
      <trkpt lat="43.68695" lon="3.17734">
        <ele>249.6</ele>
        <time>2018-09-09T12:17:33Z</time>
      </trkpt>
      <trkpt lat="43.6871" lon="3.17735">
        <ele>249.6</ele>
        <time>2018-09-09T12:17:45Z</time>
      </trkpt>
      <trkpt lat="43.6872" lon="3.17735">
        <ele>249.12</ele>
        <time>2018-09-09T12:17:53Z</time>
      </trkpt>
      <trkpt lat="43.68726" lon="3.17734">
        <ele>250.08</ele>
        <time>2018-09-09T12:18:00Z</time>
      </trkpt>
      <trkpt lat="43.68737" lon="3.17735">
        <ele>250.56</ele>
        <time>2018-09-09T12:18:10Z</time>
      </trkpt>
      <trkpt lat="43.68745" lon="3.17736">
        <ele>249.6</ele>
        <time>2018-09-09T12:18:16Z</time>
      </trkpt>
      <trkpt lat="43.68764" lon="3.17736">
        <ele>252.96</ele>
        <time>2018-09-09T12:18:28Z</time>
      </trkpt>
      <trkpt lat="43.68776" lon="3.17732">
        <ele>252.48</ele>
        <time>2018-09-09T12:18:41Z</time>
      </trkpt>
      <trkpt lat="43.68782" lon="3.17732">
        <ele>251.04</ele>
        <time>2018-09-09T12:18:55Z</time>
      </trkpt>
      <trkpt lat="43.68789" lon="3.17732">
        <ele>251.04</ele>
        <time>2018-09-09T12:19:01Z</time>
      </trkpt>
      <trkpt lat="43.68805" lon="3.17731">
        <ele>251.04</ele>
        <time>2018-09-09T12:19:16Z</time>
      </trkpt>
      <trkpt lat="43.68823" lon="3.17729">
        <ele>251.04</ele>
        <time>2018-09-09T12:19:30Z</time>
      </trkpt>
      <trkpt lat="43.68839" lon="3.17722">
        <ele>250.56</ele>
        <time>2018-09-09T12:19:45Z</time>
      </trkpt>
      <trkpt lat="43.68841" lon="3.17721">
        <ele>250.56</ele>
        <time>2018-09-09T12:19:48Z</time>
      </trkpt>
      <trkpt lat="43.68846" lon="3.17719">
        <ele>250.56</ele>
        <time>2018-09-09T12:19:53Z</time>
      </trkpt>
      <trkpt lat="43.68859" lon="3.17716">
        <ele>249.6</ele>
        <time>2018-09-09T12:20:06Z</time>
      </trkpt>
      <trkpt lat="43.68874" lon="3.17709">
        <ele>246.72</ele>
        <time>2018-09-09T12:20:21Z</time>
      </trkpt>
      <trkpt lat="43.68886" lon="3.17698">
        <ele>244.31</ele>
        <time>2018-09-09T12:20:36Z</time>
      </trkpt>
      <trkpt lat="43.68893" lon="3.17692">
        <ele>244.79</ele>
        <time>2018-09-09T12:20:45Z</time>
      </trkpt>
      <trkpt lat="43.68904" lon="3.17687">
        <ele>245.75</ele>
        <time>2018-09-09T12:20:55Z</time>
      </trkpt>
      <trkpt lat="43.68905" lon="3.17686">
        <ele>246.23</ele>
        <time>2018-09-09T12:20:57Z</time>
      </trkpt>
      <trkpt lat="43.68911" lon="3.1768">
        <ele>246.72</ele>
        <time>2018-09-09T12:21:06Z</time>
      </trkpt>
      <trkpt lat="43.68918" lon="3.17671">
        <ele>247.2</ele>
        <time>2018-09-09T12:21:17Z</time>
      </trkpt>
      <trkpt lat="43.68926" lon="3.17665">
        <ele>249.12</ele>
        <time>2018-09-09T12:21:30Z</time>
      </trkpt>
      <trkpt lat="43.68936" lon="3.17666">
        <ele>247.68</ele>
        <time>2018-09-09T12:21:40Z</time>
      </trkpt>
      <trkpt lat="43.68934" lon="3.1767">
        <ele>247.2</ele>
        <time>2018-09-09T12:21:52Z</time>
      </trkpt>
      <trkpt lat="43.68937" lon="3.17667">
        <ele>247.2</ele>
        <time>2018-09-09T12:22:05Z</time>
      </trkpt>
      <trkpt lat="43.68938" lon="3.17673">
        <ele>248.16</ele>
        <time>2018-09-09T12:22:17Z</time>
      </trkpt>
      <trkpt lat="43.6894" lon="3.1768">
        <ele>248.16</ele>
        <time>2018-09-09T12:22:23Z</time>
      </trkpt>
      <trkpt lat="43.68942" lon="3.17706">
        <ele>247.68</ele>
        <time>2018-09-09T12:22:41Z</time>
      </trkpt>
      <trkpt lat="43.68944" lon="3.17717">
        <ele>246.72</ele>
        <time>2018-09-09T12:22:55Z</time>
      </trkpt>
      <trkpt lat="43.68944" lon="3.17718">
        <ele>246.72</ele>
        <time>2018-09-09T12:22:58Z</time>
      </trkpt>
      <trkpt lat="43.68946" lon="3.17724">
        <ele>246.23</ele>
        <time>2018-09-09T12:23:02Z</time>
      </trkpt>
      <trkpt lat="43.68946" lon="3.17728">
        <ele>246.72</ele>
        <time>2018-09-09T12:23:04Z</time>
      </trkpt>
      <trkpt lat="43.68952" lon="3.17752">
        <ele>249.12</ele>
        <time>2018-09-09T12:23:23Z</time>
      </trkpt>
      <trkpt lat="43.68961" lon="3.17765">
        <ele>250.08</ele>
        <time>2018-09-09T12:23:36Z</time>
      </trkpt>
      <trkpt lat="43.68965" lon="3.17773">
        <ele>249.6</ele>
        <time>2018-09-09T12:23:40Z</time>
      </trkpt>
      <trkpt lat="43.68968" lon="3.17778">
        <ele>249.6</ele>
        <time>2018-09-09T12:23:43Z</time>
      </trkpt>
      <trkpt lat="43.68972" lon="3.17784">
        <ele>249.12</ele>
        <time>2018-09-09T12:23:50Z</time>
      </trkpt>
      <trkpt lat="43.68977" lon="3.17793">
        <ele>249.12</ele>
        <time>2018-09-09T12:23:56Z</time>
      </trkpt>
      <trkpt lat="43.68985" lon="3.1781">
        <ele>251.04</ele>
        <time>2018-09-09T12:24:09Z</time>
      </trkpt>
      <trkpt lat="43.68987" lon="3.17813">
        <ele>251.52</ele>
        <time>2018-09-09T12:24:12Z</time>
      </trkpt>
      <trkpt lat="43.6899" lon="3.17818">
        <ele>252</ele>
        <time>2018-09-09T12:24:16Z</time>
      </trkpt>
      <trkpt lat="43.68993" lon="3.17825">
        <ele>251.04</ele>
        <time>2018-09-09T12:24:22Z</time>
      </trkpt>
      <trkpt lat="43.68999" lon="3.17833">
        <ele>250.56</ele>
        <time>2018-09-09T12:24:28Z</time>
      </trkpt>
      <trkpt lat="43.69006" lon="3.17841">
        <ele>250.56</ele>
        <time>2018-09-09T12:24:38Z</time>
      </trkpt>
      <trkpt lat="43.6901" lon="3.17845">
        <ele>250.56</ele>
        <time>2018-09-09T12:24:43Z</time>
      </trkpt>
      <trkpt lat="43.69011" lon="3.17846">
        <ele>250.56</ele>
        <time>2018-09-09T12:24:47Z</time>
      </trkpt>
      <trkpt lat="43.69014" lon="3.17849">
        <ele>250.08</ele>
        <time>2018-09-09T12:24:56Z</time>
      </trkpt>
      <trkpt lat="43.69023" lon="3.1786">
        <ele>248.64</ele>
        <time>2018-09-09T12:25:07Z</time>
      </trkpt>
      <trkpt lat="43.69024" lon="3.17865">
        <ele>248.64</ele>
        <time>2018-09-09T12:25:10Z</time>
      </trkpt>
      <trkpt lat="43.69031" lon="3.17877">
        <ele>248.16</ele>
        <time>2018-09-09T12:25:20Z</time>
      </trkpt>
      <trkpt lat="43.69035" lon="3.17886">
        <ele>249.12</ele>
        <time>2018-09-09T12:25:27Z</time>
      </trkpt>
      <trkpt lat="43.69045" lon="3.17897">
        <ele>249.12</ele>
        <time>2018-09-09T12:25:40Z</time>
      </trkpt>
      <trkpt lat="43.69046" lon="3.17898">
        <ele>248.64</ele>
        <time>2018-09-09T12:25:42Z</time>
      </trkpt>
      <trkpt lat="43.69052" lon="3.17903">
        <ele>248.64</ele>
        <time>2018-09-09T12:25:53Z</time>
      </trkpt>
      <trkpt lat="43.69059" lon="3.1791">
        <ele>251.04</ele>
        <time>2018-09-09T12:26:04Z</time>
      </trkpt>
      <trkpt lat="43.69069" lon="3.1792">
        <ele>250.08</ele>
        <time>2018-09-09T12:26:18Z</time>
      </trkpt>
      <trkpt lat="43.6907" lon="3.1792">
        <ele>250.08</ele>
        <time>2018-09-09T12:26:19Z</time>
      </trkpt>
      <trkpt lat="43.69075" lon="3.17925">
        <ele>249.12</ele>
        <time>2018-09-09T12:26:29Z</time>
      </trkpt>
      <trkpt lat="43.69077" lon="3.17927">
        <ele>248.16</ele>
        <time>2018-09-09T12:26:33Z</time>
      </trkpt>
      <trkpt lat="43.69082" lon="3.17934">
        <ele>246.72</ele>
        <time>2018-09-09T12:26:40Z</time>
      </trkpt>
      <trkpt lat="43.69087" lon="3.17943">
        <ele>248.64</ele>
        <time>2018-09-09T12:26:50Z</time>
      </trkpt>
      <trkpt lat="43.69093" lon="3.17951">
        <ele>250.08</ele>
        <time>2018-09-09T12:26:59Z</time>
      </trkpt>
      <trkpt lat="43.69096" lon="3.17954">
        <ele>250.56</ele>
        <time>2018-09-09T12:27:02Z</time>
      </trkpt>
      <trkpt lat="43.69102" lon="3.17964">
        <ele>253.44</ele>
        <time>2018-09-09T12:27:13Z</time>
      </trkpt>
      <trkpt lat="43.69106" lon="3.17975">
        <ele>254.89</ele>
        <time>2018-09-09T12:27:22Z</time>
      </trkpt>
      <trkpt lat="43.69109" lon="3.17987">
        <ele>257.29</ele>
        <time>2018-09-09T12:27:32Z</time>
      </trkpt>
      <trkpt lat="43.6911" lon="3.18">
        <ele>259.69</ele>
        <time>2018-09-09T12:27:42Z</time>
      </trkpt>
      <trkpt lat="43.69113" lon="3.18015">
        <ele>260.17</ele>
        <time>2018-09-09T12:27:52Z</time>
      </trkpt>
      <trkpt lat="43.69115" lon="3.18027">
        <ele>261.14</ele>
        <time>2018-09-09T12:28:01Z</time>
      </trkpt>
      <trkpt lat="43.69122" lon="3.18033">
        <ele>261.62</ele>
        <time>2018-09-09T12:28:10Z</time>
      </trkpt>
      <trkpt lat="43.69127" lon="3.18036">
        <ele>261.14</ele>
        <time>2018-09-09T12:28:14Z</time>
      </trkpt>
      <trkpt lat="43.69134" lon="3.18036">
        <ele>260.17</ele>
        <time>2018-09-09T12:28:26Z</time>
      </trkpt>
      <trkpt lat="43.69139" lon="3.18035">
        <ele>261.14</ele>
        <time>2018-09-09T12:28:31Z</time>
      </trkpt>
      <trkpt lat="43.69148" lon="3.18033">
        <ele>264.5</ele>
        <time>2018-09-09T12:28:42Z</time>
      </trkpt>
      <trkpt lat="43.69154" lon="3.18032">
        <ele>266.9</ele>
        <time>2018-09-09T12:28:51Z</time>
      </trkpt>
      <trkpt lat="43.69157" lon="3.18035">
        <ele>266.9</ele>
        <time>2018-09-09T12:29:01Z</time>
      </trkpt>
      <trkpt lat="43.69157" lon="3.18034">
        <ele>266.42</ele>
        <time>2018-09-09T12:29:24Z</time>
      </trkpt>
      <trkpt lat="43.69158" lon="3.18034">
        <ele>265.94</ele>
        <time>2018-09-09T12:29:33Z</time>
      </trkpt>
      <trkpt lat="43.69161" lon="3.18035">
        <ele>264.98</ele>
        <time>2018-09-09T12:29:40Z</time>
      </trkpt>
      <trkpt lat="43.69166" lon="3.18037">
        <ele>265.46</ele>
        <time>2018-09-09T12:29:54Z</time>
      </trkpt>
      <trkpt lat="43.69167" lon="3.18037">
        <ele>264.98</ele>
        <time>2018-09-09T12:30:04Z</time>
      </trkpt>
      <trkpt lat="43.69178" lon="3.1804">
        <ele>264.5</ele>
        <time>2018-09-09T12:30:14Z</time>
      </trkpt>
      <trkpt lat="43.6918" lon="3.1804">
        <ele>265.94</ele>
        <time>2018-09-09T12:30:18Z</time>
      </trkpt>
      <trkpt lat="43.69191" lon="3.18047">
        <ele>266.42</ele>
        <time>2018-09-09T12:30:29Z</time>
      </trkpt>
      <trkpt lat="43.69197" lon="3.18048">
        <ele>266.9</ele>
        <time>2018-09-09T12:30:35Z</time>
      </trkpt>
      <trkpt lat="43.69211" lon="3.18051">
        <ele>264.5</ele>
        <time>2018-09-09T12:30:49Z</time>
      </trkpt>
      <trkpt lat="43.69224" lon="3.18058">
        <ele>264.5</ele>
        <time>2018-09-09T12:31:00Z</time>
      </trkpt>
      <trkpt lat="43.69233" lon="3.18063">
        <ele>265.94</ele>
        <time>2018-09-09T12:31:11Z</time>
      </trkpt>
      <trkpt lat="43.69242" lon="3.18065">
        <ele>265.46</ele>
        <time>2018-09-09T12:31:23Z</time>
      </trkpt>
      <trkpt lat="43.69241" lon="3.18066">
        <ele>265.46</ele>
        <time>2018-09-09T12:31:38Z</time>
      </trkpt>
      <trkpt lat="43.69242" lon="3.18067">
        <ele>264.98</ele>
        <time>2018-09-09T12:31:41Z</time>
      </trkpt>
      <trkpt lat="43.69247" lon="3.1807">
        <ele>265.46</ele>
        <time>2018-09-09T12:31:52Z</time>
      </trkpt>
      <trkpt lat="43.69248" lon="3.18069">
        <ele>265.46</ele>
        <time>2018-09-09T12:32:03Z</time>
      </trkpt>
      <trkpt lat="43.6925" lon="3.18069">
        <ele>265.46</ele>
        <time>2018-09-09T12:32:13Z</time>
      </trkpt>
      <trkpt lat="43.69257" lon="3.18068">
        <ele>267.38</ele>
        <time>2018-09-09T12:32:22Z</time>
      </trkpt>
      <trkpt lat="43.69266" lon="3.18064">
        <ele>268.83</ele>
        <time>2018-09-09T12:32:31Z</time>
      </trkpt>
      <trkpt lat="43.69275" lon="3.18063">
        <ele>268.83</ele>
        <time>2018-09-09T12:32:43Z</time>
      </trkpt>
      <trkpt lat="43.69283" lon="3.18062">
        <ele>269.31</ele>
        <time>2018-09-09T12:32:52Z</time>
      </trkpt>
      <trkpt lat="43.69285" lon="3.18062">
        <ele>269.31</ele>
        <time>2018-09-09T12:32:54Z</time>
      </trkpt>
      <trkpt lat="43.69293" lon="3.18058">
        <ele>270.75</ele>
        <time>2018-09-09T12:33:06Z</time>
      </trkpt>
      <trkpt lat="43.69294" lon="3.18058">
        <ele>270.27</ele>
        <time>2018-09-09T12:33:09Z</time>
      </trkpt>
      <trkpt lat="43.69297" lon="3.18059">
        <ele>271.23</ele>
        <time>2018-09-09T12:33:13Z</time>
      </trkpt>
      <trkpt lat="43.69305" lon="3.1806">
        <ele>272.67</ele>
        <time>2018-09-09T12:33:25Z</time>
      </trkpt>
      <trkpt lat="43.69305" lon="3.1806">
        <ele>272.67</ele>
        <time>2018-09-09T12:33:26Z</time>
      </trkpt>
      <trkpt lat="43.69315" lon="3.18062">
        <ele>273.63</ele>
        <time>2018-09-09T12:33:36Z</time>
      </trkpt>
      <trkpt lat="43.69324" lon="3.18068">
        <ele>274.59</ele>
        <time>2018-09-09T12:33:46Z</time>
      </trkpt>
      <trkpt lat="43.69332" lon="3.18074">
        <ele>273.63</ele>
        <time>2018-09-09T12:33:57Z</time>
      </trkpt>
      <trkpt lat="43.69332" lon="3.18074">
        <ele>273.63</ele>
        <time>2018-09-09T12:33:58Z</time>
      </trkpt>
      <trkpt lat="43.69337" lon="3.18075">
        <ele>273.63</ele>
        <time>2018-09-09T12:34:02Z</time>
      </trkpt>
      <trkpt lat="43.69345" lon="3.18072">
        <ele>272.19</ele>
        <time>2018-09-09T12:34:12Z</time>
      </trkpt>
      <trkpt lat="43.69353" lon="3.18069">
        <ele>273.15</ele>
        <time>2018-09-09T12:34:25Z</time>
      </trkpt>
      <trkpt lat="43.69362" lon="3.18073">
        <ele>274.59</ele>
        <time>2018-09-09T12:34:37Z</time>
      </trkpt>
      <trkpt lat="43.69364" lon="3.18077">
        <ele>274.59</ele>
        <time>2018-09-09T12:34:40Z</time>
      </trkpt>
      <trkpt lat="43.69366" lon="3.18084">
        <ele>274.59</ele>
        <time>2018-09-09T12:34:50Z</time>
      </trkpt>
      <trkpt lat="43.69368" lon="3.18084">
        <ele>276.04</ele>
        <time>2018-09-09T12:35:02Z</time>
      </trkpt>
      <trkpt lat="43.69369" lon="3.18087">
        <ele>276.52</ele>
        <time>2018-09-09T12:35:17Z</time>
      </trkpt>
      <trkpt lat="43.69372" lon="3.18094">
        <ele>276.04</ele>
        <time>2018-09-09T12:35:24Z</time>
      </trkpt>
      <trkpt lat="43.69376" lon="3.18101">
        <ele>276.52</ele>
        <time>2018-09-09T12:35:35Z</time>
      </trkpt>
      <trkpt lat="43.6938" lon="3.18109">
        <ele>277</ele>
        <time>2018-09-09T12:35:49Z</time>
      </trkpt>
      <trkpt lat="43.69384" lon="3.18117">
        <ele>277.96</ele>
        <time>2018-09-09T12:35:59Z</time>
      </trkpt>
      <trkpt lat="43.69387" lon="3.18122">
        <ele>278.92</ele>
        <time>2018-09-09T12:36:09Z</time>
      </trkpt>
      <trkpt lat="43.69389" lon="3.18128">
        <ele>278.92</ele>
        <time>2018-09-09T12:36:23Z</time>
      </trkpt>
      <trkpt lat="43.6939" lon="3.18128">
        <ele>278.92</ele>
        <time>2018-09-09T12:36:24Z</time>
      </trkpt>
      <trkpt lat="43.69392" lon="3.18135">
        <ele>281.32</ele>
        <time>2018-09-09T12:36:33Z</time>
      </trkpt>
      <trkpt lat="43.69392" lon="3.18142">
        <ele>282.77</ele>
        <time>2018-09-09T12:36:45Z</time>
      </trkpt>
      <trkpt lat="43.69393" lon="3.18148">
        <ele>284.21</ele>
        <time>2018-09-09T12:36:58Z</time>
      </trkpt>
      <trkpt lat="43.69394" lon="3.18154">
        <ele>285.65</ele>
        <time>2018-09-09T12:37:09Z</time>
      </trkpt>
      <trkpt lat="43.69397" lon="3.18157">
        <ele>287.09</ele>
        <time>2018-09-09T12:37:17Z</time>
      </trkpt>
      <trkpt lat="43.69401" lon="3.18163">
        <ele>287.57</ele>
        <time>2018-09-09T12:37:27Z</time>
      </trkpt>
      <trkpt lat="43.69404" lon="3.18168">
        <ele>289.01</ele>
        <time>2018-09-09T12:37:36Z</time>
      </trkpt>
      <trkpt lat="43.69406" lon="3.18175">
        <ele>289.97</ele>
        <time>2018-09-09T12:37:48Z</time>
      </trkpt>
      <trkpt lat="43.69411" lon="3.18183">
        <ele>290.46</ele>
        <time>2018-09-09T12:37:58Z</time>
      </trkpt>
      <trkpt lat="43.69414" lon="3.18188">
        <ele>290.94</ele>
        <time>2018-09-09T12:38:08Z</time>
      </trkpt>
      <trkpt lat="43.69417" lon="3.18194">
        <ele>290.94</ele>
        <time>2018-09-09T12:38:17Z</time>
      </trkpt>
      <trkpt lat="43.69418" lon="3.18196">
        <ele>292.38</ele>
        <time>2018-09-09T12:38:26Z</time>
      </trkpt>
      <trkpt lat="43.69419" lon="3.182">
        <ele>293.82</ele>
        <time>2018-09-09T12:38:34Z</time>
      </trkpt>
      <trkpt lat="43.69421" lon="3.18205">
        <ele>293.82</ele>
        <time>2018-09-09T12:38:44Z</time>
      </trkpt>
      <trkpt lat="43.69423" lon="3.18212">
        <ele>295.74</ele>
        <time>2018-09-09T12:38:54Z</time>
      </trkpt>
      <trkpt lat="43.69424" lon="3.18218">
        <ele>299.11</ele>
        <time>2018-09-09T12:39:03Z</time>
      </trkpt>
      <trkpt lat="43.69423" lon="3.1822">
        <ele>299.59</ele>
        <time>2018-09-09T12:39:07Z</time>
      </trkpt>
      <trkpt lat="43.69422" lon="3.18226">
        <ele>301.99</ele>
        <time>2018-09-09T12:39:17Z</time>
      </trkpt>
      <trkpt lat="43.69421" lon="3.18231">
        <ele>302.47</ele>
        <time>2018-09-09T12:39:30Z</time>
      </trkpt>
      <trkpt lat="43.69419" lon="3.18238">
        <ele>303.43</ele>
        <time>2018-09-09T12:39:40Z</time>
      </trkpt>
      <trkpt lat="43.69419" lon="3.18244">
        <ele>304.88</ele>
        <time>2018-09-09T12:39:50Z</time>
      </trkpt>
      <trkpt lat="43.69417" lon="3.1825">
        <ele>306.32</ele>
        <time>2018-09-09T12:40:02Z</time>
      </trkpt>
      <trkpt lat="43.69417" lon="3.18257">
        <ele>308.24</ele>
        <time>2018-09-09T12:40:12Z</time>
      </trkpt>
      <trkpt lat="43.69417" lon="3.18264">
        <ele>308.24</ele>
        <time>2018-09-09T12:40:23Z</time>
      </trkpt>
      <trkpt lat="43.69415" lon="3.18268">
        <ele>309.2</ele>
        <time>2018-09-09T12:40:32Z</time>
      </trkpt>
      <trkpt lat="43.69415" lon="3.18274">
        <ele>310.64</ele>
        <time>2018-09-09T12:40:41Z</time>
      </trkpt>
      <trkpt lat="43.69414" lon="3.18281">
        <ele>313.53</ele>
        <time>2018-09-09T12:40:52Z</time>
      </trkpt>
      <trkpt lat="43.69413" lon="3.18287">
        <ele>314.01</ele>
        <time>2018-09-09T12:41:02Z</time>
      </trkpt>
      <trkpt lat="43.69411" lon="3.18294">
        <ele>314.97</ele>
        <time>2018-09-09T12:41:14Z</time>
      </trkpt>
      <trkpt lat="43.69413" lon="3.18299">
        <ele>314.97</ele>
        <time>2018-09-09T12:41:23Z</time>
      </trkpt>
      <trkpt lat="43.69415" lon="3.18306">
        <ele>315.45</ele>
        <time>2018-09-09T12:41:34Z</time>
      </trkpt>
      <trkpt lat="43.69415" lon="3.18311">
        <ele>316.41</ele>
        <time>2018-09-09T12:41:43Z</time>
      </trkpt>
      <trkpt lat="43.69418" lon="3.1832">
        <ele>318.81</ele>
        <time>2018-09-09T12:41:56Z</time>
      </trkpt>
      <trkpt lat="43.69417" lon="3.18326">
        <ele>320.74</ele>
        <time>2018-09-09T12:42:08Z</time>
      </trkpt>
      <trkpt lat="43.69417" lon="3.18329">
        <ele>321.7</ele>
        <time>2018-09-09T12:42:19Z</time>
      </trkpt>
      <trkpt lat="43.69418" lon="3.18333">
        <ele>323.14</ele>
        <time>2018-09-09T12:42:29Z</time>
      </trkpt>
      <trkpt lat="43.69418" lon="3.18338">
        <ele>324.1</ele>
        <time>2018-09-09T12:42:41Z</time>
      </trkpt>
      <trkpt lat="43.69418" lon="3.18345">
        <ele>325.54</ele>
        <time>2018-09-09T12:42:52Z</time>
      </trkpt>
      <trkpt lat="43.69418" lon="3.1835">
        <ele>326.02</ele>
        <time>2018-09-09T12:43:03Z</time>
      </trkpt>
      <trkpt lat="43.69418" lon="3.18354">
        <ele>326.99</ele>
        <time>2018-09-09T12:43:10Z</time>
      </trkpt>
      <trkpt lat="43.69419" lon="3.18359">
        <ele>327.47</ele>
        <time>2018-09-09T12:43:18Z</time>
      </trkpt>
      <trkpt lat="43.69419" lon="3.18367">
        <ele>328.91</ele>
        <time>2018-09-09T12:43:30Z</time>
      </trkpt>
      <trkpt lat="43.69419" lon="3.18372">
        <ele>329.87</ele>
        <time>2018-09-09T12:43:41Z</time>
      </trkpt>
      <trkpt lat="43.69419" lon="3.18375">
        <ele>329.87</ele>
        <time>2018-09-09T12:43:53Z</time>
      </trkpt>
      <trkpt lat="43.69419" lon="3.18381">
        <ele>330.83</ele>
        <time>2018-09-09T12:44:04Z</time>
      </trkpt>
      <trkpt lat="43.6942" lon="3.18385">
        <ele>331.31</ele>
        <time>2018-09-09T12:44:17Z</time>
      </trkpt>
      <trkpt lat="43.6942" lon="3.18386">
        <ele>331.79</ele>
        <time>2018-09-09T12:44:47Z</time>
      </trkpt>
      <trkpt lat="43.69419" lon="3.18391">
        <ele>333.23</ele>
        <time>2018-09-09T12:45:15Z</time>
      </trkpt>
      <trkpt lat="43.69418" lon="3.18391">
        <ele>333.71</ele>
        <time>2018-09-09T12:45:27Z</time>
      </trkpt>
      <trkpt lat="43.69418" lon="3.18393">
        <ele>334.2</ele>
        <time>2018-09-09T12:45:40Z</time>
      </trkpt>
      <trkpt lat="43.69417" lon="3.18397">
        <ele>335.16</ele>
        <time>2018-09-09T12:45:52Z</time>
      </trkpt>
      <trkpt lat="43.69415" lon="3.18403">
        <ele>335.16</ele>
        <time>2018-09-09T12:46:02Z</time>
      </trkpt>
      <trkpt lat="43.69411" lon="3.18408">
        <ele>335.64</ele>
        <time>2018-09-09T12:46:08Z</time>
      </trkpt>
      <trkpt lat="43.69408" lon="3.18413">
        <ele>335.64</ele>
        <time>2018-09-09T12:46:18Z</time>
      </trkpt>
      <trkpt lat="43.69401" lon="3.18417">
        <ele>336.6</ele>
        <time>2018-09-09T12:46:31Z</time>
      </trkpt>
      <trkpt lat="43.69395" lon="3.18418">
        <ele>337.56</ele>
        <time>2018-09-09T12:46:43Z</time>
      </trkpt>
      <trkpt lat="43.69385" lon="3.1842">
        <ele>339.48</ele>
        <time>2018-09-09T12:46:56Z</time>
      </trkpt>
      <trkpt lat="43.69381" lon="3.1842">
        <ele>342.85</ele>
        <time>2018-09-09T12:47:09Z</time>
      </trkpt>
      <trkpt lat="43.69378" lon="3.1842">
        <ele>345.25</ele>
        <time>2018-09-09T12:47:13Z</time>
      </trkpt>
      <trkpt lat="43.69375" lon="3.18419">
        <ele>346.69</ele>
        <time>2018-09-09T12:47:17Z</time>
      </trkpt>
      <trkpt lat="43.69371" lon="3.18418">
        <ele>347.17</ele>
        <time>2018-09-09T12:47:20Z</time>
      </trkpt>
      <trkpt lat="43.69372" lon="3.18419">
        <ele>349.1</ele>
        <time>2018-09-09T12:47:34Z</time>
      </trkpt>
      <trkpt lat="43.69372" lon="3.18419">
        <ele>349.58</ele>
        <time>2018-09-09T12:47:51Z</time>
      </trkpt>
      <trkpt lat="43.69371" lon="3.1842">
        <ele>350.54</ele>
        <time>2018-09-09T12:48:15Z</time>
      </trkpt>
      <trkpt lat="43.69371" lon="3.1842">
        <ele>351.02</ele>
        <time>2018-09-09T12:48:38Z</time>
      </trkpt>
      <trkpt lat="43.6937" lon="3.1842">
        <ele>352.46</ele>
        <time>2018-09-09T12:49:03Z</time>
      </trkpt>
      <trkpt lat="43.6937" lon="3.18421">
        <ele>353.42</ele>
        <time>2018-09-09T12:49:27Z</time>
      </trkpt>
      <trkpt lat="43.6937" lon="3.18422">
        <ele>353.42</ele>
        <time>2018-09-09T12:49:46Z</time>
      </trkpt>
      <trkpt lat="43.69371" lon="3.18423">
        <ele>353.42</ele>
        <time>2018-09-09T12:50:13Z</time>
      </trkpt>
      <trkpt lat="43.6937" lon="3.18423">
        <ele>353.42</ele>
        <time>2018-09-09T12:50:39Z</time>
      </trkpt>
      <trkpt lat="43.6937" lon="3.18423">
        <ele>351.98</ele>
        <time>2018-09-09T12:51:07Z</time>
      </trkpt>
      <trkpt lat="43.6937" lon="3.18423">
        <ele>351.5</ele>
        <time>2018-09-09T12:51:36Z</time>
      </trkpt>
      <trkpt lat="43.6937" lon="3.18422">
        <ele>351.02</ele>
        <time>2018-09-09T12:51:58Z</time>
      </trkpt>
      <trkpt lat="43.69371" lon="3.18422">
        <ele>351.5</ele>
        <time>2018-09-09T12:52:22Z</time>
      </trkpt>
      <trkpt lat="43.69375" lon="3.18423">
        <ele>352.46</ele>
        <time>2018-09-09T12:52:37Z</time>
      </trkpt>
      <trkpt lat="43.69377" lon="3.18423">
        <ele>352.94</ele>
        <time>2018-09-09T12:52:40Z</time>
      </trkpt>
      <trkpt lat="43.69386" lon="3.18428">
        <ele>352.94</ele>
        <time>2018-09-09T12:52:53Z</time>
      </trkpt>
      <trkpt lat="43.69398" lon="3.18435">
        <ele>351.98</ele>
        <time>2018-09-09T12:53:05Z</time>
      </trkpt>
      <trkpt lat="43.6941" lon="3.18442">
        <ele>350.54</ele>
        <time>2018-09-09T12:53:17Z</time>
      </trkpt>
      <trkpt lat="43.6942" lon="3.18446">
        <ele>351.5</ele>
        <time>2018-09-09T12:53:28Z</time>
      </trkpt>
      <trkpt lat="43.69433" lon="3.18451">
        <ele>352.46</ele>
        <time>2018-09-09T12:53:41Z</time>
      </trkpt>
      <trkpt lat="43.69443" lon="3.18454">
        <ele>352.46</ele>
        <time>2018-09-09T12:53:52Z</time>
      </trkpt>
      <trkpt lat="43.69455" lon="3.18463">
        <ele>352.94</ele>
        <time>2018-09-09T12:54:07Z</time>
      </trkpt>
      <trkpt lat="43.69466" lon="3.18471">
        <ele>352.94</ele>
        <time>2018-09-09T12:54:21Z</time>
      </trkpt>
      <trkpt lat="43.69475" lon="3.18482">
        <ele>352.94</ele>
        <time>2018-09-09T12:54:34Z</time>
      </trkpt>
      <trkpt lat="43.69482" lon="3.18495">
        <ele>353.9</ele>
        <time>2018-09-09T12:54:47Z</time>
      </trkpt>
      <trkpt lat="43.6949" lon="3.18503">
        <ele>354.38</ele>
        <time>2018-09-09T12:55:00Z</time>
      </trkpt>
      <trkpt lat="43.69496" lon="3.18513">
        <ele>355.34</ele>
        <time>2018-09-09T12:55:14Z</time>
      </trkpt>
      <trkpt lat="43.69503" lon="3.18523">
        <ele>356.31</ele>
        <time>2018-09-09T12:55:27Z</time>
      </trkpt>
      <trkpt lat="43.69507" lon="3.18529">
        <ele>356.79</ele>
        <time>2018-09-09T12:55:37Z</time>
      </trkpt>
      <trkpt lat="43.69514" lon="3.18537">
        <ele>359.67</ele>
        <time>2018-09-09T12:55:50Z</time>
      </trkpt>
      <trkpt lat="43.69519" lon="3.18547">
        <ele>362.07</ele>
        <time>2018-09-09T12:56:01Z</time>
      </trkpt>
      <trkpt lat="43.69527" lon="3.18559">
        <ele>361.59</ele>
        <time>2018-09-09T12:56:15Z</time>
      </trkpt>
      <trkpt lat="43.69533" lon="3.18569">
        <ele>362.55</ele>
        <time>2018-09-09T12:56:27Z</time>
      </trkpt>
      <trkpt lat="43.69538" lon="3.18581">
        <ele>363.52</ele>
        <time>2018-09-09T12:56:40Z</time>
      </trkpt>
      <trkpt lat="43.69543" lon="3.18587">
        <ele>364.48</ele>
        <time>2018-09-09T12:56:53Z</time>
      </trkpt>
      <trkpt lat="43.69552" lon="3.18597">
        <ele>364.96</ele>
        <time>2018-09-09T12:57:06Z</time>
      </trkpt>
      <trkpt lat="43.69557" lon="3.18607">
        <ele>368.32</ele>
        <time>2018-09-09T12:57:21Z</time>
      </trkpt>
      <trkpt lat="43.69565" lon="3.18611">
        <ele>369.76</ele>
        <time>2018-09-09T12:57:32Z</time>
      </trkpt>
      <trkpt lat="43.69572" lon="3.18617">
        <ele>370.24</ele>
        <time>2018-09-09T12:57:45Z</time>
      </trkpt>
      <trkpt lat="43.69581" lon="3.18623">
        <ele>370.24</ele>
        <time>2018-09-09T12:57:57Z</time>
      </trkpt>
      <trkpt lat="43.69591" lon="3.1863">
        <ele>370.73</ele>
        <time>2018-09-09T12:58:11Z</time>
      </trkpt>
      <trkpt lat="43.69597" lon="3.18634">
        <ele>370.73</ele>
        <time>2018-09-09T12:58:24Z</time>
      </trkpt>
      <trkpt lat="43.69606" lon="3.1864">
        <ele>371.21</ele>
        <time>2018-09-09T12:58:37Z</time>
      </trkpt>
      <trkpt lat="43.69616" lon="3.18647">
        <ele>370.73</ele>
        <time>2018-09-09T12:58:49Z</time>
      </trkpt>
      <trkpt lat="43.69625" lon="3.18657">
        <ele>367.84</ele>
        <time>2018-09-09T12:59:02Z</time>
      </trkpt>
      <trkpt lat="43.69635" lon="3.18667">
        <ele>365.92</ele>
        <time>2018-09-09T12:59:15Z</time>
      </trkpt>
      <trkpt lat="43.69645" lon="3.18677">
        <ele>364.48</ele>
        <time>2018-09-09T12:59:28Z</time>
      </trkpt>
      <trkpt lat="43.69653" lon="3.18686">
        <ele>363.52</ele>
        <time>2018-09-09T12:59:39Z</time>
      </trkpt>
      <trkpt lat="43.69658" lon="3.18698">
        <ele>360.63</ele>
        <time>2018-09-09T12:59:52Z</time>
      </trkpt>
      <trkpt lat="43.69661" lon="3.18702">
        <ele>359.19</ele>
        <time>2018-09-09T12:59:57Z</time>
      </trkpt>
      <trkpt lat="43.69669" lon="3.1872">
        <ele>358.71</ele>
        <time>2018-09-09T13:00:11Z</time>
      </trkpt>
      <trkpt lat="43.69672" lon="3.18733">
        <ele>359.67</ele>
        <time>2018-09-09T13:00:20Z</time>
      </trkpt>
      <trkpt lat="43.69674" lon="3.18741">
        <ele>361.11</ele>
        <time>2018-09-09T13:00:26Z</time>
      </trkpt>
      <trkpt lat="43.69676" lon="3.18748">
        <ele>363.04</ele>
        <time>2018-09-09T13:00:40Z</time>
      </trkpt>
      <trkpt lat="43.69677" lon="3.18745">
        <ele>364.48</ele>
        <time>2018-09-09T13:01:08Z</time>
      </trkpt>
      <trkpt lat="43.69678" lon="3.18744">
        <ele>364.48</ele>
        <time>2018-09-09T13:01:36Z</time>
      </trkpt>
      <trkpt lat="43.69678" lon="3.18746">
        <ele>364.48</ele>
        <time>2018-09-09T13:01:57Z</time>
      </trkpt>
      <trkpt lat="43.69681" lon="3.1876">
        <ele>364.48</ele>
        <time>2018-09-09T13:02:09Z</time>
      </trkpt>
      <trkpt lat="43.69684" lon="3.18777">
        <ele>365.44</ele>
        <time>2018-09-09T13:02:21Z</time>
      </trkpt>
      <trkpt lat="43.69687" lon="3.1879">
        <ele>363.04</ele>
        <time>2018-09-09T13:02:33Z</time>
      </trkpt>
      <trkpt lat="43.69693" lon="3.18801">
        <ele>365.44</ele>
        <time>2018-09-09T13:02:46Z</time>
      </trkpt>
      <trkpt lat="43.69697" lon="3.18811">
        <ele>365.92</ele>
        <time>2018-09-09T13:03:00Z</time>
      </trkpt>
      <trkpt lat="43.69703" lon="3.18824">
        <ele>366.4</ele>
        <time>2018-09-09T13:03:14Z</time>
      </trkpt>
      <trkpt lat="43.69705" lon="3.18833">
        <ele>368.32</ele>
        <time>2018-09-09T13:03:27Z</time>
      </trkpt>
      <trkpt lat="43.69712" lon="3.18845">
        <ele>367.36</ele>
        <time>2018-09-09T13:03:41Z</time>
      </trkpt>
      <trkpt lat="43.69722" lon="3.18849">
        <ele>367.36</ele>
        <time>2018-09-09T13:03:55Z</time>
      </trkpt>
      <trkpt lat="43.69731" lon="3.18852">
        <ele>367.36</ele>
        <time>2018-09-09T13:04:07Z</time>
      </trkpt>
      <trkpt lat="43.69748" lon="3.18856">
        <ele>364.48</ele>
        <time>2018-09-09T13:04:21Z</time>
      </trkpt>
      <trkpt lat="43.69749" lon="3.18856">
        <ele>364</ele>
        <time>2018-09-09T13:04:22Z</time>
      </trkpt>
      <trkpt lat="43.69761" lon="3.18857">
        <ele>364.48</ele>
        <time>2018-09-09T13:04:36Z</time>
      </trkpt>
      <trkpt lat="43.69772" lon="3.1886">
        <ele>365.44</ele>
        <time>2018-09-09T13:04:50Z</time>
      </trkpt>
      <trkpt lat="43.6978" lon="3.18856">
        <ele>367.36</ele>
        <time>2018-09-09T13:04:56Z</time>
      </trkpt>
      <trkpt lat="43.69784" lon="3.18858">
        <ele>369.28</ele>
        <time>2018-09-09T13:04:59Z</time>
      </trkpt>
      <trkpt lat="43.69787" lon="3.1886">
        <ele>371.21</ele>
        <time>2018-09-09T13:05:10Z</time>
      </trkpt>
      <trkpt lat="43.69788" lon="3.18859">
        <ele>372.65</ele>
        <time>2018-09-09T13:05:27Z</time>
      </trkpt>
      <trkpt lat="43.69788" lon="3.18859">
        <ele>373.13</ele>
        <time>2018-09-09T13:05:52Z</time>
      </trkpt>
      <trkpt lat="43.69789" lon="3.18859">
        <ele>374.09</ele>
        <time>2018-09-09T13:06:06Z</time>
      </trkpt>
      <trkpt lat="43.69791" lon="3.18859">
        <ele>374.09</ele>
        <time>2018-09-09T13:06:28Z</time>
      </trkpt>
      <trkpt lat="43.69794" lon="3.18858">
        <ele>374.09</ele>
        <time>2018-09-09T13:06:47Z</time>
      </trkpt>
      <trkpt lat="43.69804" lon="3.18853">
        <ele>374.57</ele>
        <time>2018-09-09T13:07:04Z</time>
      </trkpt>
      <trkpt lat="43.69809" lon="3.18852">
        <ele>374.57</ele>
        <time>2018-09-09T13:07:20Z</time>
      </trkpt>
      <trkpt lat="43.69815" lon="3.1885">
        <ele>375.05</ele>
        <time>2018-09-09T13:07:31Z</time>
      </trkpt>
      <trkpt lat="43.69822" lon="3.18849">
        <ele>374.57</ele>
        <time>2018-09-09T13:07:39Z</time>
      </trkpt>
      <trkpt lat="43.69824" lon="3.1885">
        <ele>374.57</ele>
        <time>2018-09-09T13:07:41Z</time>
      </trkpt>
      <trkpt lat="43.6983" lon="3.18851">
        <ele>374.57</ele>
        <time>2018-09-09T13:07:47Z</time>
      </trkpt>
      <trkpt lat="43.69837" lon="3.18852">
        <ele>376.01</ele>
        <time>2018-09-09T13:07:55Z</time>
      </trkpt>
      <trkpt lat="43.69847" lon="3.18854">
        <ele>377.45</ele>
        <time>2018-09-09T13:08:06Z</time>
      </trkpt>
      <trkpt lat="43.69849" lon="3.18854">
        <ele>377.94</ele>
        <time>2018-09-09T13:08:08Z</time>
      </trkpt>
      <trkpt lat="43.69853" lon="3.18855">
        <ele>378.9</ele>
        <time>2018-09-09T13:08:12Z</time>
      </trkpt>
      <trkpt lat="43.69858" lon="3.18855">
        <ele>378.9</ele>
        <time>2018-09-09T13:08:17Z</time>
      </trkpt>
      <trkpt lat="43.69865" lon="3.18857">
        <ele>377.45</ele>
        <time>2018-09-09T13:08:25Z</time>
      </trkpt>
      <trkpt lat="43.69868" lon="3.18858">
        <ele>376.49</ele>
        <time>2018-09-09T13:08:28Z</time>
      </trkpt>
      <trkpt lat="43.69878" lon="3.18863">
        <ele>376.01</ele>
        <time>2018-09-09T13:08:39Z</time>
      </trkpt>
      <trkpt lat="43.69879" lon="3.18863">
        <ele>376.01</ele>
        <time>2018-09-09T13:08:40Z</time>
      </trkpt>
      <trkpt lat="43.69881" lon="3.18863">
        <ele>376.01</ele>
        <time>2018-09-09T13:08:43Z</time>
      </trkpt>
      <trkpt lat="43.69888" lon="3.18864">
        <ele>375.53</ele>
        <time>2018-09-09T13:08:50Z</time>
      </trkpt>
      <trkpt lat="43.69897" lon="3.1886">
        <ele>375.53</ele>
        <time>2018-09-09T13:08:59Z</time>
      </trkpt>
      <trkpt lat="43.69908" lon="3.1886">
        <ele>376.97</ele>
        <time>2018-09-09T13:09:11Z</time>
      </trkpt>
      <trkpt lat="43.6992" lon="3.1886">
        <ele>377.94</ele>
        <time>2018-09-09T13:09:23Z</time>
      </trkpt>
      <trkpt lat="43.6993" lon="3.18858">
        <ele>377.94</ele>
        <time>2018-09-09T13:09:35Z</time>
      </trkpt>
      <trkpt lat="43.69939" lon="3.18854">
        <ele>376.97</ele>
        <time>2018-09-09T13:09:46Z</time>
      </trkpt>
      <trkpt lat="43.69943" lon="3.18847">
        <ele>376.01</ele>
        <time>2018-09-09T13:09:54Z</time>
      </trkpt>
      <trkpt lat="43.69945" lon="3.1884">
        <ele>374.57</ele>
        <time>2018-09-09T13:09:58Z</time>
      </trkpt>
      <trkpt lat="43.69946" lon="3.18826">
        <ele>373.13</ele>
        <time>2018-09-09T13:10:11Z</time>
      </trkpt>
      <trkpt lat="43.69948" lon="3.18817">
        <ele>373.61</ele>
        <time>2018-09-09T13:10:17Z</time>
      </trkpt>
      <trkpt lat="43.6995" lon="3.18805">
        <ele>373.61</ele>
        <time>2018-09-09T13:10:25Z</time>
      </trkpt>
      <trkpt lat="43.69954" lon="3.18796">
        <ele>373.13</ele>
        <time>2018-09-09T13:10:33Z</time>
      </trkpt>
      <trkpt lat="43.69959" lon="3.18789">
        <ele>373.13</ele>
        <time>2018-09-09T13:10:41Z</time>
      </trkpt>
      <trkpt lat="43.69962" lon="3.18783">
        <ele>372.17</ele>
        <time>2018-09-09T13:10:46Z</time>
      </trkpt>
      <trkpt lat="43.69964" lon="3.18778">
        <ele>372.17</ele>
        <time>2018-09-09T13:10:49Z</time>
      </trkpt>
      <trkpt lat="43.69971" lon="3.18764">
        <ele>372.17</ele>
        <time>2018-09-09T13:11:02Z</time>
      </trkpt>
      <trkpt lat="43.69972" lon="3.18763">
        <ele>372.17</ele>
        <time>2018-09-09T13:11:03Z</time>
      </trkpt>
      <trkpt lat="43.69975" lon="3.18759">
        <ele>372.17</ele>
        <time>2018-09-09T13:11:06Z</time>
      </trkpt>
      <trkpt lat="43.69978" lon="3.1875">
        <ele>370.24</ele>
        <time>2018-09-09T13:11:14Z</time>
      </trkpt>
      <trkpt lat="43.69982" lon="3.18742">
        <ele>370.73</ele>
        <time>2018-09-09T13:11:21Z</time>
      </trkpt>
      <trkpt lat="43.69991" lon="3.18732">
        <ele>370.24</ele>
        <time>2018-09-09T13:11:32Z</time>
      </trkpt>
      <trkpt lat="43.69996" lon="3.18725">
        <ele>369.28</ele>
        <time>2018-09-09T13:11:41Z</time>
      </trkpt>
      <trkpt lat="43.69999" lon="3.18711">
        <ele>368.32</ele>
        <time>2018-09-09T13:11:51Z</time>
      </trkpt>
      <trkpt lat="43.7" lon="3.187">
        <ele>367.84</ele>
        <time>2018-09-09T13:12:00Z</time>
      </trkpt>
      <trkpt lat="43.69999" lon="3.18694">
        <ele>367.84</ele>
        <time>2018-09-09T13:12:03Z</time>
      </trkpt>
      <trkpt lat="43.69999" lon="3.1869">
        <ele>367.36</ele>
        <time>2018-09-09T13:12:07Z</time>
      </trkpt>
      <trkpt lat="43.7" lon="3.18676">
        <ele>368.32</ele>
        <time>2018-09-09T13:12:18Z</time>
      </trkpt>
      <trkpt lat="43.69999" lon="3.18663">
        <ele>366.88</ele>
        <time>2018-09-09T13:12:28Z</time>
      </trkpt>
      <trkpt lat="43.69999" lon="3.18661">
        <ele>366.88</ele>
        <time>2018-09-09T13:12:29Z</time>
      </trkpt>
      <trkpt lat="43.7" lon="3.18647">
        <ele>364.96</ele>
        <time>2018-09-09T13:12:39Z</time>
      </trkpt>
      <trkpt lat="43.7" lon="3.18645">
        <ele>364.48</ele>
        <time>2018-09-09T13:12:41Z</time>
      </trkpt>
      <trkpt lat="43.69999" lon="3.1864">
        <ele>364</ele>
        <time>2018-09-09T13:12:44Z</time>
      </trkpt>
      <trkpt lat="43.7" lon="3.1863">
        <ele>362.55</ele>
        <time>2018-09-09T13:12:54Z</time>
      </trkpt>
      <trkpt lat="43.70001" lon="3.18614">
        <ele>361.11</ele>
        <time>2018-09-09T13:13:05Z</time>
      </trkpt>
      <trkpt lat="43.70001" lon="3.18598">
        <ele>360.63</ele>
        <time>2018-09-09T13:13:16Z</time>
      </trkpt>
      <trkpt lat="43.7" lon="3.1859">
        <ele>359.67</ele>
        <time>2018-09-09T13:13:24Z</time>
      </trkpt>
      <trkpt lat="43.69997" lon="3.18573">
        <ele>359.19</ele>
        <time>2018-09-09T13:13:36Z</time>
      </trkpt>
      <trkpt lat="43.69995" lon="3.1857">
        <ele>359.19</ele>
        <time>2018-09-09T13:13:38Z</time>
      </trkpt>
      <trkpt lat="43.69994" lon="3.18559">
        <ele>357.75</ele>
        <time>2018-09-09T13:13:47Z</time>
      </trkpt>
      <trkpt lat="43.69993" lon="3.18553">
        <ele>358.23</ele>
        <time>2018-09-09T13:13:51Z</time>
      </trkpt>
      <trkpt lat="43.6999" lon="3.18542">
        <ele>358.23</ele>
        <time>2018-09-09T13:13:59Z</time>
      </trkpt>
      <trkpt lat="43.69989" lon="3.18537">
        <ele>358.23</ele>
        <time>2018-09-09T13:14:03Z</time>
      </trkpt>
      <trkpt lat="43.69988" lon="3.18523">
        <ele>358.23</ele>
        <time>2018-09-09T13:14:12Z</time>
      </trkpt>
      <trkpt lat="43.69987" lon="3.18521">
        <ele>358.23</ele>
        <time>2018-09-09T13:14:14Z</time>
      </trkpt>
      <trkpt lat="43.69986" lon="3.18511">
        <ele>358.23</ele>
        <time>2018-09-09T13:14:21Z</time>
      </trkpt>
      <trkpt lat="43.69986" lon="3.18507">
        <ele>358.23</ele>
        <time>2018-09-09T13:14:24Z</time>
      </trkpt>
      <trkpt lat="43.69986" lon="3.18499">
        <ele>357.27</ele>
        <time>2018-09-09T13:14:31Z</time>
      </trkpt>
      <trkpt lat="43.69981" lon="3.18486">
        <ele>354.86</ele>
        <time>2018-09-09T13:14:42Z</time>
      </trkpt>
      <trkpt lat="43.69978" lon="3.18474">
        <ele>353.42</ele>
        <time>2018-09-09T13:14:52Z</time>
      </trkpt>
      <trkpt lat="43.69976" lon="3.18467">
        <ele>352.94</ele>
        <time>2018-09-09T13:14:57Z</time>
      </trkpt>
      <trkpt lat="43.69975" lon="3.1846">
        <ele>352.46</ele>
        <time>2018-09-09T13:15:01Z</time>
      </trkpt>
      <trkpt lat="43.69973" lon="3.18451">
        <ele>351.5</ele>
        <time>2018-09-09T13:15:09Z</time>
      </trkpt>
      <trkpt lat="43.69973" lon="3.18445">
        <ele>351.02</ele>
        <time>2018-09-09T13:15:12Z</time>
      </trkpt>
      <trkpt lat="43.69973" lon="3.18439">
        <ele>350.54</ele>
        <time>2018-09-09T13:15:17Z</time>
      </trkpt>
      <trkpt lat="43.69973" lon="3.18437">
        <ele>350.06</ele>
        <time>2018-09-09T13:15:19Z</time>
      </trkpt>
      <trkpt lat="43.69971" lon="3.18431">
        <ele>349.58</ele>
        <time>2018-09-09T13:15:25Z</time>
      </trkpt>
      <trkpt lat="43.6997" lon="3.18428">
        <ele>349.58</ele>
        <time>2018-09-09T13:15:27Z</time>
      </trkpt>
      <trkpt lat="43.69968" lon="3.18415">
        <ele>349.58</ele>
        <time>2018-09-09T13:15:36Z</time>
      </trkpt>
      <trkpt lat="43.6997" lon="3.18404">
        <ele>349.1</ele>
        <time>2018-09-09T13:15:45Z</time>
      </trkpt>
      <trkpt lat="43.6997" lon="3.18396">
        <ele>349.1</ele>
        <time>2018-09-09T13:15:52Z</time>
      </trkpt>
      <trkpt lat="43.69969" lon="3.18385">
        <ele>348.13</ele>
        <time>2018-09-09T13:15:58Z</time>
      </trkpt>
      <trkpt lat="43.6997" lon="3.18374">
        <ele>348.13</ele>
        <time>2018-09-09T13:16:07Z</time>
      </trkpt>
      <trkpt lat="43.69965" lon="3.1836">
        <ele>346.69</ele>
        <time>2018-09-09T13:16:18Z</time>
      </trkpt>
      <trkpt lat="43.69963" lon="3.18348">
        <ele>347.65</ele>
        <time>2018-09-09T13:16:27Z</time>
      </trkpt>
      <trkpt lat="43.6996" lon="3.18339">
        <ele>346.21</ele>
        <time>2018-09-09T13:16:34Z</time>
      </trkpt>
      <trkpt lat="43.69953" lon="3.18328">
        <ele>346.69</ele>
        <time>2018-09-09T13:16:47Z</time>
      </trkpt>
      <trkpt lat="43.69947" lon="3.18322">
        <ele>346.21</ele>
        <time>2018-09-09T13:16:54Z</time>
      </trkpt>
      <trkpt lat="43.69944" lon="3.18306">
        <ele>345.25</ele>
        <time>2018-09-09T13:17:06Z</time>
      </trkpt>
      <trkpt lat="43.69945" lon="3.18303">
        <ele>345.25</ele>
        <time>2018-09-09T13:17:08Z</time>
      </trkpt>
      <trkpt lat="43.69946" lon="3.18298">
        <ele>344.77</ele>
        <time>2018-09-09T13:17:11Z</time>
      </trkpt>
      <trkpt lat="43.69946" lon="3.18294">
        <ele>344.29</ele>
        <time>2018-09-09T13:17:13Z</time>
      </trkpt>
      <trkpt lat="43.6995" lon="3.18283">
        <ele>342.85</ele>
        <time>2018-09-09T13:17:24Z</time>
      </trkpt>
      <trkpt lat="43.69951" lon="3.18282">
        <ele>342.85</ele>
        <time>2018-09-09T13:17:25Z</time>
      </trkpt>
      <trkpt lat="43.69957" lon="3.18269">
        <ele>339.96</ele>
        <time>2018-09-09T13:17:36Z</time>
      </trkpt>
      <trkpt lat="43.69957" lon="3.18268">
        <ele>339.96</ele>
        <time>2018-09-09T13:17:37Z</time>
      </trkpt>
      <trkpt lat="43.69958" lon="3.18265">
        <ele>339</ele>
        <time>2018-09-09T13:17:39Z</time>
      </trkpt>
      <trkpt lat="43.69961" lon="3.18258">
        <ele>338.04</ele>
        <time>2018-09-09T13:17:44Z</time>
      </trkpt>
      <trkpt lat="43.69967" lon="3.18244">
        <ele>337.08</ele>
        <time>2018-09-09T13:17:52Z</time>
      </trkpt>
      <trkpt lat="43.6997" lon="3.18235">
        <ele>337.56</ele>
        <time>2018-09-09T13:18:02Z</time>
      </trkpt>
      <trkpt lat="43.69979" lon="3.18214">
        <ele>337.08</ele>
        <time>2018-09-09T13:18:14Z</time>
      </trkpt>
      <trkpt lat="43.69982" lon="3.18198">
        <ele>336.6</ele>
        <time>2018-09-09T13:18:26Z</time>
      </trkpt>
      <trkpt lat="43.69983" lon="3.18186">
        <ele>336.6</ele>
        <time>2018-09-09T13:18:35Z</time>
      </trkpt>
      <trkpt lat="43.69983" lon="3.18183">
        <ele>336.6</ele>
        <time>2018-09-09T13:18:37Z</time>
      </trkpt>
      <trkpt lat="43.69984" lon="3.18164">
        <ele>336.12</ele>
        <time>2018-09-09T13:18:51Z</time>
      </trkpt>
      <trkpt lat="43.69984" lon="3.18163">
        <ele>336.6</ele>
        <time>2018-09-09T13:18:56Z</time>
      </trkpt>
      <trkpt lat="43.69983" lon="3.18157">
        <ele>336.12</ele>
        <time>2018-09-09T13:19:09Z</time>
      </trkpt>
      <trkpt lat="43.69983" lon="3.18155">
        <ele>337.08</ele>
        <time>2018-09-09T13:19:26Z</time>
      </trkpt>
      <trkpt lat="43.69984" lon="3.18156">
        <ele>337.08</ele>
        <time>2018-09-09T13:19:47Z</time>
      </trkpt>
      <trkpt lat="43.69984" lon="3.18156">
        <ele>337.08</ele>
        <time>2018-09-09T13:20:01Z</time>
      </trkpt>
      <trkpt lat="43.69984" lon="3.18156">
        <ele>337.08</ele>
        <time>2018-09-09T13:20:23Z</time>
      </trkpt>
      <trkpt lat="43.69984" lon="3.18157">
        <ele>336.12</ele>
        <time>2018-09-09T13:20:46Z</time>
      </trkpt>
      <trkpt lat="43.69984" lon="3.18157">
        <ele>336.12</ele>
        <time>2018-09-09T13:21:02Z</time>
      </trkpt>
      <trkpt lat="43.69985" lon="3.18157">
        <ele>336.12</ele>
        <time>2018-09-09T13:21:18Z</time>
      </trkpt>
      <trkpt lat="43.69985" lon="3.18157">
        <ele>336.6</ele>
        <time>2018-09-09T13:21:38Z</time>
      </trkpt>
      <trkpt lat="43.69985" lon="3.18154">
        <ele>336.6</ele>
        <time>2018-09-09T13:21:59Z</time>
      </trkpt>
      <trkpt lat="43.69981" lon="3.18141">
        <ele>335.16</ele>
        <time>2018-09-09T13:22:12Z</time>
      </trkpt>
      <trkpt lat="43.69976" lon="3.18121">
        <ele>334.2</ele>
        <time>2018-09-09T13:22:27Z</time>
      </trkpt>
      <trkpt lat="43.69973" lon="3.18113">
        <ele>333.71</ele>
        <time>2018-09-09T13:22:33Z</time>
      </trkpt>
      <trkpt lat="43.69964" lon="3.18092">
        <ele>332.75</ele>
        <time>2018-09-09T13:22:52Z</time>
      </trkpt>
      <trkpt lat="43.6996" lon="3.18071">
        <ele>333.71</ele>
        <time>2018-09-09T13:23:07Z</time>
      </trkpt>
      <trkpt lat="43.6996" lon="3.1807">
        <ele>333.71</ele>
        <time>2018-09-09T13:23:08Z</time>
      </trkpt>
      <trkpt lat="43.69959" lon="3.18068">
        <ele>333.71</ele>
        <time>2018-09-09T13:23:10Z</time>
      </trkpt>
      <trkpt lat="43.69954" lon="3.18053">
        <ele>333.23</ele>
        <time>2018-09-09T13:23:21Z</time>
      </trkpt>
      <trkpt lat="43.69954" lon="3.18041">
        <ele>331.31</ele>
        <time>2018-09-09T13:23:30Z</time>
      </trkpt>
      <trkpt lat="43.69961" lon="3.1803">
        <ele>330.83</ele>
        <time>2018-09-09T13:23:41Z</time>
      </trkpt>
      <trkpt lat="43.69964" lon="3.18028">
        <ele>330.83</ele>
        <time>2018-09-09T13:23:44Z</time>
      </trkpt>
      <trkpt lat="43.69969" lon="3.18025">
        <ele>330.35</ele>
        <time>2018-09-09T13:23:49Z</time>
      </trkpt>
      <trkpt lat="43.69971" lon="3.18025">
        <ele>330.35</ele>
        <time>2018-09-09T13:23:51Z</time>
      </trkpt>
      <trkpt lat="43.69987" lon="3.1802">
        <ele>330.35</ele>
        <time>2018-09-09T13:24:07Z</time>
      </trkpt>
      <trkpt lat="43.69997" lon="3.18028">
        <ele>328.91</ele>
        <time>2018-09-09T13:24:19Z</time>
      </trkpt>
      <trkpt lat="43.69998" lon="3.1803">
        <ele>328.91</ele>
        <time>2018-09-09T13:24:20Z</time>
      </trkpt>
      <trkpt lat="43.70005" lon="3.18047">
        <ele>326.02</ele>
        <time>2018-09-09T13:24:33Z</time>
      </trkpt>
      <trkpt lat="43.70007" lon="3.18051">
        <ele>325.06</ele>
        <time>2018-09-09T13:24:36Z</time>
      </trkpt>
      <trkpt lat="43.70016" lon="3.18069">
        <ele>324.1</ele>
        <time>2018-09-09T13:24:50Z</time>
      </trkpt>
      <trkpt lat="43.70025" lon="3.18074">
        <ele>323.62</ele>
        <time>2018-09-09T13:25:01Z</time>
      </trkpt>
      <trkpt lat="43.70038" lon="3.18077">
        <ele>322.66</ele>
        <time>2018-09-09T13:25:12Z</time>
      </trkpt>
      <trkpt lat="43.70043" lon="3.18079">
        <ele>322.18</ele>
        <time>2018-09-09T13:25:17Z</time>
      </trkpt>
      <trkpt lat="43.70058" lon="3.1808">
        <ele>321.22</ele>
        <time>2018-09-09T13:25:31Z</time>
      </trkpt>
      <trkpt lat="43.7006" lon="3.18081">
        <ele>321.22</ele>
        <time>2018-09-09T13:25:33Z</time>
      </trkpt>
      <trkpt lat="43.70062" lon="3.18081">
        <ele>320.74</ele>
        <time>2018-09-09T13:25:35Z</time>
      </trkpt>
      <trkpt lat="43.70076" lon="3.18084">
        <ele>319.3</ele>
        <time>2018-09-09T13:25:48Z</time>
      </trkpt>
      <trkpt lat="43.70077" lon="3.18085">
        <ele>318.81</ele>
        <time>2018-09-09T13:25:50Z</time>
      </trkpt>
      <trkpt lat="43.70088" lon="3.18098">
        <ele>316.89</ele>
        <time>2018-09-09T13:26:02Z</time>
      </trkpt>
      <trkpt lat="43.7009" lon="3.18102">
        <ele>315.93</ele>
        <time>2018-09-09T13:26:05Z</time>
      </trkpt>
      <trkpt lat="43.70093" lon="3.18117">
        <ele>315.93</ele>
        <time>2018-09-09T13:26:13Z</time>
      </trkpt>
      <trkpt lat="43.70097" lon="3.18133">
        <ele>315.93</ele>
        <time>2018-09-09T13:26:25Z</time>
      </trkpt>
      <trkpt lat="43.70101" lon="3.18154">
        <ele>315.93</ele>
        <time>2018-09-09T13:26:39Z</time>
      </trkpt>
      <trkpt lat="43.70102" lon="3.18164">
        <ele>314.49</ele>
        <time>2018-09-09T13:26:50Z</time>
      </trkpt>
      <trkpt lat="43.701" lon="3.18188">
        <ele>313.53</ele>
        <time>2018-09-09T13:27:05Z</time>
      </trkpt>
      <trkpt lat="43.701" lon="3.1819">
        <ele>313.53</ele>
        <time>2018-09-09T13:27:06Z</time>
      </trkpt>
      <trkpt lat="43.70099" lon="3.18193">
        <ele>314.01</ele>
        <time>2018-09-09T13:27:08Z</time>
      </trkpt>
      <trkpt lat="43.70095" lon="3.18209">
        <ele>312.57</ele>
        <time>2018-09-09T13:27:24Z</time>
      </trkpt>
      <trkpt lat="43.70094" lon="3.1821">
        <ele>312.09</ele>
        <time>2018-09-09T13:27:25Z</time>
      </trkpt>
      <trkpt lat="43.70089" lon="3.18233">
        <ele>308.72</ele>
        <time>2018-09-09T13:27:40Z</time>
      </trkpt>
      <trkpt lat="43.70088" lon="3.18236">
        <ele>308.72</ele>
        <time>2018-09-09T13:27:45Z</time>
      </trkpt>
      <trkpt lat="43.70095" lon="3.18248">
        <ele>307.28</ele>
        <time>2018-09-09T13:27:59Z</time>
      </trkpt>
      <trkpt lat="43.701" lon="3.18254">
        <ele>306.32</ele>
        <time>2018-09-09T13:28:04Z</time>
      </trkpt>
      <trkpt lat="43.70107" lon="3.18269">
        <ele>302.95</ele>
        <time>2018-09-09T13:28:17Z</time>
      </trkpt>
      <trkpt lat="43.70117" lon="3.18282">
        <ele>301.03</ele>
        <time>2018-09-09T13:28:29Z</time>
      </trkpt>
      <trkpt lat="43.7012" lon="3.18284">
        <ele>300.07</ele>
        <time>2018-09-09T13:28:35Z</time>
      </trkpt>
      <trkpt lat="43.70127" lon="3.18287">
        <ele>300.55</ele>
        <time>2018-09-09T13:28:50Z</time>
      </trkpt>
      <trkpt lat="43.70127" lon="3.18287">
        <ele>301.03</ele>
        <time>2018-09-09T13:29:22Z</time>
      </trkpt>
      <trkpt lat="43.70127" lon="3.18288">
        <ele>300.55</ele>
        <time>2018-09-09T13:29:55Z</time>
      </trkpt>
      <trkpt lat="43.70127" lon="3.18287">
        <ele>300.07</ele>
        <time>2018-09-09T13:30:19Z</time>
      </trkpt>
      <trkpt lat="43.70131" lon="3.18292">
        <ele>299.59</ele>
        <time>2018-09-09T13:30:42Z</time>
      </trkpt>
      <trkpt lat="43.70134" lon="3.18294">
        <ele>298.63</ele>
        <time>2018-09-09T13:30:47Z</time>
      </trkpt>
      <trkpt lat="43.70137" lon="3.18295">
        <ele>298.15</ele>
        <time>2018-09-09T13:30:49Z</time>
      </trkpt>
      <trkpt lat="43.70146" lon="3.18297">
        <ele>297.18</ele>
        <time>2018-09-09T13:31:01Z</time>
      </trkpt>
      <trkpt lat="43.70147" lon="3.18298">
        <ele>297.18</ele>
        <time>2018-09-09T13:31:02Z</time>
      </trkpt>
      <trkpt lat="43.70158" lon="3.18308">
        <ele>295.74</ele>
        <time>2018-09-09T13:31:13Z</time>
      </trkpt>
      <trkpt lat="43.70169" lon="3.18324">
        <ele>295.26</ele>
        <time>2018-09-09T13:31:27Z</time>
      </trkpt>
      <trkpt lat="43.70181" lon="3.18333">
        <ele>298.15</ele>
        <time>2018-09-09T13:31:41Z</time>
      </trkpt>
      <trkpt lat="43.7019" lon="3.18347">
        <ele>298.15</ele>
        <time>2018-09-09T13:31:55Z</time>
      </trkpt>
      <trkpt lat="43.70193" lon="3.18358">
        <ele>298.63</ele>
        <time>2018-09-09T13:32:05Z</time>
      </trkpt>
      <trkpt lat="43.70198" lon="3.18373">
        <ele>298.15</ele>
        <time>2018-09-09T13:32:18Z</time>
      </trkpt>
      <trkpt lat="43.70201" lon="3.1839">
        <ele>296.7</ele>
        <time>2018-09-09T13:32:30Z</time>
      </trkpt>
      <trkpt lat="43.70202" lon="3.18391">
        <ele>296.7</ele>
        <time>2018-09-09T13:32:31Z</time>
      </trkpt>
      <trkpt lat="43.70203" lon="3.18397">
        <ele>296.7</ele>
        <time>2018-09-09T13:32:36Z</time>
      </trkpt>
      <trkpt lat="43.70208" lon="3.18414">
        <ele>295.74</ele>
        <time>2018-09-09T13:32:49Z</time>
      </trkpt>
      <trkpt lat="43.70212" lon="3.18429">
        <ele>293.82</ele>
        <time>2018-09-09T13:33:00Z</time>
      </trkpt>
      <trkpt lat="43.70213" lon="3.18444">
        <ele>293.34</ele>
        <time>2018-09-09T13:33:12Z</time>
      </trkpt>
      <trkpt lat="43.70214" lon="3.18451">
        <ele>293.34</ele>
        <time>2018-09-09T13:33:18Z</time>
      </trkpt>
      <trkpt lat="43.70216" lon="3.18459">
        <ele>291.42</ele>
        <time>2018-09-09T13:33:24Z</time>
      </trkpt>
      <trkpt lat="43.70216" lon="3.18462">
        <ele>290.94</ele>
        <time>2018-09-09T13:33:27Z</time>
      </trkpt>
      <trkpt lat="43.70219" lon="3.18477">
        <ele>289.49</ele>
        <time>2018-09-09T13:33:39Z</time>
      </trkpt>
      <trkpt lat="43.70219" lon="3.18478">
        <ele>289.49</ele>
        <time>2018-09-09T13:33:40Z</time>
      </trkpt>
      <trkpt lat="43.7022" lon="3.1849">
        <ele>290.94</ele>
        <time>2018-09-09T13:33:49Z</time>
      </trkpt>
      <trkpt lat="43.70228" lon="3.18504">
        <ele>292.38</ele>
        <time>2018-09-09T13:34:01Z</time>
      </trkpt>
      <trkpt lat="43.70236" lon="3.1851">
        <ele>290.46</ele>
        <time>2018-09-09T13:34:10Z</time>
      </trkpt>
      <trkpt lat="43.70248" lon="3.18523">
        <ele>289.49</ele>
        <time>2018-09-09T13:34:25Z</time>
      </trkpt>
      <trkpt lat="43.70258" lon="3.18542">
        <ele>289.01</ele>
        <time>2018-09-09T13:34:41Z</time>
      </trkpt>
      <trkpt lat="43.70259" lon="3.18548">
        <ele>289.01</ele>
        <time>2018-09-09T13:34:45Z</time>
      </trkpt>
      <trkpt lat="43.70263" lon="3.18569">
        <ele>286.61</ele>
        <time>2018-09-09T13:35:00Z</time>
      </trkpt>
      <trkpt lat="43.70266" lon="3.1859">
        <ele>284.69</ele>
        <time>2018-09-09T13:35:14Z</time>
      </trkpt>
      <trkpt lat="43.70266" lon="3.18598">
        <ele>283.73</ele>
        <time>2018-09-09T13:35:20Z</time>
      </trkpt>
      <trkpt lat="43.70267" lon="3.18604">
        <ele>282.28</ele>
        <time>2018-09-09T13:35:25Z</time>
      </trkpt>
      <trkpt lat="43.7027" lon="3.18619">
        <ele>283.73</ele>
        <time>2018-09-09T13:35:36Z</time>
      </trkpt>
      <trkpt lat="43.70277" lon="3.18632">
        <ele>283.25</ele>
        <time>2018-09-09T13:35:50Z</time>
      </trkpt>
      <trkpt lat="43.70285" lon="3.18637">
        <ele>281.32</ele>
        <time>2018-09-09T13:36:02Z</time>
      </trkpt>
      <trkpt lat="43.70296" lon="3.18649">
        <ele>278.92</ele>
        <time>2018-09-09T13:36:15Z</time>
      </trkpt>
      <trkpt lat="43.70304" lon="3.18663">
        <ele>274.11</ele>
        <time>2018-09-09T13:36:28Z</time>
      </trkpt>
      <trkpt lat="43.70311" lon="3.18676">
        <ele>269.31</ele>
        <time>2018-09-09T13:36:41Z</time>
      </trkpt>
      <trkpt lat="43.70316" lon="3.18687">
        <ele>268.83</ele>
        <time>2018-09-09T13:36:49Z</time>
      </trkpt>
      <trkpt lat="43.70328" lon="3.18698">
        <ele>272.67</ele>
        <time>2018-09-09T13:37:02Z</time>
      </trkpt>
      <trkpt lat="43.7033" lon="3.18702">
        <ele>272.67</ele>
        <time>2018-09-09T13:37:05Z</time>
      </trkpt>
      <trkpt lat="43.70342" lon="3.18713">
        <ele>277.48</ele>
        <time>2018-09-09T13:37:16Z</time>
      </trkpt>
      <trkpt lat="43.70352" lon="3.18731">
        <ele>278.44</ele>
        <time>2018-09-09T13:37:31Z</time>
      </trkpt>
      <trkpt lat="43.70354" lon="3.18737">
        <ele>277.96</ele>
        <time>2018-09-09T13:37:35Z</time>
      </trkpt>
      <trkpt lat="43.70362" lon="3.18755">
        <ele>274.11</ele>
        <time>2018-09-09T13:37:50Z</time>
      </trkpt>
      <trkpt lat="43.70363" lon="3.18762">
        <ele>273.15</ele>
        <time>2018-09-09T13:37:56Z</time>
      </trkpt>
      <trkpt lat="43.70364" lon="3.18776">
        <ele>271.71</ele>
        <time>2018-09-09T13:38:08Z</time>
      </trkpt>
      <trkpt lat="43.70364" lon="3.1878">
        <ele>271.23</ele>
        <time>2018-09-09T13:38:10Z</time>
      </trkpt>
      <trkpt lat="43.70366" lon="3.18795">
        <ele>268.83</ele>
        <time>2018-09-09T13:38:22Z</time>
      </trkpt>
      <trkpt lat="43.70379" lon="3.18795">
        <ele>267.38</ele>
        <time>2018-09-09T13:38:35Z</time>
      </trkpt>
      <trkpt lat="43.70382" lon="3.18794">
        <ele>267.38</ele>
        <time>2018-09-09T13:38:39Z</time>
      </trkpt>
      <trkpt lat="43.70389" lon="3.18791">
        <ele>267.86</ele>
        <time>2018-09-09T13:38:46Z</time>
      </trkpt>
      <trkpt lat="43.70392" lon="3.18789">
        <ele>267.86</ele>
        <time>2018-09-09T13:38:49Z</time>
      </trkpt>
      <trkpt lat="43.70408" lon="3.18779">
        <ele>269.79</ele>
        <time>2018-09-09T13:39:04Z</time>
      </trkpt>
      <trkpt lat="43.7041" lon="3.18777">
        <ele>269.31</ele>
        <time>2018-09-09T13:39:07Z</time>
      </trkpt>
      <trkpt lat="43.70424" lon="3.18769">
        <ele>267.86</ele>
        <time>2018-09-09T13:39:21Z</time>
      </trkpt>
      <trkpt lat="43.70428" lon="3.1877">
        <ele>266.42</ele>
        <time>2018-09-09T13:39:36Z</time>
      </trkpt>
      <trkpt lat="43.70429" lon="3.18771">
        <ele>266.42</ele>
        <time>2018-09-09T13:39:50Z</time>
      </trkpt>
      <trkpt lat="43.70427" lon="3.18764">
        <ele>265.94</ele>
        <time>2018-09-09T13:40:06Z</time>
      </trkpt>
      <trkpt lat="43.70427" lon="3.18763">
        <ele>265.46</ele>
        <time>2018-09-09T13:40:24Z</time>
      </trkpt>
      <trkpt lat="43.70428" lon="3.18765">
        <ele>264.5</ele>
        <time>2018-09-09T13:40:47Z</time>
      </trkpt>
      <trkpt lat="43.70428" lon="3.18765">
        <ele>264.02</ele>
        <time>2018-09-09T13:41:00Z</time>
      </trkpt>
      <trkpt lat="43.70427" lon="3.18767">
        <ele>264.98</ele>
        <time>2018-09-09T13:41:13Z</time>
      </trkpt>
      <trkpt lat="43.70426" lon="3.18766">
        <ele>265.46</ele>
        <time>2018-09-09T13:41:32Z</time>
      </trkpt>
      <trkpt lat="43.70425" lon="3.18765">
        <ele>265.46</ele>
        <time>2018-09-09T13:41:49Z</time>
      </trkpt>
      <trkpt lat="43.70424" lon="3.18767">
        <ele>265.94</ele>
        <time>2018-09-09T13:42:08Z</time>
      </trkpt>
      <trkpt lat="43.70424" lon="3.18767">
        <ele>266.9</ele>
        <time>2018-09-09T13:42:28Z</time>
      </trkpt>
      <trkpt lat="43.70424" lon="3.18767">
        <ele>266.9</ele>
        <time>2018-09-09T13:42:45Z</time>
      </trkpt>
      <trkpt lat="43.70428" lon="3.1876">
        <ele>266.42</ele>
        <time>2018-09-09T13:43:00Z</time>
      </trkpt>
      <trkpt lat="43.70431" lon="3.18764">
        <ele>265.94</ele>
        <time>2018-09-09T13:43:12Z</time>
      </trkpt>
      <trkpt lat="43.70436" lon="3.18768">
        <ele>265.94</ele>
        <time>2018-09-09T13:43:23Z</time>
      </trkpt>
      <trkpt lat="43.7044" lon="3.1877">
        <ele>265.46</ele>
        <time>2018-09-09T13:43:40Z</time>
      </trkpt>
      <trkpt lat="43.70446" lon="3.18786">
        <ele>267.86</ele>
        <time>2018-09-09T13:43:57Z</time>
      </trkpt>
      <trkpt lat="43.7045" lon="3.18803">
        <ele>267.38</ele>
        <time>2018-09-09T13:44:14Z</time>
      </trkpt>
      <trkpt lat="43.70454" lon="3.18816">
        <ele>265.94</ele>
        <time>2018-09-09T13:44:29Z</time>
      </trkpt>
      <trkpt lat="43.7046" lon="3.1883">
        <ele>265.94</ele>
        <time>2018-09-09T13:44:43Z</time>
      </trkpt>
      <trkpt lat="43.70465" lon="3.18844">
        <ele>267.38</ele>
        <time>2018-09-09T13:44:58Z</time>
      </trkpt>
      <trkpt lat="43.70471" lon="3.18858">
        <ele>266.42</ele>
        <time>2018-09-09T13:45:14Z</time>
      </trkpt>
      <trkpt lat="43.70477" lon="3.18872">
        <ele>263.54</ele>
        <time>2018-09-09T13:45:27Z</time>
      </trkpt>
      <trkpt lat="43.7048" lon="3.18877">
        <ele>262.1</ele>
        <time>2018-09-09T13:45:36Z</time>
      </trkpt>
      <trkpt lat="43.70488" lon="3.18884">
        <ele>263.54</ele>
        <time>2018-09-09T13:45:49Z</time>
      </trkpt>
      <trkpt lat="43.7049" lon="3.18893">
        <ele>264.98</ele>
        <time>2018-09-09T13:46:03Z</time>
      </trkpt>
      <trkpt lat="43.70499" lon="3.18907">
        <ele>264.5</ele>
        <time>2018-09-09T13:46:19Z</time>
      </trkpt>
      <trkpt lat="43.70499" lon="3.18909">
        <ele>264.02</ele>
        <time>2018-09-09T13:46:20Z</time>
      </trkpt>
      <trkpt lat="43.70505" lon="3.18916">
        <ele>264.5</ele>
        <time>2018-09-09T13:46:27Z</time>
      </trkpt>
      <trkpt lat="43.70513" lon="3.18924">
        <ele>264.98</ele>
        <time>2018-09-09T13:46:40Z</time>
      </trkpt>
      <trkpt lat="43.70518" lon="3.18929">
        <ele>265.46</ele>
        <time>2018-09-09T13:46:49Z</time>
      </trkpt>
      <trkpt lat="43.70524" lon="3.18943">
        <ele>262.58</ele>
        <time>2018-09-09T13:47:03Z</time>
      </trkpt>
      <trkpt lat="43.70527" lon="3.18946">
        <ele>261.62</ele>
        <time>2018-09-09T13:47:08Z</time>
      </trkpt>
      <trkpt lat="43.70529" lon="3.18949">
        <ele>261.14</ele>
        <time>2018-09-09T13:47:10Z</time>
      </trkpt>
      <trkpt lat="43.70537" lon="3.18961">
        <ele>259.21</ele>
        <time>2018-09-09T13:47:21Z</time>
      </trkpt>
      <trkpt lat="43.7054" lon="3.18972">
        <ele>255.85</ele>
        <time>2018-09-09T13:47:31Z</time>
      </trkpt>
      <trkpt lat="43.70548" lon="3.18986">
        <ele>254.89</ele>
        <time>2018-09-09T13:47:41Z</time>
      </trkpt>
      <trkpt lat="43.70551" lon="3.18994">
        <ele>251.52</ele>
        <time>2018-09-09T13:47:49Z</time>
      </trkpt>
      <trkpt lat="43.70554" lon="3.19007">
        <ele>246.23</ele>
        <time>2018-09-09T13:48:01Z</time>
      </trkpt>
      <trkpt lat="43.70558" lon="3.19019">
        <ele>242.87</ele>
        <time>2018-09-09T13:48:12Z</time>
      </trkpt>
      <trkpt lat="43.70563" lon="3.19031">
        <ele>241.91</ele>
        <time>2018-09-09T13:48:22Z</time>
      </trkpt>
      <trkpt lat="43.70565" lon="3.19035">
        <ele>241.91</ele>
        <time>2018-09-09T13:48:25Z</time>
      </trkpt>
      <trkpt lat="43.70571" lon="3.19047">
        <ele>241.91</ele>
        <time>2018-09-09T13:48:37Z</time>
      </trkpt>
      <trkpt lat="43.70577" lon="3.1906">
        <ele>244.31</ele>
        <time>2018-09-09T13:48:49Z</time>
      </trkpt>
      <trkpt lat="43.70576" lon="3.19064">
        <ele>243.83</ele>
        <time>2018-09-09T13:49:05Z</time>
      </trkpt>
      <trkpt lat="43.70591" lon="3.19065">
        <ele>259.21</ele>
        <time>2018-09-09T13:49:25Z</time>
      </trkpt>
      <trkpt lat="43.70592" lon="3.19067">
        <ele>259.69</ele>
        <time>2018-09-09T13:49:44Z</time>
      </trkpt>
      <trkpt lat="43.70593" lon="3.19065">
        <ele>262.1</ele>
        <time>2018-09-09T13:50:11Z</time>
      </trkpt>
      <trkpt lat="43.70591" lon="3.19063">
        <ele>263.06</ele>
        <time>2018-09-09T13:50:29Z</time>
      </trkpt>
      <trkpt lat="43.70591" lon="3.19063">
        <ele>263.54</ele>
        <time>2018-09-09T13:50:57Z</time>
      </trkpt>
      <trkpt lat="43.7059" lon="3.19061">
        <ele>264.5</ele>
        <time>2018-09-09T13:51:29Z</time>
      </trkpt>
      <trkpt lat="43.70591" lon="3.19059">
        <ele>263.54</ele>
        <time>2018-09-09T13:51:58Z</time>
      </trkpt>
      <trkpt lat="43.70591" lon="3.19058">
        <ele>264.5</ele>
        <time>2018-09-09T13:52:21Z</time>
      </trkpt>
      <trkpt lat="43.70591" lon="3.19058">
        <ele>264.02</ele>
        <time>2018-09-09T13:52:45Z</time>
      </trkpt>
      <trkpt lat="43.70591" lon="3.19057">
        <ele>264.5</ele>
        <time>2018-09-09T13:53:12Z</time>
      </trkpt>
      <trkpt lat="43.70591" lon="3.19056">
        <ele>264.98</ele>
        <time>2018-09-09T13:53:36Z</time>
      </trkpt>
      <trkpt lat="43.70591" lon="3.19057">
        <ele>264.98</ele>
        <time>2018-09-09T13:53:56Z</time>
      </trkpt>
      <trkpt lat="43.70593" lon="3.19063">
        <ele>265.94</ele>
        <time>2018-09-09T13:54:18Z</time>
      </trkpt>
      <trkpt lat="43.7059" lon="3.19081">
        <ele>268.83</ele>
        <time>2018-09-09T13:54:33Z</time>
      </trkpt>
      <trkpt lat="43.70586" lon="3.19091">
        <ele>269.79</ele>
        <time>2018-09-09T13:54:47Z</time>
      </trkpt>
      <trkpt lat="43.70582" lon="3.19098">
        <ele>267.38</ele>
        <time>2018-09-09T13:55:06Z</time>
      </trkpt>
      <trkpt lat="43.70581" lon="3.19095">
        <ele>269.79</ele>
        <time>2018-09-09T13:55:21Z</time>
      </trkpt>
      <trkpt lat="43.70579" lon="3.19094">
        <ele>269.31</ele>
        <time>2018-09-09T13:55:41Z</time>
      </trkpt>
    </trkseg>
  </trk>
</gpx>